[[{"header":{"parameterUnit":"m.s-1","parameterCategory":1,"la1":30.6,"la2":28.766,"lo1":-90.7593,"lo2":-88.6598,"dy":0.0162,"dx":0.0183,"nx":116,"ny":114,"refTime":"2024-02-14T06:00:00:Z","depth":0,"parameterNumber":2,"parameterNumberName":"U-component_of_WINDS"},"data":[0.0,0.0,0.0,0.0,0.0,0.0,0.0,0.0,0.0,0.0,0.0,0.0,0.0,0.0,0.0,0.0,0.0,0.0,0.0,0.0,0.0,0.0,0.0,0.0,0.0,0.0,0.0,0.0,0.0,0.0,0.0,0.0,0.0,0.0,0.0,0.0,0.0,0.0,0.0,0.0,0.0,0.0,0.0,0.0,0.0,0.0,0.0,0.0,0.0,0.0,0.0,0.0,0.0,0.0,0.0,0.0,0.0,0.0,0.0,0.0,0.0,0.0,0.0,0.0,0.0,0.0,0.0,0.0,0.0,0.0,0.0,0.0,0.0,0.0,0.0,0.0,0.0,0.0,0.0,0.0,0.0,0.0,0.0,0.0,0.0,0.0,0.0,0.0,0.0,0.0,0.0,0.0,0.0,0.0,0.0,0.0,0.0,0.0,0.0,0.0,0.0,0.0,0.0,0.0,0.0,0.0,0.0,0.0,0.0,0.0,0.0,0.0,0.0,0.0,0.0,0.0,0.0,0.0,0.0,0.0,0.0,0.0,0.0,0.0,0.0,0.0,0.0,0.0,0.0,0.0,0.0,0.0,0.0,0.0,0.0,0.0,0.0,0.0,0.0,0.0,0.0,0.0,0.0,0.0,0.0,0.0,0.0,0.0,0.0,0.0,0.0,0.0,0.0,0.0,0.0,0.0,0.0,0.0,0.0,0.0,0.0,0.0,0.0,0.0,0.0,0.0,0.0,0.0,0.0,0.0,0.0,0.0,0.0,0.0,0.0,0.0,0.0,0.0,0.0,0.0,0.0,0.0,0.0,0.0,0.0,0.0,0.0,0.0,0.0,0.0,0.0,0.0,0.0,0.0,0.0,0.0,0.0,0.0,0.0,0.0,0.0,0.0,0.0,0.0,0.0,0.0,0.0,0.0,0.0,0.0,0.0,0.0,0.0,0.0,0.0,0.0,0.0,0.0,0.0,0.0,0.0,0.0,0.0,0.0,0.0,0.0,0.0,0.0,0.0,0.0,0.0,0.0,0.0,0.0,0.0,0.0,0.0,0.0,0.0,0.0,0.0,0.0,0.0,0.0,0.0,0.0,0.0,0.0,0.0,0.0,0.0,0.0,0.0,0.0,0.0,0.0,0.0,0.0,0.0,0.0,0.0,0.0,0.0,0.0,0.0,0.0,0.0,0.0,0.0,0.0,0.0,0.0,0.0,0.0,0.0,0.0,0.0,0.0,0.0,0.0,0.0,0.0,0.0,0.0,0.0,0.0,0.0,0.0,0.0,0.0,0.0,0.0,0.0,0.0,0.0,0.0,0.0,0.0,0.0,0.0,0.0,0.0,0.0,0.0,0.0,0.0,0.0,0.0,0.0,0.0,0.0,0.0,0.0,0.0,0.0,0.0,0.0,0.0,0.0,0.0,0.0,0.0,0.0,0.0,0.0,0.0,0.0,0.0,0.0,0.0,0.0,0.0,0.0,0.0,0.0,0.0,0.0,0.0,0.0,0.0,0.0,0.0,0.0,0.0,0.0,0.0,0.0,0.0,0.0,0.0,0.0,0.0,0.0,0.0,0.0,0.0,0.0,0.0,0.0,0.0,0.0,0.0,0.0,0.0,0.0,0.0,0.0,0.0,0.0,0.0,0.0,0.0,0.0,0.0,0.0,0.0,0.0,0.0,0.0,0.0,0.0,0.0,0.0,0.0,0.0,0.0,0.0,0.0,0.0,0.0,0.0,0.0,0.0,0.0,0.0,0.0,0.0,0.0,0.0,0.0,0.0,0.0,0.0,0.0,0.0,0.0,0.0,0.0,0.0,0.0,0.0,0.0,0.0,0.0,0.0,0.0,0.0,0.0,0.0,0.0,0.0,0.0,0.0,0.0,0.0,0.0,0.0,0.0,0.0,0.0,0.0,0.0,0.0,0.0,0.0,0.0,0.0,0.0,0.0,0.0,0.0,0.0,0.0,0.0,0.0,0.0,0.0,0.0,0.0,0.0,0.0,0.0,0.0,0.0,0.0,0.0,0.0,0.0,0.0,0.0,0.0,0.0,0.0,0.0,0.0,0.0,0.0,0.0,0.0,0.0,0.0,0.0,0.0,0.0,0.0,0.0,0.0,0.0,0.0,0.0,0.0,0.0,0.0,0.0,0.0,0.0,0.0,0.0,0.0,0.0,0.0,0.0,0.0,0.0,0.0,0.0,0.0,0.0,0.0,0.0,0.0,0.0,0.0,0.0,0.0,0.0,0.0,0.0,0.0,0.0,0.0,0.0,0.0,0.0,0.0,0.0,0.0,0.0,0.0,0.0,0.0,0.0,0.0,0.0,0.0,0.0,0.0,0.0,0.0,0.0,0.0,0.0,0.0,0.0,0.0,0.0,0.0,0.0,0.0,0.0,0.0,0.0,0.0,0.0,0.0,0.0,0.0,0.0,0.0,0.0,0.0,0.0,0.0,0.0,0.0,0.0,0.0,0.0,0.0,0.0,0.0,0.0,0.0,0.0,0.0,0.0,0.0,0.0,0.0,0.0,0.0,0.0,0.0,0.0,0.0,0.0,0.0,0.0,0.0,0.0,0.0,0.0,0.0,0.0,0.0,0.0,0.0,0.0,0.0,0.0,0.0,0.0,0.0,0.0,0.0,0.0,0.0,0.0,0.0,0.0,0.0,0.0,0.0,0.0,0.0,0.0,0.0,0.0,0.0,0.0,0.0,0.0,0.0,0.0,0.0,0.0,0.0,0.0,0.0,0.0,0.0,0.0,0.0,0.0,0.0,0.0,0.0,0.0,0.0,0.0,0.0,0.0,0.0,0.0,0.0,0.0,0.0,0.0,0.0,0.0,0.0,0.0,0.0,0.0,0.0,0.0,0.0,0.0,0.0,0.0,0.0,0.0,0.0,0.0,0.0,0.0,0.0,0.0,0.0,0.0,0.0,0.0,0.0,0.0,0.0,0.0,0.0,0.0,0.0,0.0,0.0,0.0,0.0,0.0,0.0,0.0,0.0,0.0,0.0,0.0,0.0,0.0,0.0,0.0,0.0,0.0,0.0,0.0,0.0,0.0,0.0,0.0,0.0,0.0,0.0,0.0,0.0,0.0,0.0,0.0,0.0,0.0,0.0,0.0,0.0,0.0,0.0,0.0,0.0,0.0,0.0,0.0,0.0,0.0,0.0,0.0,0.0,0.0,0.0,0.0,0.0,0.0,0.0,0.0,0.0,0.0,0.0,0.0,0.0,0.0,0.0,0.0,0.0,0.0,0.0,0.0,0.0,0.0,0.0,0.0,0.0,0.0,0.0,0.0,0.0,0.0,0.0,0.0,0.0,0.0,0.0,0.0,0.0,0.0,0.0,0.0,0.0,0.0,0.0,0.0,0.0,0.0,0.0,0.0,0.0,0.0,0.0,0.0,0.0,0.0,0.0,0.0,0.0,0.0,0.0,0.0,0.0,0.0,0.0,0.0,0.0,0.0,0.0,0.0,0.0,0.0,0.0,0.0,0.0,0.0,0.0,0.0,0.0,0.0,0.0,0.0,0.0,0.0,0.0,0.0,0.0,0.0,0.0,0.0,0.0,0.0,0.0,0.0,0.0,0.0,0.0,0.0,0.0,0.0,0.0,0.0,0.0,0.0,0.0,0.0,0.0,0.0,0.0,0.0,0.0,0.0,0.0,0.0,0.0,0.0,0.0,0.0,0.0,0.0,0.0,0.0,0.0,0.0,0.0,0.0,0.0,0.0,0.0,0.0,0.0,0.0,0.0,0.0,0.0,0.0,0.0,0.0,0.0,0.0,0.0,0.0,0.0,0.0,0.0,0.0,0.0,0.0,0.0,0.0,0.0,0.0,0.0,0.0,0.0,0.0,0.0,0.0,0.0,0.0,0.0,0.0,0.0,0.0,0.0,0.0,0.0,0.0,0.0,0.0,0.0,0.0,0.0,0.0,0.0,0.0,0.0,0.0,0.0,0.0,0.0,0.0,0.0,0.0,0.0,0.0,0.0,0.0,0.0,0.0,0.0,0.0,0.0,0.0,0.0,0.0,0.0,0.0,0.0,0.0,0.0,0.0,0.0,0.0,0.0,0.0,0.0,0.0,0.0,0.0,0.0,0.0,0.0,0.0,0.0,0.0,0.0,0.0,0.0,0.0,0.0,0.0,0.0,0.0,0.0,0.0,0.0,0.0,0.0,0.0,0.0,0.0,0.0,0.0,0.0,0.0,0.0,0.0,0.0,0.0,0.0,0.0,0.0,0.0,0.0,0.0,0.0,0.0,0.0,0.0,0.0,0.0,0.0,0.0,0.0,0.0,0.0,0.0,0.0,0.0,0.0,0.0,0.0,0.0,0.0,0.0,0.0,0.0,0.0,0.0,0.0,0.0,0.0,0.0,0.0,0.0,0.0,0.0,0.0,0.0,0.0,0.0,0.0,0.0,0.0,0.0,0.0,0.0,0.0,0.0,0.0,0.0,0.0,0.0,0.0,0.0,0.0,0.0,0.0,0.0,0.0,0.0,0.0,0.0,0.0,0.0,0.0,0.0,0.0,0.0,0.0,0.0,0.0,0.0,0.0,0.0,0.0,0.0,0.0,0.0,0.0,0.0,0.0,0.0,0.0,0.0,0.0,0.0,0.0,0.0,0.0,0.0,0.0,0.0,0.0,0.0,0.0,0.0,0.0,0.0,0.0,0.0,0.0,0.0,0.0,0.0,0.0,0.0,0.0,0.0,0.0,0.0,0.0,0.0,0.0,0.0,0.0,0.0,0.0,0.0,0.0,0.0,0.0,0.0,0.0,0.0,0.0,0.0,0.0,0.0,0.0,0.0,0.0,0.0,0.0,0.0,0.0,0.0,0.0,0.0,0.0,0.0,0.0,0.0,0.0,0.0,0.0,0.0,0.0,0.0,0.0,0.0,0.0,0.0,0.0,0.0,0.0,0.0,0.0,0.0,0.0,0.0,0.0,0.0,0.0,0.0,0.0,0.0,0.0,0.0,0.0,0.0,0.0,0.0,0.0,0.0,0.0,0.0,0.0,0.0,0.0,0.0,0.0,0.0,0.0,0.0,0.0,0.0,0.0,0.0,0.0,0.0,0.0,0.0,0.0,0.0,0.0,0.0,0.0,0.0,0.0,0.0,0.0,0.0,0.0,0.0,0.0,0.0,0.0,0.0,0.0,0.0,0.0,0.0,0.0,0.0,0.0,0.0,0.0,0.0,0.0,0.0,0.0,0.0,0.0,0.0,0.0,0.0,0.0,0.0,0.0,0.0,0.0,0.0,0.0,0.0,0.0,0.0,0.0,0.0,0.0,0.0,0.0,0.0,0.0,0.0,0.0,0.0,0.0,0.0,0.0,0.0,0.0,0.0,0.0,0.0,0.0,0.0,0.0,0.0,0.0,0.0,0.0,0.0,0.0,0.0,0.0,0.0,0.0,0.0,0.0,0.0,0.0,0.0,0.0,0.0,0.0,0.0,0.0,0.0,0.0,0.0,0.0,0.0,0.0,0.0,0.0,0.0,0.0,0.0,0.0,0.0,0.0,0.0,0.0,0.0,0.0,0.0,0.0,0.0,0.0,0.0,0.0,0.0,0.0,0.0,0.0,0.0,0.0,0.0,0.0,0.0,0.0,0.0,0.0,0.0,0.0,0.0,0.0,0.0,0.0,0.0,0.0,0.0,0.0,0.0,0.0,0.0,0.0,0.0,0.0,0.0,0.0,0.0,0.0,0.0,0.0,0.0,0.0,0.0,0.0,0.0,0.0,0.0,0.0,0.0,0.0,0.0,0.0,0.0,0.0,0.0,0.0,0.0,0.0,0.0,0.0,0.0,0.0,0.0,0.0,0.0,0.0,0.0,0.0,0.0,0.0,0.0,0.0,0.0,0.0,0.0,0.0,0.0,0.0,0.0,0.0,0.0,0.0,0.0,0.0,0.0,0.0,0.0,0.0,0.0,0.0,0.0,0.0,0.0,0.0,0.0,0.0,0.0,0.0,0.0,0.0,0.0,0.0,0.0,0.0,0.0,0.0,0.0,0.0,0.0,0.0,0.0,0.0,0.0,0.0,0.0,0.0,0.0,0.0,0.0,0.0,0.0,0.0,0.0,0.0,0.0,0.0,0.0,0.0,0.0,0.9672,0.0,0.0,0.0,0.0,0.0,0.0,0.0,0.0,0.0,0.0,0.0,0.0,0.0,0.0,0.0,0.0,0.0,0.0,0.0,0.0,0.0,0.0,0.0,0.0,0.0,0.0,0.0,-0.0823,-0.0569,-0.0365,-0.0135,0.0117,0.0391,0.0654,0.0897,0.1097,0.1489,0.1725,0.1805,0.227,0.2643,0.2938,0.3254,0.3538,0.381,0.0,0.0,0.0,0.0,0.0,0.0,0.0,0.0,0.0,0.0,0.0,0.0,0.0,0.0,0.0,0.0,0.0,0.0,0.0,0.0,0.0,0.0,0.0,0.0,0.0,0.0,0.0,0.0,0.0,0.0,0.0,0.0,0.0,0.0,0.0,0.0,0.0,0.0,0.0,0.0,0.0,0.0,0.0,0.0,0.0,0.0,0.0,0.0,0.0,0.0,0.0,0.0,0.0,0.0,0.0,0.0,0.0,0.0,0.0,0.0,0.0,0.0,0.0,0.0,0.0,0.0,0.0,0.0,0.0,0.0,0.0,1.0071,0.0,0.0,0.0,0.0,0.0,0.0,0.0,0.0,0.0,0.0,0.0,0.0,0.0,0.0,0.0,0.0,0.0,0.0,0.0,0.0,0.0,0.0,0.0,-0.1349,-0.1095,-0.1051,-0.0756,-0.0487,-0.0297,-0.0064,0.0173,0.0393,0.0739,0.0985,0.1097,0.1568,0.1813,0.1813,0.2313,0.2861,0.3435,0.3547,0.3649,0.0,0.0,0.0,0.0,0.0,0.0,0.0,0.0,0.0,0.0,0.0,0.0,0.0,0.0,0.0,0.0,0.0,0.0,0.0,0.0,0.0,0.0,0.0,0.0,0.0,0.0,0.0,0.0,0.0,0.0,0.0,0.0,0.0,0.0,0.0,0.0,0.0,0.0,0.0,0.0,0.0,0.0,0.0,0.0,0.0,0.0,0.0,0.0,0.0,0.0,0.0,0.0,0.0,0.0,0.0,0.0,0.0,0.0,0.0,0.0,0.0,0.0,0.0,0.0,0.0,1.0961,1.1069,1.1138,1.1138,1.1138,1.1138,1.1138,1.1055,1.0901,1.0901,0.0,0.0,0.0,0.0,0.0,0.0,0.0,0.0,0.0,0.0,0.0,0.0,0.0,0.0,0.0,0.0,0.0,0.0,0.0,0.0,0.0,-0.136,-0.1091,-0.0863,-0.0585,-0.0362,-0.0222,0.0134,0.0358,0.0393,0.083,0.1085,0.1097,0.1614,0.1893,0.1893,0.247,0.3037,0.3574,0.3593,0.3729,0.397,0.0,0.0,0.0,0.0,0.0,0.0,0.0,0.0,0.0,0.0,0.0,0.0,0.0,0.0,0.0,0.0,0.0,0.0,0.0,0.0,0.0,0.0,0.0,0.0,0.0,0.0,0.0,0.0,0.0,0.0,0.0,0.0,0.0,0.0,0.0,0.0,0.0,0.0,0.0,0.0,0.0,0.0,0.0,0.0,0.7544,0.7839,0.0,0.0,0.0,0.0,0.0,0.0,0.0,0.0,0.0,0.0,0.0,0.0,0.0,1.1408,1.1439,1.1503,1.16,1.1729,1.1857,1.1994,1.212,1.212,1.212,1.212,1.212,0.0,1.0901,1.0901,0.0,0.0,0.0,0.0,0.0,0.0,0.0,0.0,0.0,0.0,0.0,0.0,0.0,0.0,0.0,0.0,0.0,0.0,0.0,0.0,0.0,-0.1225,-0.1,-0.0762,-0.0535,-0.0308,-0.0101,0.0214,0.0416,0.045,0.0906,0.1159,0.1159,0.1678,0.2106,0.2411,0.2742,0.319,0.3711,0.3787,0.3992,0.4293,0.4481,0.4604,0.466,0.4793,0.0,0.0,0.0,0.0,0.0,0.0,0.0,0.0,0.0,0.0,0.0,0.0,0.0,0.0,0.0,0.0,0.0,0.0,0.0,0.0,0.0,0.0,0.0,0.0,0.0,0.0,0.0,0.0,0.0,0.0,0.0,0.0,0.0,0.0,0.0,0.0,0.0,0.0,0.0,0.7937,0.8253,0.849,0.881,0.9095,0.0,0.0,0.0,0.0,0.0,0.0,0.0,0.0,0.0,1.14,1.1531,1.1606,1.1606,1.1669,1.1735,1.179,1.1997,1.2136,1.219,1.2275,1.2307,1.2307,1.2307,1.2069,1.1685,1.1685,1.1685,1.1695,0.0,0.0,0.0,0.0,1.2211,1.225,0.0,0.0,0.0,0.0,0.0,0.0,0.0,0.0,0.0,0.0,0.0,0.0,-0.1349,-0.1081,-0.0846,-0.0661,-0.0461,-0.0236,0.0034,0.027,0.0452,0.057,0.0973,0.122,0.1245,0.1783,0.2325,0.2876,0.2975,0.3294,0.3804,0.3934,0.4145,0.4436,0.4577,0.4664,0.4716,0.4881,0.5061,0.0,0.0,0.0,0.0,0.0,0.0,0.0,0.0,0.0,0.0,0.0,0.0,0.0,0.0,0.0,0.0,0.0,0.0,0.0,0.0,0.0,0.0,0.0,0.0,0.0,0.0,0.0,0.0,0.0,0.0,0.0,0.0,0.0,0.0,0.0,0.0,0.0,0.0,0.8581,0.885,0.9094,0.9391,0.9655,0.0,0.0,0.0,0.0,0.0,0.0,1.144,1.151,1.1603,1.1782,1.1883,1.1928,1.1928,1.1982,1.2015,1.206,1.2262,1.2363,1.2386,1.2518,1.2584,1.2584,1.2617,1.2628,1.2618,1.239,1.2307,1.2318,1.2372,1.2468,1.2563,1.2732,1.2827,1.2879,0.0,0.0,0.0,0.0,0.0,0.0,0.0,0.0,0.0,0.0,0.0,-0.1479,-0.14,-0.0984,-0.0662,-0.0517,-0.0326,-0.0101,0.0169,0.0326,0.0514,0.077,0.1046,0.126,0.1383,0.1915,0.2477,0.3088,0.3093,0.3345,0.3801,0.3935,0.4079,0.4221,0.4425,0.4584,0.4718,0.4976,0.5103,0.5128,0.0,0.0,0.0,0.0,0.0,0.0,0.0,0.0,0.0,0.0,0.0,0.0,0.0,0.0,0.0,0.0,0.0,0.0,0.0,0.0,0.0,0.0,0.0,0.0,0.0,0.0,0.0,0.0,0.0,0.0,0.0,0.0,0.0,0.0,0.0,0.0,0.0,0.0,0.0,0.9425,0.9663,0.0,0.0,0.0,0.0,1.1252,1.174,1.2156,1.2414,1.2426,1.2548,1.2825,1.2825,1.2837,1.2837,1.2837,1.2897,1.3028,1.304,1.308,1.3148,1.3279,1.3348,1.3348,1.3477,1.3536,1.3464,1.2639,1.2307,1.2318,1.2372,1.2393,1.2436,1.2701,1.2806,1.2817,0.0,0.0,0.0,0.0,0.0,0.0,0.0,0.0,-0.2125,-0.2017,-0.1677,-0.1376,-0.123,-0.0909,-0.0629,-0.045,-0.0292,-0.0045,0.0304,0.0374,0.0559,0.0913,0.1139,0.1472,0.1903,0.2104,0.2502,0.3102,0.3185,0.3462,0.3938,0.4065,0.4239,0.4461,0.4531,0.4663,0.4833,0.4843,0.4891,0.4969,0.5028,0.5042,0.0,0.0,0.0,0.0,0.0,0.0,0.0,0.0,0.0,0.0,0.0,0.0,0.0,0.0,0.0,0.0,0.0,0.0,0.0,0.0,0.0,0.0,0.0,0.0,0.0,0.0,0.0,0.0,0.0,0.0,0.0,0.0,0.0,0.0,0.0,0.0,0.0,1.0101,1.0368,0.0,1.0886,1.1488,1.1931,1.2065,1.2652,1.3079,1.3256,1.3383,1.3523,1.3678,1.3678,1.3678,1.3678,1.3678,1.3704,1.3743,1.3833,1.3875,1.3917,1.4055,1.4106,1.4099,1.3979,1.392,1.3881,1.3358,1.3134,1.3146,1.3158,1.3215,1.3306,1.3419,1.3498,1.3577,0.0,0.0,0.0,0.0,0.0,0.0,0.0,0.0,-0.2065,-0.1888,-0.1569,-0.1277,-0.1054,-0.0775,-0.0551,-0.0416,-0.0194,0.007,0.0381,0.0447,0.0655,0.1077,0.1331,0.1699,0.2183,0.2252,0.2533,0.3069,0.3248,0.3522,0.3896,0.41,0.429,0.447,0.4561,0.4668,0.4795,0.4777,0.4844,0.4965,0.504,0.5035,0.4969,0.0,0.0,0.0,0.0,0.0,0.0,0.0,0.0,0.0,0.0,0.0,0.0,0.0,0.0,0.0,0.0,0.0,0.0,0.0,0.0,0.0,0.0,0.0,0.0,0.0,0.0,0.0,0.0,0.0,0.0,0.0,0.0,0.0,0.0,0.0,1.0447,1.0775,1.116,1.1509,1.1783,1.2277,1.2627,1.2755,1.322,1.3558,1.3692,1.3886,1.403,1.4091,1.4091,1.4091,1.4091,1.4091,1.4091,1.4091,1.4184,1.4234,1.4247,1.4367,1.4433,1.4423,1.4293,1.4226,1.4231,1.4064,1.4002,1.3984,1.371,1.3656,1.3739,1.3785,1.3856,1.3949,0.0,0.0,0.0,0.0,0.0,0.0,0.0,-0.2323,-0.2053,-0.1647,-0.1422,-0.1188,-0.0921,-0.0596,-0.0393,-0.0393,-0.0035,0.0251,0.0395,0.0532,0.0809,0.1279,0.1627,0.1923,0.2202,0.2331,0.2604,0.2999,0.3265,0.3502,0.3704,0.4044,0.4198,0.4228,0.4482,0.4604,0.462,0.4825,0.4974,0.5119,0.0,0.0,0.51,0.0,0.0,0.0,0.0,0.0,0.0,0.0,0.0,0.0,0.0,0.0,0.0,0.0,0.0,0.0,0.0,0.0,0.0,0.0,0.0,0.0,0.0,0.0,0.0,0.0,0.0,0.0,0.0,0.0,0.0,0.0,0.0,0.0,0.9859,1.0508,1.1121,1.1392,1.1998,1.2514,1.2776,1.2995,1.3177,1.3314,1.346,1.3596,1.373,1.3924,1.4069,1.413,1.413,1.413,1.413,1.413,1.413,1.413,1.413,1.413,1.413,1.4287,1.4327,1.434,1.4463,1.4516,1.453,1.4708,1.479,1.4711,1.3942,1.364,1.3641,1.376,1.3808,1.3821,0.0,0.0,0.0,0.0,0.0,0.0,0.0,-0.2178,-0.1906,-0.1512,-0.1277,-0.1054,-0.0787,-0.0539,-0.036,-0.0258,0.0023,0.0254,0.0397,0.0566,0.0867,0.1284,0.162,0.1972,0.2336,0.2388,0.2647,0.3144,0.3308,0.3532,0.3782,0.3963,0.4213,0.449,0.4568,0.4652,0.475,0.4958,0.5071,0.0,0.0,0.0,0.4962,0.0,0.0,0.0,0.0,0.0,0.0,0.0,0.0,0.0,0.0,0.0,0.0,0.0,0.0,0.0,0.0,0.0,0.0,0.0,0.0,0.0,0.0,0.0,0.0,0.0,0.0,0.0,0.0,0.0,0.0,0.0,0.0,1.0583,1.0401,1.0952,1.1477,1.1804,1.2163,1.2514,1.2776,1.3251,1.3591,1.3717,1.4259,1.4601,1.4634,1.4883,1.5016,1.503,1.503,1.503,1.503,1.503,1.503,1.503,1.503,1.503,1.5044,1.5073,1.5111,1.5082,1.4927,1.4867,1.4851,1.4667,1.4589,1.4585,1.4615,1.4417,1.4105,1.4142,1.3959,1.3656,0.0,0.0,0.0,0.0,0.0,0.0,0.0,-0.2061,-0.1783,-0.1411,-0.1208,-0.0975,-0.0652,-0.0483,-0.0351,-0.0207,0.0096,0.0323,0.0399,0.0694,0.1003,0.0,0.0,0.1922,0.2265,0.2417,0.2668,0.3027,0.3315,0.3524,0.367,0.3898,0.4128,0.4359,0.4525,0.4645,0.4728,0.4894,0.0,0.0,0.0,0.0,0.499,0.499,0.4899,0.4785,0.4785,0.4702,0.4586,0.4586,0.0,0.0,0.0,0.0,0.0,0.0,0.0,0.0,0.0,0.0,0.0,0.0,0.0,0.0,0.0,0.0,0.0,0.0,0.0,0.0,0.0,0.0,0.0,0.0,1.0665,1.1123,1.1102,1.1568,1.199,1.2189,1.2717,1.3127,1.3299,1.3742,1.414,1.4378,1.4855,1.5242,1.5487,1.57,1.5866,1.5952,1.5952,1.5952,1.5952,1.5952,1.5854,1.5684,1.5684,1.5586,1.5396,1.5396,1.5396,1.54,1.5242,1.5162,1.5157,1.506,1.4992,0.0,0.0,0.0,0.0,0.0,1.4428,1.42,0.0,0.0,0.0,0.0,0.0,0.0,0.0,-0.1951,-0.1658,-0.1321,-0.1165,-0.093,-0.0528,-0.0438,-0.0343,-0.019,0.0173,0.041,0.0454,0.0855,0.0,0.1312,0.1568,0.1833,0.211,0.2417,0.2648,0.2829,0.3236,0.3464,0.3515,0.3806,0.3962,0.4015,0.4395,0.4568,0.4568,0.0,0.0,0.0,0.0,0.0,0.5107,0.5123,0.5051,0.493,0.493,0.4832,0.4714,0.4712,0.0,0.0,0.0,0.0,0.0,0.0,0.0,0.0,0.0,0.0,0.0,0.0,0.0,0.0,0.0,0.0,0.0,0.0,0.0,0.0,0.0,0.0,0.0,0.0,1.1225,1.1697,1.1846,1.2293,1.2621,1.2621,1.3457,1.4068,1.4134,1.4424,1.476,1.5139,1.529,1.5604,1.6141,0.0,0.0,0.0,0.0,1.6697,1.6697,1.6697,1.6518,1.6173,1.6173,1.5923,1.5488,1.5488,1.5444,1.5396,1.5396,1.5396,1.541,1.559,1.5672,1.5593,1.4856,1.4686,1.4848,1.4926,1.4945,1.4945,0.0,0.0,0.0,0.0,0.0,0.0,0.0,-0.1817,-0.1523,-0.1186,-0.102,-0.0809,-0.0461,-0.0405,-0.0297,-0.0059,0.0235,0.0519,0.0,0.0,0.1178,0.1371,0.1587,0.1872,0.2249,0.2324,0.2559,0.2965,0.305,0.3228,0.35,0.3624,0.3764,0.3924,0.4225,0.4357,0.4369,0.0,0.0,0.0,0.0,0.0,0.5114,0.5282,0.5223,0.5059,0.5059,0.498,0.4842,0.4731,0.4685,0.464,0.4528,0.0,0.0,0.0,0.0,0.0,0.0,0.0,0.0,0.0,0.0,0.0,0.0,0.0,0.0,0.0,0.0,0.0,0.0,0.0,0.0,1.0938,1.1571,1.2051,1.2173,1.2888,1.3388,1.3388,1.3883,1.4432,1.4923,1.5118,1.533,1.557,1.5706,1.583,1.5946,1.6249,1.6414,1.6456,1.6618,1.6697,1.6697,1.6697,1.6658,1.6586,0.0,0.0,1.5968,1.5968,1.5757,1.5396,1.5396,1.5396,1.5396,1.5449,1.5464,1.5429,1.5167,1.5092,1.5083,1.472,1.4602,1.4602,0.0,0.0,0.0,0.0,0.0,0.0,0.0,-0.167,-0.14,-0.113,-0.0988,-0.0775,-0.0438,-0.0405,-0.0288,-0.0024,0.0245,0.0541,0.0,0.0968,0.1125,0.1383,0.1526,0.1787,0.219,0.2306,0.2472,0.2706,0.2805,0.2989,0.3247,0.3421,0.3585,0.3764,0.4027,0.415,0.0,0.0,0.0,0.0,0.0,0.0,0.4874,0.514,0.5193,0.5114,0.5211,0.5136,0.4987,0.4838,0.4755,0.4692,0.4622,0.4684,0.4822,0.0,0.0,0.0,0.0,0.0,0.0,0.0,0.0,0.0,0.0,0.0,0.0,0.0,0.0,0.9419,0.9947,0.0,1.0982,1.138,1.1964,1.2396,1.2531,1.3204,1.368,1.3611,1.4192,1.4759,1.5163,1.5319,1.5579,1.5975,1.605,1.6231,1.6525,1.671,1.6843,1.6952,1.7107,1.7206,1.7206,1.7298,1.7249,1.7061,1.7061,1.6826,1.6396,1.6396,1.6152,1.5747,1.5747,1.5615,1.5396,1.5396,1.5396,1.5391,1.5329,1.5349,1.5439,1.5261,1.5208,1.5208,0.0,0.0,0.0,0.0,0.0,0.0,0.0,-0.1558,-0.131,-0.113,-0.0943,-0.0719,-0.0427,-0.0382,-0.0244,0.005,0.0269,0.0,0.0,0.0898,0.1042,0.1367,0.146,0.1676,0.2047,0.2262,0.2374,0.2407,0.2555,0.2738,0.2941,0.3182,0.3387,0.353,0.3826,0.399,0.0,0.0,0.0,0.0,0.0,0.0,0.4525,0.4871,0.5037,0.512,0.5292,0.5264,0.5139,0.4994,0.4845,0.4737,0.4745,0.4806,0.4928,0.5056,0.5224,0.0,0.0,0.0,0.0,0.0,0.0,0.0,0.0,0.0,0.8249,0.8858,0.9382,0.9903,1.0438,1.0852,1.1247,1.1724,1.2245,1.265,1.2779,1.3442,1.3883,1.3826,1.445,1.5034,1.5336,1.5493,1.5793,1.632,1.6398,1.6637,1.7123,1.7184,1.7279,1.7443,1.7588,1.7681,1.7706,1.7862,1.7798,1.7516,1.7516,1.7275,1.684,1.684,1.6611,1.6212,1.6134,1.5825,1.5396,1.5396,1.5396,1.5396,1.5396,1.5493,1.5658,1.5759,1.5803,1.5803,0.0,0.0,0.0,0.0,0.0,0.0,0.0,0.0,-0.1266,-0.1119,-0.0774,-0.0506,-0.0416,-0.0292,-0.007,0.0325,0.0,0.0,0.0884,0.0898,0.1024,0.1303,0.1431,0.163,0.1923,0.2116,0.2288,0.2407,0.2423,0.2539,0.274,0.2886,0.3063,0.3272,0.3658,0.0,0.0,0.0,0.0,0.0,0.0,0.0,0.4111,0.4508,0.4841,0.5103,0.512,0.5229,0.5344,0.5143,0.4997,0.4882,0.4878,0.4883,0.4928,0.5056,0.0,0.5567,0.5595,0.6053,0.6573,0.6857,0.7319,0.779,0.0,0.0,0.887,0.9478,0.9743,1.0115,1.0883,1.1069,1.1247,1.1724,1.2245,1.265,1.2779,1.3681,1.4396,1.4552,1.4764,1.5189,1.5939,1.6131,1.6296,1.6557,1.6731,1.6862,1.6934,1.7097,1.7201,1.7218,1.7426,1.7571,1.7706,1.7723,1.7799,1.7922,1.7922,1.7715,1.7331,1.7331,1.707,1.6609,1.6271,1.5825,1.5396,1.5396,1.5396,1.5396,1.5396,1.541,1.5449,1.5449,1.5464,1.5464,0.0,0.0,0.0,0.0,0.0,0.0,0.0,0.0,0.0,-0.1108,-0.0751,-0.0472,-0.0405,-0.0211,0.0049,0.0,0.0,0.0,0.0884,0.0898,0.1003,0.123,0.1329,0.1495,0.1722,0.1918,0.2052,0.2104,0.2221,0.2372,0.2523,0.2657,0.2811,0.2977,0.3218,0.0,0.0,0.0,0.0,0.0,0.0,0.0,0.4011,0.4195,0.4475,0.4841,0.5037,0.5156,0.0,0.0,0.5005,0.4906,0.4987,0.4964,0.4942,0.5156,0.5481,0.0,0.6248,0.6672,0.0,0.0,0.7725,0.8086,0.8553,0.8839,0.919,0.9762,1.0007,1.0336,1.0975,1.109,1.1273,0.0,1.2377,1.2845,1.3218,1.3926,1.4497,1.477,1.4964,1.5347,1.6026,1.6149,1.6307,1.6586,1.6682,1.6778,1.6891,1.6968,1.702,1.702,1.7228,1.7348,1.7407,1.7537,1.7632,1.7701,1.7794,1.7731,1.7583,1.7694,1.7519,1.707,1.6383,1.5987,1.5786,1.5518,1.5396,1.5396,1.5396,1.5396,1.5396,1.5396,1.5396,1.5396,0.0,0.0,0.0,0.0,0.0,0.0,0.0,0.0,0.0,0.0,-0.0707,-0.0427,-0.0303,-0.0119,0.0087,0.0,0.0,0.0,0.0,0.0884,0.0968,0.1119,0.122,0.0,0.1512,0.1711,0.1818,0.1817,0.1968,0.212,0.2273,0.2387,0.2538,0.275,0.2843,0.0,0.0,0.0,0.0,0.0,0.0,0.0,0.388,0.3961,0.4178,0.4475,0.4841,0.5024,0.0,0.0,0.5031,0.4989,0.5172,0.514,0.5095,0.5424,0.5835,0.6288,0.6814,0.0,0.0,0.7838,0.8127,0.8465,0.8904,0.9231,0.9535,0.9929,1.0206,1.0507,1.0933,1.1059,1.1291,1.1855,1.243,1.2967,1.3444,1.4027,1.4505,1.4774,1.4981,1.537,1.6041,1.6191,1.6342,1.6581,1.6803,1.699,1.7141,1.7203,1.7221,1.7221,1.7259,1.7299,1.7361,1.7397,1.7453,1.7505,1.7606,1.763,1.7647,1.7828,1.7706,1.7285,1.6572,1.6197,1.6065,1.5551,1.5332,1.5332,1.5303,1.5289,1.5289,1.5289,1.5347,1.5381,0.0,0.0,0.0,0.0,0.0,0.0,0.0,0.0,0.0,0.0,0.0,0.0,0.0,0.0,0.0,0.0,0.0,0.0,0.0,0.0828,0.0897,0.0912,0.1091,0.1229,0.1302,0.1499,0.1603,0.1614,0.1614,0.1715,0.1919,0.1991,0.2224,0.261,0.2608,0.2767,0.0,0.0,0.0,0.0,0.0,0.0,0.3548,0.3878,0.4011,0.4078,0.4475,0.0,0.0,0.0,0.5101,0.5156,0.5482,0.55,0.0,0.5939,0.6449,0.0,0.0,0.0,0.7923,0.814,0.8581,0.9032,0.924,0.9646,0.997,0.9999,1.0317,1.064,1.0776,1.0965,1.1259,1.1732,1.2364,1.2916,1.3269,1.393,1.4443,1.4587,1.4792,1.5225,0.0,1.64,1.6591,1.6601,1.7311,1.7766,1.7766,1.7952,1.8063,1.8063,1.7688,1.7576,1.7782,1.7389,1.7314,1.7505,1.7505,1.7505,1.7505,1.7647,1.7492,1.7078,1.6799,1.6465,1.604,1.5453,1.5215,1.5186,1.5068,1.5015,1.5015,1.5015,1.5181,1.5391,0.0,0.0,0.0,0.0,0.0,0.0,0.0,0.0,0.0,0.0,0.0,0.0,0.0,0.0,0.0,0.0,0.0,0.0,0.0,0.0828,0.0902,0.0898,0.0961,0.1012,0.1033,0.1279,0.1407,0.1406,0.1533,0.1631,0.1699,0.1732,0.1808,0.1944,0.2083,0.2264,0.2471,0.2517,0.0,0.0,0.3001,0.3159,0.3328,0.3579,0.3813,0.4011,0.0,0.0,0.0,0.0,0.5107,0.5163,0.5492,0.0,0.0,0.6285,0.6783,0.7186,0.0,0.0,0.8377,0.8653,0.897,0.9274,0.9574,0.9824,1.0031,1.0174,1.0412,1.064,1.0776,1.0965,1.133,1.2028,1.2402,1.2836,1.3526,1.3849,1.4109,1.4425,1.4837,0.0,0.0,0.0,0.0,1.6957,1.7246,1.7522,1.7784,1.7868,1.797,1.8109,1.7972,1.7798,1.7594,1.7474,1.7306,1.7099,1.7228,1.7375,1.7505,1.7547,1.7487,1.7352,1.6949,1.6542,1.6128,1.567,1.5306,1.5068,1.5015,1.5,1.5,1.5,1.5059,1.5132,0.0,0.0,0.0,0.0,0.0,0.0,0.0,0.0,0.0,0.0,0.0,0.0,0.0,0.0,0.0,0.0,0.0,0.0,0.0,0.0,0.0856,0.0898,0.0902,0.0903,0.0899,0.1072,0.1162,0.119,0.1323,0.1425,0.149,0.1489,0.153,0.1614,0.1732,0.1901,0.2104,0.2188,0.2372,0.2606,0.274,0.2924,0.3142,0.3328,0.359,0.0,0.0,0.0,0.0,0.0,0.5094,0.5261,0.5599,0.5816,0.6052,0.6611,0.7108,0.7566,0.7898,0.8295,0.8673,0.8942,0.9145,0.9386,0.9724,0.991,1.0063,1.0253,1.0466,1.0624,1.0713,1.087,1.1262,1.2054,1.2323,1.2718,1.3574,1.3761,1.3917,1.4245,1.4775,1.5247,0.0,0.0,0.0,1.7166,1.7457,1.7728,1.7997,1.815,1.8293,1.8416,1.8355,1.8182,1.7935,1.7642,1.7293,1.6908,1.7038,1.7159,1.7298,1.7358,1.7392,1.7364,1.6965,1.6573,1.6154,1.5694,1.5264,1.4887,1.4838,1.4817,1.4817,1.4817,1.4817,1.4832,0.0,0.0,0.0,0.0,0.0,0.0,0.0,0.0,0.0,0.0,0.0,0.0,0.0,0.0,0.0,0.0,0.0,0.0,0.0,0.0,0.0,0.087,0.0884,0.0897,0.0896,0.0898,0.0927,0.1001,0.1,0.1094,0.1286,0.1289,0.139,0.1577,0.1576,0.1696,0.1867,0.1884,0.2084,0.2368,0.2385,0.0,0.2995,0.3128,0.0,0.0,0.0,0.0,0.0,0.0,0.0,0.0,0.0,0.6363,0.6897,0.6897,0.7417,0.8003,0.8003,0.8393,0.8835,0.8974,0.9161,0.9402,0.9734,0.991,1.0063,1.0269,1.0466,1.0609,0.0,0.0,1.1063,1.1861,1.217,1.258,1.3386,1.3663,1.3863,0.0,0.0,0.0,0.0,0.0,0.0,1.7204,0.0,1.8382,1.8402,1.8763,1.8982,1.9002,1.8827,1.8714,1.8695,1.7899,1.7312,1.6936,1.6917,1.6908,1.6908,1.7107,1.7184,1.7165,1.6917,1.6559,1.6132,1.5567,1.5071,1.4671,1.4536,1.4485,1.4461,1.4461,1.4461,1.4491,0.0,0.0,0.0,0.0,0.0,0.0,0.0,0.0,0.0,0.0,0.0,0.0,0.0,0.0,0.0,0.0,0.0,0.0,0.0,0.0,0.0,0.0,0.0,0.0,0.0,0.0,0.0,0.0,0.0,0.103,0.1077,0.107,0.1102,0.0,0.1303,0.14,0.148,0.1766,0.1928,0.1972,0.0,0.2445,0.2635,0.0,0.0,0.0,0.0,0.0,0.0,0.0,0.0,0.0,0.0,0.6278,0.6897,0.6897,0.7417,0.8003,0.8003,0.8474,0.8952,0.8985,0.9231,0.9542,0.9878,0.9967,1.0095,1.045,1.0561,1.0609,0.0,0.0,0.0,1.1861,1.217,0.0,1.3386,1.3535,0.0,1.3844,0.0,1.5173,1.5516,1.6456,0.0,0.0,1.7827,1.8201,1.8382,1.8652,1.8851,1.9002,1.9091,1.8989,1.8695,1.7899,1.7449,1.7339,1.7046,1.6908,1.6908,1.6951,1.6968,1.6968,1.6902,1.6483,1.5824,1.5659,1.5129,1.4402,1.4357,1.4267,1.4139,1.4139,1.4139,1.413,0.0,0.0,0.0,0.0,0.0,0.0,0.0,0.0,0.0,0.0,0.0,0.0,0.0,0.0,0.0,0.0,0.0,0.0,0.0,0.0,0.0,0.0,0.0,0.0,0.0,0.0,0.0,0.0,0.0,0.0,0.0,0.0952,0.0997,0.0998,0.1123,0.1212,0.1313,0.0,0.0,0.0,0.0,0.0,0.0,0.0,0.0,0.0,0.0,0.0,0.0,0.0,0.0,0.5702,0.5702,0.6254,0.6897,0.6897,0.0,0.8003,0.8003,0.8484,0.9001,0.9001,0.9247,0.959,0.9919,0.9999,1.011,1.0514,1.0609,0.0,0.0,0.0,0.0,0.0,0.0,0.0,1.3259,1.3437,1.3623,0.0,1.4664,0.0,1.5588,1.6513,1.718,0.0,1.7688,1.7971,1.8213,1.8442,1.8652,1.8871,1.9053,1.902,1.8695,1.8091,1.7678,1.7513,1.7092,1.6856,1.6778,1.6778,1.6726,1.6639,0.0,1.6196,1.5488,1.5488,1.4955,1.4169,1.4169,1.4094,1.3995,1.3995,1.3995,1.3995,0.0,0.0,0.0,0.0,0.0,0.0,0.0,0.0,0.0,0.0,0.0,0.0,0.0,0.0,0.0,0.0,0.0,0.0,0.0,0.0,0.0,0.0,0.0,0.0,0.0,0.0,0.0,0.0,0.0,0.0,0.0,0.0,0.0,0.0,0.0,0.0,0.0,0.0,0.0,0.0,0.0,0.0,0.0,0.0,0.0,0.0,0.0,0.0,0.0,0.0,0.4826,0.5642,0.5648,0.6221,0.6878,0.6893,0.7417,0.8003,0.8003,0.8484,0.9001,0.9001,0.9247,0.958,0.991,0.9989,1.011,1.0482,0.0,1.0609,1.0609,1.0609,1.0838,1.1536,0.0,1.2265,1.3031,1.3353,1.369,1.419,1.4767,1.5307,1.5812,1.6572,1.7139,1.7371,1.7566,1.776,1.7991,1.8253,1.8482,1.87,1.8871,1.8879,1.8701,1.8254,1.7852,1.7478,1.7031,1.6726,1.656,1.656,1.6473,1.6289,1.6289,0.0,1.5205,1.5205,1.4728,1.398,1.3941,1.392,1.3905,1.3875,1.3875,1.386,0.0,0.0,0.0,0.0,0.0,0.0,0.0,0.0,0.0,0.0,-0.0011,0.0,0.0,0.0,0.0,0.0,0.0,0.0,0.0,0.0,0.0,0.0,0.0,0.0,0.0,0.0,0.0,0.0,0.0,0.0,0.0,0.0,0.0,0.0,0.0,0.0,0.0,0.0,0.0,0.0,0.0,0.0,0.0,0.0,0.0,0.0,0.0,0.0,0.0,0.0,0.4599,0.5306,0.5415,0.6039,0.6751,0.6865,0.7417,0.8003,0.8003,0.8484,0.9001,0.9001,0.9247,0.9564,0.9788,0.9926,0.0,0.0,0.0,1.0609,1.0609,1.0609,0.0,1.1296,0.0,0.0,0.0,0.0,1.3634,0.0,0.0,0.0,0.0,0.0,0.0,0.0,0.0,1.7615,1.7979,1.8253,1.8482,1.87,1.874,1.8745,1.8694,1.798,1.7561,1.748,1.6759,1.6394,1.6342,1.6342,1.6324,1.6289,1.6289,0.0,1.5205,1.5205,1.4656,1.3815,1.3647,1.3528,1.3393,1.3224,1.3164,1.3164,0.0,0.0,0.0,0.0,0.0,0.0,0.0,-0.0146,-0.0067,-0.0011,0.0,0.0,0.0,0.0,0.0,0.0,0.0,0.0,0.0,0.0,0.0,0.0,0.0,0.0,0.0,0.0,0.0,0.0,0.0,0.0,0.0,0.0,0.0,0.0,0.0,0.0,0.0,0.0,0.0,0.0,0.0,0.0,0.0,0.0,0.0,0.0,0.0,0.0,0.0,0.0,0.4469,0.5078,0.525,0.5944,0.6717,0.6782,0.7364,0.8003,0.8003,0.8484,0.9001,0.9001,0.9247,0.9548,0.9756,0.0,0.0,0.0,0.0,1.0609,1.0609,0.0,0.0,0.0,0.0,0.0,0.0,0.0,0.0,0.0,0.0,0.0,0.0,0.0,0.0,0.0,0.0,1.7575,1.7979,1.8253,1.8442,1.8543,1.866,1.87,1.87,1.7901,1.7502,1.7494,1.6687,1.6254,1.6202,1.6202,1.6079,1.5885,1.5885,0.0,1.4625,1.4625,1.4149,1.3376,1.3277,1.3194,1.3135,1.3035,1.3004,1.3004,0.0,0.0,0.0,0.0,0.0,0.0,0.0,-0.0067,0.0,0.0,0.0,0.0,0.0,0.0,0.0,0.0,0.0,0.0,0.0,0.0,0.0,0.0,0.0,0.0,0.0,0.0,0.0,0.0,0.0,0.0,0.0,0.0,0.0,0.0,0.0,0.0,0.0,0.0,0.0,0.0,0.0,0.0,0.0,0.0,0.0,0.0,0.0,0.0,0.0,0.0,0.4405,0.4923,0.5086,0.5789,0.6588,0.6672,0.7283,0.7942,0.7988,0.8468,0.8974,0.9001,0.9231,0.9516,0.9692,0.9846,0.0,0.0,1.0403,1.0545,1.0593,0.0,0.0,0.0,0.0,0.0,0.0,0.0,0.0,0.0,0.0,0.0,0.0,0.0,0.0,0.0,0.0,0.0,1.7979,1.8201,1.8313,1.8313,1.8471,1.8551,1.8551,1.7777,1.7371,1.7362,1.6526,1.6061,1.5973,1.5938,1.5727,1.5417,1.5368,0.0,0.0,1.4024,1.3596,1.3004,1.2974,1.2943,1.2912,1.2867,1.2828,1.2805,0.0,0.0,0.0,0.0,0.0,0.0,0.0,-0.0011,0.0,0.0,0.0,0.0,0.0,0.0,0.0,0.0,0.0,0.0,0.0,0.0,0.0,0.0,0.0,0.0,0.0,0.0,0.0,0.0,0.0,0.0,0.0,0.0,0.0,0.0,0.0,0.0,0.0,0.0,0.0,0.0,0.0,0.0,0.0,0.0,0.0,0.0,0.0,0.0,0.0,0.0,0.0,0.4901,0.4916,0.5488,0.6224,0.6593,0.0,0.0,0.7948,0.8393,0.8851,0.8974,0.9161,0.936,0.9494,0.0,0.0,0.9999,1.0196,1.038,1.0577,1.0609,0.0,0.0,0.0,0.0,0.0,0.0,0.0,0.0,0.0,0.0,0.0,0.0,0.0,0.0,0.0,0.0,1.7991,1.802,1.804,1.804,1.806,1.806,1.806,1.7334,1.6956,1.6948,1.6021,1.5576,1.555,1.5373,1.5258,1.5206,1.4909,0.0,0.0,1.376,1.3397,1.2989,1.2867,1.2744,1.2606,1.2428,1.229,1.2182,0.0,0.0,0.0,0.0,0.0,0.0,-0.0011,0.0,0.0,0.0,0.0,0.0,0.0,0.0,0.0,0.0,0.0,0.0,0.0,0.0,0.0,0.0,0.0,0.0,0.0,0.0,0.0,0.0,0.0,0.0,0.0,0.0,0.0,0.0,0.0,0.0,0.0,0.0,0.0,0.0,0.0,0.0,0.0,0.0,0.0,0.0,0.0,0.0,0.0,0.0,0.0,0.0,0.4897,0.5319,0.0,0.0,0.681,0.7375,0.7527,0.7881,0.8234,0.8413,0.8642,0.8872,0.9093,0.0,0.0,0.9831,1.0095,1.0317,1.0403,1.0514,1.0609,0.0,0.0,0.0,0.0,0.0,0.0,0.0,0.0,0.0,0.0,0.0,0.0,0.0,0.0,0.0,1.7635,1.7878,1.8,1.8,1.8,1.8,1.8,1.7151,1.672,1.6712,1.5777,1.5311,1.5311,1.524,1.5133,1.5,1.4659,0.0,0.0,1.3267,1.2854,1.2444,1.2406,1.2344,1.2297,1.2212,1.2158,1.2096,0.0,0.0,0.0,0.0,0.0,0.0,0.0,0.0,0.0,0.0,0.0,0.0,0.0,0.0,0.0,0.0,0.0,0.0,0.0,0.0,0.0,0.0,0.0,0.0,0.0,0.0,0.0,0.0,0.0,0.0,0.0,0.0,0.0,0.0,0.0,0.0,0.0,0.0,0.0,0.0,0.0,0.0,0.0,0.0,0.0,0.0,0.0,0.0,0.0,0.0,0.0,0.0,0.0,0.0,0.0,0.0,0.6508,0.6988,0.7181,0.7483,0.7786,0.7964,0.823,0.8504,0.0,0.0,0.9386,0.9631,0.9958,1.0222,1.0285,1.0466,1.0609,0.0,0.0,0.0,0.0,0.0,0.0,0.0,0.0,0.0,0.0,0.0,0.0,0.0,0.0,0.0,1.7392,1.7676,1.7818,1.7818,1.7818,1.7818,1.7818,1.6957,1.6512,1.6503,1.5559,1.5098,1.5098,1.5008,1.4892,1.4715,1.4224,0.0,0.0,1.2794,1.2405,1.2096,1.2096,1.2058,1.2011,1.2011,1.1996,1.1949,0.0,0.0,0.0,0.0,0.0,0.0,0.0,0.0,0.0,0.0,0.0,0.0,0.0,0.0,0.0,0.0,0.0,0.0,0.0,0.0,0.0,0.0,0.0,0.0,0.0,0.0,0.0,0.0,0.0,0.0,0.0,0.0,0.0,0.0,0.0,0.0,0.0,0.0,0.0,0.0,0.0,0.0,0.0,0.0,0.0,0.0,0.0,0.0,0.0,0.0,0.0,0.0,0.0,0.0,0.0,0.0,0.6334,0.6673,0.7012,0.7345,0.7628,0.7771,0.8058,0.8345,0.0,0.0,0.9156,0.9361,0.9725,1.0063,1.0253,1.0466,1.0609,1.0609,0.0,0.0,0.0,0.0,0.0,0.0,0.0,0.0,0.0,0.0,0.0,0.0,0.0,0.0,1.7392,1.7392,1.742,1.742,1.742,1.742,1.742,1.6682,1.63,1.6291,1.5357,1.4908,1.4882,1.4559,1.4415,0.0,0.0,0.0,0.0,1.2379,1.2096,1.2096,1.2096,1.198,1.1802,1.1802,1.1716,1.1607,0.0,0.0,0.0,0.0,0.0,0.0,0.0,0.0,0.0,0.0,0.0,0.0,0.0,0.0,0.0,0.0,0.0,0.0,0.0,0.0,0.0,0.0,0.0,0.0,0.0,0.0,0.0,0.0,0.0,0.0,0.0,0.0,0.0,0.0,0.0,0.0,0.0,0.0,0.0,0.0,0.0,0.0,0.0,0.0,0.0,0.0,0.0,0.0,0.0,0.0,0.0,0.0,0.0,0.0,0.0,0.5635,0.5957,0.0,0.6435,0.673,0.7024,0.7149,0.7405,0.77,0.8014,0.0,0.8786,0.912,0.9553,0.991,1.0063,1.0253,1.0494,1.0822,1.1176,0.0,0.0,0.0,0.0,0.0,0.0,0.0,0.0,0.0,0.0,0.0,0.0,0.0,1.6922,1.6922,1.7066,1.7392,1.7392,1.7392,1.7392,1.6537,1.6035,1.5885,1.4975,1.4479,1.4353,1.4245,1.4183,0.0,0.0,0.0,0.0,1.2174,1.184,1.1763,1.1763,1.1716,1.1654,1.1506,1.1428,1.1381,0.0,0.0,0.0,0.0,0.0,0.0,0.0,0.0,0.0,0.0,0.0,0.0,0.0,0.0,0.0,0.0,0.0,0.0,0.0,0.0,0.0,0.0,0.0,0.0,0.0,0.0,0.0,0.0,0.0,0.0,0.0,0.0,0.0,0.0,0.0,0.0,0.0,0.0,0.0,0.0,0.0,0.0,0.2535,0.0,0.0,0.0,0.0,0.0,0.0,0.0,0.0,0.0,0.0,0.0,0.0,0.0,0.5691,0.595,0.0,0.6359,0.6625,0.6779,0.7023,0.0,0.0,0.0,0.8581,0.889,0.9407,0.9836,0.9967,1.0165,1.0447,1.0909,1.1236,0.0,0.0,0.0,0.0,0.0,0.0,0.0,0.0,0.0,0.0,0.0,0.0,0.0,1.6471,1.6471,1.6615,1.6902,1.7066,1.7106,1.7017,1.6196,1.567,1.5462,1.4662,1.4227,1.4093,1.4029,1.4,0.0,0.0,0.0,0.0,1.1903,1.1553,1.1482,1.1435,1.1404,1.1404,1.1279,1.1216,1.1209,0.0,0.0,0.0,0.0,0.0,0.0,0.0,0.0,0.0,0.0,0.0,0.0,0.0,0.0,0.0,0.0011,0.0,0.0,0.0,0.0,0.0,0.0,0.0,0.0,0.0,0.0,0.0,0.0715,0.0842,0.0898,0.0898,0.0,0.0,0.0,0.0,0.0,0.0,0.0,0.0,0.0,0.0,0.2338,0.0,0.0,0.0,0.0,0.0,0.0,0.0,0.0,0.0,0.0,0.0,0.0,0.0,0.0,0.0,0.0,0.0,0.6191,0.6449,0.6652,0.6891,0.7158,0.0,0.0,0.0,0.0,0.9278,0.982,0.9967,1.0161,1.0473,1.0942,0.0,0.0,0.0,0.0,0.0,0.0,0.0,0.0,0.0,0.0,0.0,0.0,0.0,0.0,1.6108,1.6108,1.6108,1.6108,1.6451,1.6566,1.6373,1.5712,1.5273,1.5064,1.4404,1.4075,1.4039,1.3855,1.3772,0.0,0.0,0.0,0.0,1.1616,1.1294,1.1272,1.1153,1.109,1.109,1.1075,1.1075,1.1075,0.0,0.0,0.0,0.0,0.0,0.0,0.0,0.0,0.0,0.0,0.0,0.0,0.0,0.0,0.0046,0.0,0.0,0.0,0.0,0.0,0.0,0.0,0.0,0.0,0.0,0.0,0.0,0.0856,0.0884,0.0898,0.0898,0.101,0.0,0.0,0.0,0.0,0.0,0.0,0.0,0.0,0.2352,0.2521,0.0,0.0,0.0,0.0,0.3485,0.3777,0.0,0.0,0.0,0.0,0.0,0.0,0.0,0.0,0.5389,0.5681,0.5804,0.0,0.6449,0.6652,0.6828,0.7071,0.0,0.0,0.0,0.0,0.0,0.966,0.9951,1.0241,1.0642,0.0,0.0,0.0,0.0,0.0,0.0,0.0,0.0,0.0,0.0,0.0,0.0,0.0,0.0,1.6108,1.6108,1.6108,1.6108,1.6108,1.619,1.6211,1.6162,1.5515,1.5072,1.4863,1.4189,1.3783,1.3637,1.3583,1.3492,0.0,0.0,0.0,1.2069,1.1423,1.1153,1.1138,1.1106,1.109,1.1075,1.0933,1.087,1.0854,0.0,0.0,0.0,0.0,0.0,0.0,0.0,0.0,0.0,0.0,0.0,0.0,0.0,0.0,0.0,0.0,0.0,0.0,0.0,0.0,0.0,0.0,0.0,0.0,0.0,0.0,0.0,0.0,0.0,0.0996,0.0,0.0,0.0,0.0,0.0,0.0,0.0,0.0,0.0,0.0,0.2424,0.0,0.0,0.0,0.0,0.0,0.3513,0.3777,0.0,0.3996,0.4228,0.4519,0.0,0.0,0.0,0.0,0.533,0.5622,0.5768,0.6005,0.63,0.662,0.6761,0.6959,0.756,0.0,0.0,0.0,0.0,0.0,0.9935,0.0,0.0,0.0,0.0,0.0,0.0,0.0,0.0,0.0,0.0,0.0,0.0,0.0,0.0,0.0,0.0,1.5784,1.5784,1.5784,1.5784,1.5784,1.5784,1.5818,1.5914,1.5289,1.4859,1.4657,1.3974,1.3554,1.3364,1.3364,1.3255,0.0,0.0,0.0,1.1951,1.1254,1.0965,1.0965,1.0886,1.087,1.0861,1.0744,1.0713,1.0697,0.0,0.0,0.0,0.0,0.0,0.0,0.0,0.0,0.0,0.0,0.0,0.0,0.0,0.0,0.0,0.0,0.0,0.0,0.0,0.0,0.0,0.0,0.0,0.0,0.0,0.0,0.0,0.0,0.0,0.0,0.0,0.0,0.1445,0.0,0.0,0.0,0.0,0.0,0.0,0.0,0.2451,0.0,0.0,0.0,0.0,0.0,0.0,0.0,0.0,0.4024,0.4242,0.4519,0.4632,0.0,0.0,0.0,0.0,0.0,0.575,0.5886,0.6082,0.6585,0.6732,0.691,0.0,0.0,0.0,0.0,0.0,0.0,0.0,0.0,0.0,0.0,0.0,0.0,0.0,0.0,0.0,0.0,0.0,0.0,0.0,0.0,0.0,0.0,0.0,1.541,1.541,1.541,1.5389,1.5368,1.5347,1.5401,1.5493,1.4981,1.4626,1.4445,1.375,1.3328,1.3145,1.3145,1.3018,1.2758,0.0,0.0,1.1796,1.1065,1.0776,1.076,1.064,1.0609,1.0609,1.0609,1.0609,1.0609,0.0,0.0,0.0,0.0,0.0,0.0,0.0,0.0,0.0,0.0,0.0,0.0,0.0,0.0,0.0,0.0,0.0,0.0,0.0,0.0,0.0,0.0,0.0,0.0,0.0,0.0,0.0,0.0,0.0,0.0,0.1276,0.1459,0.1628,0.1769,0.0,0.0,0.0,0.0,0.0,0.2465,0.2607,0.0,0.0,0.0,0.0,0.0,0.0,0.0,0.0,0.4138,0.4315,0.4505,0.4519,0.0,0.0,0.0,0.0,0.0,0.5713,0.5822,0.5968,0.6558,0.6822,0.7096,0.0,0.0,0.0,0.0,0.0,0.0,0.0,0.0,0.0,0.0,0.0,0.0,0.0,0.0,0.0,0.0,0.0,0.0,0.0,0.0,0.0,0.0,0.0,1.541,1.541,1.541,1.5326,1.5152,1.5152,1.494,1.4519,1.4363,1.4282,1.4242,1.3388,1.2973,1.2955,1.2955,1.2705,1.2298,0.0,1.1526,1.1135,1.0775,1.0634,1.0624,1.0609,1.0609,1.0609,1.0609,1.0609,1.0609,0.0,0.0,0.0,0.0,0.0,0.0,0.0,0.0,0.0,0.0,0.0,0.0,0.0,0.0,0.0,0.0,0.0,0.0,0.0,0.0,0.0,0.0,0.1122,0.108,0.101,0.0,0.0,0.0,0.0,0.1403,0.1459,0.1628,0.1741,0.1797,0.0,0.1947,0.2015,0.2254,0.241,0.2521,0.0,0.0,0.0,0.0,0.0,0.0,0.0,0.0,0.0,0.0,0.4328,0.4519,0.4587,0.0,0.0,0.0,0.0,0.0,0.574,0.5859,0.606,0.6693,0.6929,0.0,0.0,0.0,0.0,0.0,0.0,0.0,0.0,0.0,0.0,0.0,0.0,0.0,0.0,0.0,0.0,0.0,0.0,0.0,0.0,0.0,0.0,0.0,0.0,0.0,1.502,1.502,1.4978,1.4887,1.4887,1.4697,1.4306,1.3978,1.3798,1.3764,1.3173,1.2845,1.2746,1.2746,1.2471,1.2017,0.0,1.133,1.0985,1.0713,1.0609,1.0609,1.0609,1.0609,1.0609,1.0609,1.0609,1.0609,0.0,0.0,0.0,0.0,0.0,0.0,0.0,0.0,0.0,0.0,0.0,0.0,0.0,0.0,0.0,0.0,0.0,0.0,0.0,0.0,0.1305,0.1305,0.1347,0.1305,0.115,0.0,0.1319,0.1375,0.1529,0.1614,0.1643,0.1755,0.1811,0.1852,0.0,0.2043,0.2127,0.2394,0.2535,0.2607,0.0,0.0,0.0,0.0,0.0,0.0,0.0,0.0,0.0,0.0,0.0,0.0,0.0,0.0,0.0,0.5056,0.533,0.5622,0.5768,0.5936,0.6221,0.6837,0.0,0.0,0.0,0.0,0.0,0.0,0.0,0.0,0.0,0.0,0.0,0.0,0.0,0.0,0.0,0.0,0.0,0.0,0.0,0.0,0.0,0.0,0.0,0.0,0.0,0.0,1.4692,1.4692,1.4671,1.4629,1.4559,1.4379,1.404,1.357,1.3341,1.3336,1.2936,1.2673,1.2526,1.2526,1.2256,1.1768,1.1506,1.1206,1.0891,1.068,1.0609,1.0609,1.0609,1.0609,1.0609,1.0609,1.0609,1.0609,0.0,0.0,0.0,0.0,0.0,0.0,0.0,0.0,0.0,0.0,0.0,0.0,0.0,0.0,0.0,0.0,0.0,0.0,0.0,0.0,0.1305,0.1305,0.1473,0.1487,0.129,0.1291,0.1389,0.1572,0.16,0.1671,0.1783,0.1797,0.1866,0.1987,0.2001,0.2169,0.2465,0.2493,0.2649,0.2874,0.2888,0.0,0.0,0.0,0.0,0.0,0.0,0.0,0.0,0.0,0.0,0.0,0.0,0.0,0.4928,0.5056,0.533,0.5622,0.5768,0.6039,0.6392,0.6877,0.0,0.0,0.0,0.0,0.0,0.0,0.0,0.0,0.0,0.0,0.0,0.0,0.0,0.0,0.0,0.0,0.0,0.0,0.0,0.0,0.0,0.0,0.0,0.0,0.0,0.0,1.4692,1.4692,1.4608,1.444,1.4173,1.3804,1.328,1.2991,1.2944,1.3127,1.2594,1.2342,1.2316,1.2316,1.1991,1.1439,1.1402,1.1109,1.0635,1.0615,1.0609,1.0609,1.0609,1.0609,1.0609,1.0609,1.0609,1.0609,0.0,0.0,0.0,0.0,0.0,0.0,0.0,0.0,0.0,0.0,0.0,0.0,0.0,0.0,0.0,0.0,0.0,0.0,0.0,0.0,0.1614,0.1614,0.1685,0.1726,0.1737,0.1656,0.1643,0.1727,0.1727,0.1796,0.1919,0.1919,0.0,0.0,0.2254,0.238,0.2507,0.2677,0.2805,0.2916,0.3123,0.3288,0.0,0.0,0.0,0.0,0.0,0.0,0.0,0.0,0.456,0.4646,0.478,0.4918,0.5056,0.5183,0.5462,0.5736,0.5781,0.6197,0.6721,0.7148,0.0,0.0,0.0,0.0,0.0,0.0,0.0,0.0,0.0,0.0,0.0,0.0,0.0,0.0,0.0,0.0,0.0,0.0,0.0,0.0,0.0,0.0,0.0,0.0,0.0,0.0,1.4334,1.4334,1.4286,1.4222,1.3912,1.3581,1.3193,1.2925,1.2728,1.2602,1.2395,1.2305,1.2305,1.2305,1.1959,1.1406,1.1406,1.1096,1.0609,1.0609,1.0609,1.0609,1.0609,1.0609,1.0609,1.0609,1.0609,1.0609,0.0,0.0,0.0,0.0,0.0,0.0,0.0,0.0,0.0,0.0,0.0,0.0,0.0,0.0,0.0,0.0,0.0,0.0,0.0,0.0,0.1922,0.1922,0.1922,0.1962,0.2057,0.1976,0.1922,0.1922,0.1922,0.1976,0.2057,0.0,0.0,0.0,0.2437,0.2549,0.2635,0.2819,0.2958,0.3081,0.3304,0.3427,0.0,0.0,0.0,0.0,0.0,0.0,0.0,0.0,0.4619,0.4729,0.4901,0.5028,0.5142,0.5334,0.559,0.5809,0.5845,0.6365,0.6982,0.0,0.0,0.0,0.0,0.0,0.0,0.0,0.0,0.0,0.0,0.0,0.0,0.0,0.0,0.0,0.0,0.0,0.0,0.0,0.0,0.0,0.0,0.0,0.0,0.0,0.0,0.0,0.0,1.4109,1.4041,1.3948,1.364,1.334,1.3086,1.2797,1.2524,1.2305,1.2305,1.2305,1.2298,1.2204,1.1897,1.1406,1.1312,1.1025,1.0609,1.0609,1.0609,1.0609,1.0609,1.0609,1.0609,1.0609,1.0609,1.0609,0.0,0.0,0.0,0.0,0.0,0.0,0.0,0.0,0.0,0.0,0.0,0.0,0.0,0.0,0.0,0.0,0.0,0.0,0.0,0.2155,0.2198,0.2198,0.2198,0.2198,0.2198,0.2198,0.2198,0.2198,0.2198,0.2198,0.2198,0.2198,0.0,0.0,0.2507,0.2649,0.2902,0.2902,0.3095,0.3399,0.3399,0.3485,0.361,0.0,0.0,0.0,0.0,0.0,0.0,0.0,0.4705,0.4743,0.5018,0.5097,0.5169,0.5499,0.5695,0.5836,0.5964,0.6544,0.0,0.0,0.0,0.0,0.0,0.0,0.0,0.0,0.0,0.0,0.0,0.0,0.0,0.0,0.0,0.0,0.0,0.0,0.0,0.0,0.0,0.0,0.0,0.0,0.0,0.0,0.0,0.0,0.0,1.4103,1.3948,1.3613,1.334,1.3079,1.281,1.247,1.2305,1.2305,1.2305,1.2305,1.2291,1.2022,1.1728,1.1392,1.1122,1.0845,1.0609,1.0609,1.0609,1.0609,1.0609,1.0609,1.0609,1.0609,1.0609,1.0609,0.0,0.0,0.0,0.0,0.0,0.0,0.0,0.0,0.0,0.0,0.0,0.0,0.0,0.0,0.0,0.0,0.0,0.0,0.0,0.2142,0.2198,0.2198,0.2198,0.2268,0.241,0.0,0.2437,0.2198,0.2198,0.2268,0.0,0.0,0.0,0.2649,0.0,0.0,0.2916,0.3151,0.3304,0.3413,0.3605,0.3702,0.3758,0.0,0.0,0.0,0.0,0.0,0.0,0.0,0.0,0.0,0.5073,0.5266,0.5471,0.5567,0.5759,0.6009,0.6332,0.6856,0.0,0.0,0.0,0.0,0.0,0.0,0.0,0.0,0.0,0.0,0.0,0.0,0.0,0.0,0.0,0.0,0.0,0.0,0.0,0.0,0.0,0.0,0.0,0.0,0.0,0.0,0.0,0.0,0.0,1.3888,1.3693,1.3606,1.3166,1.2878,1.2803,1.247,1.2305,1.2305,1.2305,1.2305,1.2291,1.2022,1.1728,1.1392,1.1122,1.0845,1.0609,1.0609,1.0609,1.0609,1.0609,1.0609,1.0609,1.0609,1.0609,1.0609,0.0,0.0,0.0,0.0,0.0,0.0,0.0,0.0,0.0,0.0,0.1333,0.1456,0.0,0.0,0.0,0.0,0.0,0.0,0.2155,0.2329,0.243,0.2406,0.2451,0.2507,0.2577,0.2663,0.2605,0.0,0.0,0.0,0.0,0.0,0.0,0.2789,0.0,0.3026,0.3109,0.3318,0.3469,0.3577,0.3727,0.3838,0.3896,0.0,0.0,0.0,0.0,0.0,0.0,0.0,0.0,0.0,0.5266,0.0,0.5618,0.5732,0.5909,0.6174,0.6577,0.0,0.0,0.0,0.0,0.0,0.0,0.0,0.0,0.0,0.0,0.0,0.0,0.0,0.0,0.0,0.0,0.0,0.0,0.0,0.0,0.0,0.0,0.0,0.0,0.0,0.0,0.0,0.0,0.0,0.0,1.372,1.3493,1.3293,1.2978,1.2749,1.261,1.2392,1.2305,1.2305,1.2184,1.2149,1.2124,1.1848,1.153,1.1236,1.0965,1.0754,1.0609,1.0609,1.0609,1.0609,1.0609,1.0609,1.0609,1.0609,1.0609,1.0609,0.0,0.0,0.0292,0.0483,0.0,0.0,0.0,0.0,0.0,0.0,0.1535,0.167,0.0,0.0,0.0,0.2018,0.2096,0.2229,0.2426,0.2674,0.2799,0.2742,0.2858,0.2858,0.2733,0.2733,0.0,0.0,0.0,0.0,0.0,0.0,0.2916,0.293,0.0,0.323,0.3399,0.3427,0.3577,0.3796,0.3824,0.391,0.4038,0.4193,0.0,0.0,0.0,0.0,0.0,0.0,0.0,0.0,0.5499,0.5622,0.5691,0.5932,0.6105,0.6307,0.0,0.0,0.0,0.0,0.0,0.0,0.0,0.0,0.0,0.0,0.0,0.0,0.0,0.0,0.0,0.0,0.0,0.0,0.0,0.0,0.0,0.0,0.0,0.0,0.0,0.0,0.0,0.0,0.0,0.0,0.0,1.3553,1.3307,1.2823,1.2776,1.2616,1.2305,1.2305,1.2285,1.2258,1.2015,1.1873,1.1819,1.151,1.1229,1.0958,1.0707,1.0609,1.0609,1.0609,1.0609,1.0609,1.0609,1.0609,1.0609,1.0609,1.0609,1.0609,0.0,0.0,0.0483,0.0629,0.0,0.0,0.0,0.0,0.0,0.0,0.0,0.0,0.0,0.0,0.0,0.2226,0.2393,0.2554,0.2703,0.2871,0.2974,0.3016,0.3049,0.3049,0.3021,0.3021,0.3021,0.0,0.0,0.0,0.0,0.0,0.0,0.3063,0.0,0.3357,0.3413,0.3633,0.3741,0.3824,0.4024,0.4138,0.4193,0.4484,0.4594,0.0,0.0,0.0,0.0,0.0,0.0,0.0,0.5577,0.5741,0.5918,0.5987,0.6164,0.6496,0.0,0.0,0.0,0.0,0.0,0.0,0.0,0.0,0.0,0.0,0.0,0.0,0.0,0.0,0.0,0.0,0.0,0.0,0.0,0.0,0.0,0.0,0.0,0.0,0.0,0.0,0.0,0.0,0.0,0.0,1.3606,1.3193,1.2918,1.281,1.2537,1.2365,1.2305,1.2305,1.2184,1.1982,1.1933,1.1647,1.1192,1.1116,1.0945,1.068,1.0635,1.0609,1.0609,1.0609,1.0609,1.0609,1.0609,1.0609,1.0609,1.0609,1.0609,1.0609,0.0,0.0,0.0,0.0,0.0,0.0,0.0,0.0,0.0,0.0,0.0,0.0,0.0,0.2261,0.0,0.0,0.2488,0.2619,0.2788,0.2924,0.3076,0.3239,0.3146,0.3102,0.3102,0.3102,0.3102,0.0,0.0,0.0,0.0,0.0,0.0,0.3258,0.0,0.3591,0.3605,0.3813,0.3938,0.401,0.4152,0.429,0.4456,0.4632,0.4743,0.0,0.0,0.0,0.0,0.0,0.0,0.0,0.0,0.0,0.6028,0.615,0.6354,0.668,0.0,0.0,0.0,0.0,0.0,0.0,0.0,0.0,0.0,0.0,0.0,0.0,0.0,0.0,0.0,0.0,0.0,0.0,0.0,0.0,0.0,0.0,0.0,0.0,0.0,0.0,0.0,0.0,0.0,1.3347,1.322,1.2951,1.2736,1.2576,1.2385,1.2305,1.2305,1.2164,1.2035,1.1899,1.1601,1.1233,1.0804,1.0804,1.0734,1.0609,1.0609,1.0609,1.0609,1.0609,1.0609,1.0609,1.0609,1.0609,1.0609,1.0609,1.0609,1.0609,0.0,0.0,0.0,0.0,0.0,0.0,0.0,0.0,0.0,0.0,0.0,0.0,0.0,0.246,0.254,0.0,0.0,0.0,0.2859,0.3016,0.3198,0.3419,0.3272,0.3188,0.3188,0.3188,0.3188,0.0,0.0,0.0,0.0,0.0,0.0,0.3483,0.0,0.381,0.3838,0.3979,0.4093,0.4207,0.4263,0.4456,0.4705,0.4743,0.0,0.0,0.0,0.5179,0.5234,0.5526,0.0,0.0,0.0,0.0,0.6123,0.6381,0.6585,0.6858,0.0,0.0,0.0,0.0,0.0,0.0,0.0,0.0,0.0,0.0,0.0,0.0,0.0,0.0,0.0,0.0,0.0,0.0,0.0,0.0,0.0,0.0,0.0,0.0,0.0,0.0,0.0,0.0,0.0,1.3039,1.2816,1.2756,1.2596,1.2311,1.2305,1.2278,1.2225,1.2009,1.1852,1.1745,1.1192,1.0804,1.0609,1.0609,1.0609,1.0609,1.0609,1.0609,1.0609,1.0609,1.0609,1.0609,1.0609,1.0609,1.0609,1.0609,1.0609,1.0586,0.0,0.0,0.0,0.0,0.0,0.0,0.0,0.0,0.0,0.0,0.2239,0.2337,0.246,0.2595,0.2673,0.2673,0.2776,0.2934,0.3127,0.0,0.0,0.3569,0.3541,0.3527,0.3527,0.3527,0.3527,0.0,0.0,0.0,0.0,0.0,0.0,0.3755,0.0,0.0,0.3979,0.4121,0.4179,0.4221,0.4512,0.4664,0.4729,0.0,0.0,0.0,0.0,0.0,0.0,0.5722,0.5845,0.0,0.0,0.0,0.6381,0.6593,0.6766,0.0,0.0,0.0,0.0,0.0,0.0,0.0,0.0,0.0,0.0,0.0,0.0,0.0,0.0,0.0,0.0,0.0,0.0,0.0,0.0,0.0,0.0,0.0,0.0,0.0,0.0,0.0,0.0,0.0,1.2999,1.285,1.281,1.2517,1.2345,1.2305,1.2305,1.2184,1.1966,1.1926,1.1634,1.1126,1.0791,1.0626,1.0609,1.0609,1.0609,1.0609,1.0609,1.0609,1.0609,1.0609,1.0609,1.0609,1.0609,1.0609,1.0609,1.0609,1.0609,1.0553,0.0,0.0,0.0,0.0,0.0,0.0,0.0,0.0,0.0,0.0,0.0,0.2551,0.2607,0.2762,0.2871,0.2871,0.3061,0.328,0.352,0.3712,0.3788,0.3716,0.3716,0.3677,0.3599,0.3599,0.0,0.0,0.0,0.0,0.0,0.383,0.3816,0.0,0.0,0.0,0.0,0.0,0.0,0.4498,0.4646,0.4784,0.0,0.0,0.0,0.0,0.0,0.0,0.0,0.0,0.6005,0.6128,0.6268,0.0,0.0,0.0,0.0,0.0,0.0,0.0,0.0,0.0,0.0,0.0,0.0,0.0,0.0,0.0,0.0,0.0,0.0,0.0,0.0,0.0,0.0,0.0,0.0,0.0,0.0,0.0,0.0,0.0,0.0,0.0,0.0,0.0,1.2691,1.2517,1.2517,1.2371,1.2305,1.2305,1.2144,1.2015,1.1906,1.156,1.1186,1.0764,1.0653,1.0609,1.0609,1.0609,1.0609,1.0609,1.0609,1.0609,1.0609,1.0609,1.0609,1.0609,1.0609,1.0609,1.0609,1.0609,1.0486,1.0294,0.0,0.0,0.0,0.0,0.0,0.0,0.0,0.0,0.0,0.0,0.0,0.2751,0.2773,0.0,0.0,0.0,0.3333,0.3572,0.3788,0.392,0.3952,0.3852,0.3852,0.3799,0.3708,0.0,0.0,0.0,0.0,0.0,0.3996,0.4038,0.3993,0.0,0.4107,0.0,0.0,0.0,0.0,0.0,0.0,0.0,0.0,0.0,0.0,0.0,0.0,0.0,0.0,0.0,0.0,0.0,0.0,0.0,0.0,0.0,0.0,0.0,0.0,0.0,0.0,0.0,0.0,0.0,0.0,0.0,0.0,0.0,0.0,0.0,0.0,0.0,0.0,0.0,0.0,0.0,0.0,0.0,0.0,0.0,0.0,0.0,0.0,0.0,0.0,0.0,1.2444,1.2305,1.2305,1.2231,1.2191,1.2191,1.1922,1.1741,1.1661,1.1159,1.0807,1.0609,1.0609,1.0609,1.0609,1.0609,1.0609,1.0609,1.0609,1.0609,1.0609,1.0609,1.0609,1.0609,1.0609,1.0609,1.0586,1.0506,1.0307,1.0078,0.0,0.0,0.0,0.0,0.0,0.0,0.0,0.0,0.0,0.0,0.0,0.2909,0.2979,0.3227,0.3375,0.3375,0.3562,0.371,0.3794,0.392,0.3993,0.3993,0.3993,0.0,0.0,0.0,0.0,0.0,0.0,0.0,0.401,0.4138,0.4179,0.4179,0.4193,0.4301,0.4491,0.0,0.0,0.0,0.0,0.0,0.0,0.0,0.0,0.0,0.0,0.0,0.0,0.0,0.0,0.0,0.0,0.0,0.0,0.0,0.0,0.0,0.0,0.0,0.0,0.0,0.0,0.0,0.0,0.0,0.0,0.0,0.0,0.0,0.0,0.0,0.0,0.0,0.0,0.0,0.0,0.0,0.0,0.0,0.0,0.0,0.0,0.0,0.0,0.0,1.2311,1.2305,1.2305,1.2062,1.1926,1.1926,1.1603,1.1299,1.1059,1.0751,1.0606,1.0609,1.0609,1.0609,1.0609,1.0609,1.0609,1.0609,1.0609,1.0609,1.0609,1.0609,1.0609,1.0609,1.0609,1.0609,1.0559,1.0241,1.0112,1.0018,0.0,0.0,0.0,0.0,0.0,0.0,0.0,0.0,0.0,0.0,0.0,0.0,0.0,0.3568,0.3657,0.3657,0.3878,0.4085,0.4236,0.4296,0.4259,0.4138,0.4124,0.0,0.0,0.0,0.0,0.0,0.0,0.419,0.4325,0.437,0.4398,0.4398,0.4398,0.448,0.4632,0.4674,0.0,0.0,0.0,0.0,0.0,0.0,0.0,0.0,0.0,0.0,0.0,0.0,0.0,0.0,0.0,0.0,0.0,0.0,0.0,0.0,0.0,0.0,0.0,0.0,0.0,0.0,0.0,0.0,0.0,0.0,0.0,0.0,0.0,0.0,0.0,0.0,0.0,0.0,0.0,0.0,0.0,0.0,0.0,0.0,0.0,0.0,0.0,0.0,0.0,1.2218,1.2056,1.1942,1.1801,1.159,1.1303,1.1009,1.0754,1.064,1.0609,1.0609,1.0609,1.0609,1.0609,1.0609,1.0609,1.0609,1.0609,1.0609,1.0609,1.0609,1.0609,1.0609,1.0609,1.0609,1.0553,1.0227,1.0,0.978,0.0,0.0,0.0,0.0,0.0,0.2532,0.0,0.0,0.0,0.0,0.0,0.0,0.0,0.0,0.3961,0.4033,0.4194,0.4362,0.4484,0.4505,0.4436,0.4301,0.4301,0.0,0.0,0.0,0.0,0.0,0.0,0.0,0.0,0.0,0.4519,0.456,0.456,0.4619,0.0,0.0,0.0,0.5115,0.0,0.0,0.5681,0.0,0.0,0.0,0.0,0.0,0.0,0.0,0.0,0.0,0.0,0.0,0.0,0.0,0.0,0.0,0.0,0.0,0.0,0.0,0.0,0.0,0.0,0.0,0.0,0.0,0.0,0.0,0.0,0.0,0.0,0.0,0.0,0.0,0.0,0.0,0.0,0.0,0.0,0.0,0.0,0.0,0.0,0.0,0.0,0.0,1.1754,1.1647,1.146,1.1142,1.0965,1.0787,1.0593,1.0609,1.0609,1.0609,1.0609,1.0609,1.0609,1.0609,1.0609,1.0609,1.0609,1.0609,1.0609,1.0609,1.0609,1.0609,1.0609,1.0526,1.039,1.008,0.9786,0.9492,0.0,0.2511,0.2599,0.2863,0.2956,0.3078,0.3268,0.0,0.0,0.0,0.0,0.0,0.0,0.0,0.0,0.4491,0.4519,0.4505,0.4505,0.4505,0.4505,0.4505,0.4505,0.0,0.0,0.0,0.0,0.0,0.0,0.0,0.0,0.0,0.4574,0.0,0.4705,0.4719,0.4729,0.0,0.5111,0.5138,0.0,0.5681,0.5822,0.0,0.0,0.0,0.6408,0.663,0.0,0.6906,0.0,0.0,0.0,0.0,0.0,0.0,0.0,0.0,0.0,0.0,0.0,0.0,0.0,0.0,1.0609,0.0,0.0,0.0,0.0,0.0,0.0,0.0,0.0,0.0,0.0,0.0,0.0,0.0,0.0,0.0,0.0,0.0,0.0,0.0,0.0,0.0,1.1893,1.1741,1.1412,1.1136,1.0871,1.0615,1.0609,1.0609,1.0609,1.0609,1.0609,1.0609,1.0609,1.0609,1.0609,1.0609,1.0609,1.0609,1.0609,1.0609,1.0609,1.0609,1.0609,1.0609,1.0609,1.0396,1.0065,0.9793,0.9492,0.9157,0.2816,0.2865,0.288,0.2956,0.3106,0.3256,0.3359,0.0,0.0,0.0,0.0,0.0,0.0,0.0,0.0,0.4787,0.4791,0.4749,0.4646,0.4646,0.4605,0.4505,0.4505,0.4505,0.0,0.0,0.0,0.0,0.0,0.0,0.0,0.0,0.0,0.0,0.4946,0.4991,0.4991,0.5073,0.0,0.0,0.5668,0.5832,0.0,0.0,0.0,0.0,0.0,0.6888,0.7063,0.0,0.7298,0.7467,0.0,0.0,0.0,0.0,0.0,0.0,0.9537,0.0,0.0,0.0,0.0,0.0,1.0609,1.0653,1.0774,0.0,0.0,0.0,0.0,0.0,0.0,0.0,0.0,0.0,0.0,0.0,0.0,0.0,0.0,0.0,0.0,0.0,0.0,0.0,1.155,1.1406,1.1129,1.0851,1.0673,1.0593,1.0609,1.0609,1.0609,1.0609,1.0609,1.0609,1.0609,1.0609,1.0609,1.0609,1.0609,1.0609,1.0609,1.0609,1.0609,1.0609,1.0609,1.0609,1.0609,1.0396,1.0065,0.9793,0.9492,0.9157,0.3133,0.3215,0.3262,0.3326,0.3472,0.3619,0.0,0.0,0.0,0.0,0.0,0.0,0.0,0.0,0.0,0.4897,0.4897,0.4873,0.4794,0.478,0.4753,0.4667,0.4667,0.4667,0.0,0.0,0.0,0.0,0.0,0.0,0.0,0.0,0.0,0.0,0.0,0.0,0.0,0.0,0.0,0.0,0.5804,0.0,0.0,0.6318,0.649,0.0,0.0,0.0,0.7198,0.7338,0.748,0.0,0.0,0.0,0.0,0.0,0.0,0.0,0.0,0.0,0.0,0.0,0.0,0.0,1.0609,1.0609,1.064,0.0,0.0,0.0,0.0,0.0,0.0,0.0,0.0,0.0,0.0,0.0,0.0,0.0,0.0,0.0,0.0,1.1683,1.1563,1.1269,1.1226,1.1122,1.0845,1.068,1.0609,1.0609,1.0609,1.0609,1.0609,1.0609,1.0609,1.0609,1.0609,1.0609,1.0609,1.0609,1.0609,1.0609,1.0609,1.0609,1.0609,1.0609,1.0609,1.0609,1.0609,1.0332,0.9913,0.9761,0.9419,0.9004,0.0,0.3555,0.368,0.3796,0.3952,0.4093,0.0,0.0,0.0,0.0,0.0,0.0,0.0,0.0,0.0,0.0,0.4942,0.4942,0.4928,0.4928,0.4914,0.4897,0.4897,0.4897,0.4897,0.0,0.0,0.0,0.0,0.0,0.0,0.0,0.0,0.0,0.5138,0.5321,0.0,0.0,0.0,0.5691,0.5918,0.6105,0.0,0.0,0.6644,0.6947,0.7071,0.7211,0.7365,0.7494,0.7635,0.0,0.0,0.0,0.0,0.0,0.9125,0.0,0.0,0.0,0.0,0.0,0.0,0.0,1.0609,1.0609,1.0609,1.0609,0.0,0.0,0.0,0.0,0.0,0.0,0.0,0.0,0.0,0.0,0.0,0.0,0.0,0.0,1.1366,1.1359,1.1239,1.0985,1.0965,1.0845,1.0606,1.0609,1.0609,1.0609,1.0609,1.0609,1.0609,1.0609,1.0609,1.0609,1.0609,1.0609,1.0609,1.0609,1.0609,1.0609,1.0609,1.0609,1.0609,1.0609,1.0609,1.0609,1.0609,1.0251,0.9741,0.9707,0.9332,0.8838,0.3688,0.3827,0.3927,0.3952,0.4201,0.4408,0.0,0.0,0.0,0.0,0.0,0.0,0.0,0.0,0.0,0.0,0.5228,0.5169,0.5069,0.5056,0.5014,0.4897,0.4897,0.4897,0.4897,0.4897,0.0,0.0,0.0,0.0,0.0,0.0,0.0,0.0,0.0,0.554,0.0,0.0,0.0,0.6091,0.6137,0.0,0.64,0.669,0.6915,0.7077,0.7211,0.7413,0.7649,0.7775,0.7949,0.8146,0.0,0.0,0.0,0.0,0.0,0.0,0.0,0.0,0.0,0.0,0.0,0.0,1.0609,1.0609,1.0609,0.0,0.0,0.0,0.0,0.0,0.0,0.0,0.0,0.0,0.0,0.0,0.0,0.0,0.0,0.0,1.1102,1.1076,1.0972,1.07,1.0673,1.0653,1.0593,1.0609,1.0609,1.0609,1.0609,1.0609,1.0609,1.0609,1.0609,1.0609,1.0609,1.0609,1.0609,1.0609,1.0609,1.0609,1.0609,1.0609,1.0609,1.0609,1.0609,1.0609,1.0609,1.0356,0.9992,0.9788,0.9459,0.9091,0.3882,0.409,0.4242,0.4242,0.0,0.0,0.0,0.0,0.0,0.0,0.0,0.0,0.0,0.0,0.0,0.0,0.0,0.0,0.0,0.0,0.5317,0.5244,0.5152,0.5097,0.5097,0.5097,0.5097,0.0,0.0,0.0,0.0,0.0,0.0,0.0,0.0,0.0,0.0,0.0,0.6168,0.6296,0.6296,0.0,0.6671,0.6839,0.7028,0.7217,0.7352,0.7574,0.7823,0.7995,0.8201,0.0,0.0,0.8897,0.9245,0.0,0.9945,1.0095,0.0,0.0,0.0,1.0609,0.0,0.0,0.0,1.0609,1.0609,1.0609,1.0609,0.0,0.0,0.0,0.0,0.0,0.0,0.0,0.0,0.0,0.0,0.0,0.0,0.0,1.0804,1.0791,1.0747,1.06,1.0609,1.0609,1.0609,1.0609,1.0609,1.0609,1.0609,1.0609,1.0609,1.0609,1.0609,1.0609,1.0609,1.0609,1.0609,1.0609,1.0609,1.0609,1.0665,1.0697,1.0713,1.0807,1.0846,1.083,1.0672,1.0396,1.0085,0.9953,0.9605,0.9177,0.4104,0.4339,0.4546,0.457,0.0,0.0,0.0,0.0,0.0,0.0,0.0,0.0,0.0,0.0,0.0,0.0,0.0,0.0,0.0,0.0,0.0,0.5636,0.5489,0.5393,0.5393,0.5393,0.5393,0.0,0.0,0.0,0.0,0.0,0.0,0.0,0.0,0.0,0.0,0.0,0.0,0.6495,0.0,0.6657,0.6906,0.696,0.7122,0.7365,0.7521,0.7735,0.7988,0.8203,0.846,0.8715,0.8943,0.9285,0.0,0.0,0.0,0.0,0.0,0.0,0.0,0.0,0.0,1.0609,0.0,0.0,0.0,1.0609,0.0,0.0,0.0,0.0,0.0,0.0,0.0,0.0,0.0,0.0,0.0,0.0,0.0,0.0,1.0609,1.0609,1.0609,1.0609,1.0609,1.0609,1.0609,1.0609,1.0609,1.0609,1.0609,1.0609,1.0609,1.0609,1.0609,1.064,1.064,1.0649,1.0703,1.0703,1.0703,1.0703,1.0807,1.0854,1.087,1.1028,1.109,1.1075,1.0798,1.0532,1.0285,1.021,0.9887,0.9455,0.4463,0.4577,0.4715,0.4832,0.0,0.0,0.0,0.0,0.0,0.0,0.0,0.0,0.0,0.0,0.0,0.0,0.0,0.0,0.5795,0.0,0.0,0.0,0.5754,0.574,0.574,0.574,0.574,0.574,0.0,0.0,0.0,0.0,0.0,0.0,0.5909,0.0,0.0,0.0,0.6563,0.0,0.6839,0.6866,0.0,0.7163,0.7352,0.7507,0.7768,0.7995,0.8205,0.0,0.8727,0.9044,0.0,0.9896,1.0097,0.0,0.0,0.0,0.0,0.0,0.0,0.0,1.0609,0.0,0.0,0.0,1.0609,1.0609,0.0,0.0,0.0,0.0,0.0,0.0,0.0,0.0,0.0,0.0,0.0,0.0,0.0,0.0,0.0,1.0609,1.0609,1.0609,1.0609,1.0609,1.0609,1.0609,1.0609,1.0609,1.0609,1.0609,1.0609,1.0609,1.0649,1.0776,1.0776,1.087,1.1043,1.1043,1.1043,1.1043,1.1059,1.1075,1.1075,1.109,1.109,1.109,1.1066,1.1022,1.0944,1.0656,1.051,1.0412,0.4749,0.4836,0.4977,0.5111,0.0,0.0,0.0,0.0,0.0,0.0,0.0,0.0,0.0,0.0,0.0,0.0,0.0,0.6506,0.0,0.0,0.0,0.0,0.0,0.0,0.5795,0.5795,0.5795,0.5795,0.5795,0.0,0.0,0.0,0.0,0.0,0.6168,0.0,0.6495,0.0,0.682,0.0,0.0,0.0,0.0,0.729,0.7427,0.768,0.8137,0.8356,0.8496,0.0,0.9295,0.0,0.0,0.0,0.0,0.0,0.0,0.0,0.0,0.0,0.0,0.0,0.0,0.0,1.0713,0.0,1.0886,0.0,0.0,0.0,0.0,0.0,0.0,0.0,1.0886,0.0,0.0,0.0,0.0,0.0,0.0,0.0,0.0,0.0,0.0,0.0,1.0609,1.0609,1.0609,1.0665,1.0713,1.0713,1.0823,1.0886,1.0886,1.0886,1.0917,1.0965,1.0965,1.1012,1.109,1.109,1.109,1.109,1.1185,1.1216,1.1232,1.1341,1.1388,1.1388,1.1388,1.1263,1.1076,1.0943,1.0766,1.0576,0.5155,0.0,0.0,0.0,0.0,0.0,0.0,0.0,0.0,0.0,0.0,0.0,0.7379,0.7394,0.0,0.0,0.726,0.7121,0.0,0.0,0.6501,0.0,0.0,0.0,0.0,0.5927,0.5905,0.5905,0.5941,0.0,0.0,0.0,0.0,0.0,0.0,0.6585,0.6761,0.0,0.0,0.7171,0.7298,0.744,0.7542,0.744,0.7628,0.8008,0.8441,0.8705,0.8925,0.9429,0.9768,0.0,1.0183,0.0,0.0,0.0,0.0,0.0,1.0609,0.0,0.0,0.0,0.0,0.0,0.0,0.0,0.0,0.0,0.0,0.0,0.0,0.0,0.0,0.0,0.0,0.0,0.0,0.0,0.0,0.0,0.0,0.0,0.0,0.0,0.0,0.0,0.0,1.0681,1.0735,1.0823,1.0886,1.0886,1.1012,1.109,1.109,1.109,1.1122,1.1153,1.1153,1.1185,1.1232,1.1232,1.1232,1.1247,1.1341,1.1397,1.1444,1.1591,1.1685,1.1739,1.1739,1.1591,1.1357,1.1263,1.1074,1.0875,0.5794,0.5558,0.0,0.0,0.0,0.0,0.0,0.0,0.0,0.0,0.0,0.0,0.0,0.0,0.0,0.0,0.0,0.7394,0.7384,0.0,0.7243,0.0,0.0,0.6646,0.0,0.6255,0.6191,0.6191,0.6318,0.0,0.0,0.0,0.0,0.0,0.0,0.6761,0.6906,0.7031,0.7171,0.7298,0.744,0.7568,0.7696,0.0,0.8059,0.8572,0.8593,0.0,0.0,0.9788,0.9977,0.0,0.0,0.0,0.0,0.0,0.0,0.0,0.0,0.0,0.0,1.0785,0.0,0.0,0.0,0.0,1.109,0.0,0.0,0.0,0.0,0.0,0.0,0.0,0.0,0.0,0.0,0.0,0.0,0.0,0.0,0.0,0.0,0.0,0.0,0.0,1.0785,1.0886,1.1075,1.109,1.109,1.109,1.109,1.109,1.109,1.109,1.1169,1.1287,1.1287,1.1404,1.1576,1.1576,1.1576,1.1576,1.1591,1.1654,1.1771,1.1786,1.1918,1.2081,1.2081,1.2081,1.2034,1.17,1.1584,1.1561,0.6296,0.0,0.0,0.0,0.0,0.0,0.0,0.7431,0.0,0.0,0.0,0.0,0.0,0.8133,0.8133,0.0,0.0,0.7882,0.7737,0.7655,0.0,0.0,0.0,0.7073,0.0,0.0,0.667,0.6535,0.6571,0.0,0.0,0.0,0.0,0.0,0.0,0.7031,0.0,0.0,0.0,0.0,0.0,0.8139,0.8291,0.0,0.8415,0.867,0.9249,0.9596,0.0,1.0237,1.0392,1.0443,1.0559,1.0609,1.0609,1.0609,1.0649,1.0728,0.0,0.0,1.0996,1.0996,0.0,0.0,0.0,0.0,0.0,0.0,0.0,0.0,0.0,0.0,0.0,0.0,0.0,0.0,0.0,0.0,0.0,0.0,0.0,0.0,0.0,0.0,0.0,0.0,1.0996,0.0,1.109,1.1185,1.1225,1.1225,1.1357,1.1435,1.1435,1.1435,1.1451,1.1498,1.1591,1.1669,1.1747,1.1872,1.1934,1.1934,1.1934,1.1965,1.1996,1.1996,1.2042,1.2096,1.2096,1.2096,1.2096,1.1965,1.1934,1.1934,0.6744,0.0,0.0,0.0,0.0,0.0,0.0,0.0,0.0,0.0,0.8372,0.0,0.8673,0.0,0.8673,0.0,0.8565,0.8431,0.8301,0.8175,0.0,0.7769,0.7638,0.0,0.0,0.0,0.7025,0.681,0.6851,0.6838,0.0,0.0,0.0,0.0,0.0,0.0,0.7378,0.0,0.7622,0.0,0.0,0.8542,0.0,0.0,0.9064,0.9144,0.0,1.001,1.0199,1.0494,1.0609,1.0609,1.0609,1.0609,1.0609,1.0649,1.0728,1.0823,1.0886,1.1043,0.0,1.1169,1.1294,0.0,1.1412,0.0,0.0,0.0,0.0,0.0,0.0,0.0,0.0,0.0,0.0,0.0,0.0,1.1326,0.0,0.0,0.0,0.0,0.0,0.0,0.0,1.1169,1.1169,1.12,0.0,1.1357,1.1412,1.1412,1.1576,1.1669,1.1669,1.1747,1.1778,1.1778,1.1872,1.1918,1.1918,1.2042,1.2096,1.2096,1.2096,1.2127,1.2166,1.2166,1.2251,1.2351,1.2351,1.239,1.2382,1.2182,1.2096,1.2096,0.715,0.734,0.0,0.0,0.7593,0.0,0.0,0.0,0.8802,0.0,0.8926,0.9001,0.9001,0.9001,0.9001,0.9001,0.9001,0.9001,0.9001,0.8877,0.0,0.0,0.8126,0.786,0.7654,0.0,0.0,0.0,0.0,0.0,0.0,0.0,0.0,0.0,0.7453,0.0,0.7538,0.768,0.7747,0.7809,0.8413,0.8806,0.9112,0.9702,0.9919,0.9934,0.9934,1.0212,1.0609,1.0609,1.0609,1.0609,1.0609,1.0609,1.0634,1.076,1.0807,1.087,1.108,1.1222,1.1347,1.1361,1.1526,0.0,0.0,0.0,1.1705,0.0,0.0,0.0,0.0,0.0,0.0,0.0,0.0,0.0,0.0,0.0,0.0,0.0,0.0,0.0,0.0,0.0,1.1185,1.1303,1.1318,1.1412,0.0,1.1622,1.1622,1.1622,1.1747,1.1809,1.1809,1.1996,1.2096,1.2096,1.2112,1.212,1.212,1.2127,1.2135,1.2135,1.2135,1.2212,1.2336,1.2336,1.2521,1.2805,1.2805,1.2897,1.292,1.2359,1.2135,1.2135,0.7537,0.78,0.8068,0.0,0.8345,0.8409,0.0,0.0,0.0,0.0,0.8985,0.9001,0.9001,0.9001,0.9001,0.9001,0.9001,0.0,0.0,0.0,0.0,0.8851,0.876,0.8622,0.8428,0.8386,0.0,0.7962,0.0,0.0,0.7642,0.0,0.0,0.0,0.0,0.0,0.7959,0.8092,0.8353,0.8716,0.9221,0.9513,0.9708,0.0,1.0291,1.0416,1.0416,1.0494,1.0609,1.0609,1.0609,1.0609,1.0609,1.0672,1.076,1.0791,1.098,1.125,1.1548,1.1725,1.1921,1.2317,1.2443,1.2533,0.0,0.0,0.0,0.0,0.0,0.0,0.0,0.0,0.0,0.0,0.0,0.0,0.0,0.0,0.0,1.1965,0.0,0.0,0.0,1.1466,1.1498,1.1513,1.1622,1.1693,1.1747,0.0,1.1965,1.1965,1.2011,1.2011,1.2011,1.2073,1.2096,1.2096,1.2197,1.2328,1.2483,1.2575,1.2667,1.2767,1.2767,1.2782,1.2812,1.2812,1.2867,1.2958,1.2958,1.2974,1.2989,1.2836,1.2767,1.2767,0.7868,0.0,0.0,0.8909,0.0,0.0,0.89,0.9136,0.0,0.9303,0.9467,0.0,0.9413,0.9401,0.9354,0.9227,0.9215,0.0,0.9215,0.0,0.0,0.9129,0.9049,0.8954,0.8833,0.8827,0.0,0.8479,0.0,0.0,0.808,0.0,0.0,0.0,0.0,0.8279,0.0,0.8659,0.8964,0.9336,0.9652,0.9894,0.0,1.0344,1.0498,1.0609,1.0609,1.0609,1.0609,1.0609,1.0609,1.0609,1.0609,1.0697,1.0843,1.1044,1.1303,1.1598,1.1996,1.2231,1.2424,1.2718,1.2871,1.2955,1.308,1.3097,1.3131,0.0,1.3077,1.2916,0.0,0.0,0.0,0.0,0.0,0.0,0.0,0.0,0.0,0.0,1.2096,0.0,0.0,1.1825,1.1825,1.1825,1.1887,1.1934,1.1934,0.0,1.2096,1.2096,1.2251,1.2328,1.2328,1.2428,1.2498,1.249,1.2567,1.2667,1.2775,1.2851,1.2928,1.3004,1.3004,1.3004,1.3004,1.3004,1.305,1.315,1.3285,1.3392,1.3437,1.3437,1.3255,1.3004,0.8262,0.0,0.0,0.0,0.0,0.0,0.0,0.9507,0.0,0.9776,0.0,1.0208,0.9979,0.9955,0.9853,0.9572,0.0,0.9536,0.95,0.9392,0.9322,0.9322,0.9167,0.9071,0.9071,0.9071,0.0,0.0,0.0,0.0,0.0,0.0,0.0,0.0,0.0,0.0,0.0,0.9332,0.9567,0.9789,0.9942,1.0132,1.0355,1.053,1.0609,1.0609,1.0609,1.0609,1.0609,1.0609,1.0609,1.0609,1.0624,1.0755,1.098,1.1404,1.1706,1.1994,1.2463,1.2728,1.2895,1.2984,1.3135,1.327,1.3329,1.3346,1.3397,1.3583,1.3602,1.3509,1.3331,0.0,0.0,0.0,0.0,0.0,0.0,0.0,0.0,0.0,0.0,0.0,0.0,0.0,1.2096,1.2096,1.212,1.2135,0.0,0.0,1.2205,1.222,1.2498,1.2652,1.2652,1.2882,1.3004,1.3004,1.3004,1.3019,1.3072,1.3072,1.3087,1.3133,1.3133,1.3133,1.3133,1.3133,1.3233,1.3424,1.3718,1.3905,1.3995,1.3995,1.3634,1.3133,0.0,0.0,0.0,0.0,0.0,1.0047,1.0063,1.0144,1.0191,1.0191,1.0268,1.028,1.0232,1.0226,1.0124,0.9859,0.9835,0.0,0.0,0.0,0.0,0.9462,0.943,0.942,0.942,0.942,0.9396,0.0,0.0,0.0,0.0,0.0,0.0,0.0,0.0,0.0,0.9598,0.9967,0.0,1.0214,1.0402,1.0514,1.0545,1.0593,1.0609,1.0609,1.0609,1.0609,1.0609,1.0609,1.0609,1.0624,1.0728,1.1058,1.1428,1.1663,1.2044,1.2494,1.3014,1.319,1.3362,1.397,1.4146,1.4235,1.4519,1.4572,1.4643,1.4839,1.4653,1.4458,1.4426,0.0,0.0,0.0,0.0,0.0,0.0,0.0,0.0,0.0,0.0,1.2843,0.0,0.0,1.2096,1.2096,1.2197,1.2336,1.2498,0.0,1.2729,0.0,1.2897,0.0,0.0,0.0,1.3004,1.3004,1.3004,1.314,1.3405,1.3405,1.3565,1.3815,1.3815,1.3815,1.3815,1.3815,1.3845,1.3875,1.3935,1.398,1.3995,1.3995,1.3935,1.3815,0.0,0.0,0.0,0.0,0.0,0.0,0.0,1.0713,1.0671,1.0532,1.0635,1.0665,1.0515,1.0514,1.0394,1.013,1.0106,0.9997,0.9722,0.9698,0.9644,0.9506,0.95,0.0,0.95,0.95,0.95,0.95,0.0,0.0,0.0,0.0,0.0,0.0,0.0,0.9799,0.0,0.0,0.0,1.0466,1.0561,1.0609,1.0609,1.0609,1.0609,1.0609,1.0609,1.0609,1.0609,1.0609,1.0656,1.074,1.0976,1.133,1.1748,1.2193,1.2606,1.3004,1.3443,1.3711,1.3973,1.4404,1.4569,1.4739,1.4999,1.5052,1.5088,1.5187,1.5072,1.4916,1.4726,1.4272,0.0,0.0,0.0,0.0,0.0,0.0,0.0,0.0,0.0,0.0,0.0,0.0,0.0,0.0,0.0,1.2705,1.2805,0.0,1.292,0.0,0.0,0.0,1.3262,0.0,1.3513,1.3513,1.3513,1.3595,1.3761,1.3761,1.3851,1.3995,1.3995,1.3995,1.3995,1.3995,1.4055,1.4154,1.4154,1.4198,1.4258,1.4258,1.4258,1.4228,0.0,0.9996,0.0,0.0,1.0713,0.0,1.1081,1.1093,1.1014,1.0809,1.0966,1.1014,1.0809,1.0785,1.0677,1.04,1.04,1.0268,1.0003,0.9937,0.9817,0.959,0.953,0.9516,0.9564,0.9564,0.958,0.0,0.0,0.0,0.0,0.0,0.0,0.0,0.0,0.0,0.0,0.0,1.0609,1.0609,1.0609,1.0609,1.0609,1.0609,1.0609,1.0609,1.0609,1.0609,1.0615,1.073,1.0823,1.096,1.1249,1.1645,1.2133,1.2723,1.313,1.3479,1.3831,1.4181,1.4479,1.4631,1.481,1.5025,1.523,1.5258,1.5293,1.5382,1.5417,1.5351,1.5092,1.4774,0.0,0.0,0.0,0.0,0.0,0.0,0.0,0.0,0.0,0.0,1.3103,0.0,0.0,0.0,0.0,1.3026,1.3103,1.3103,1.3133,0.0,0.0,1.3651,1.3737,0.0,1.4178,1.4258,1.4258,1.4273,1.431,1.423,1.4225,1.427,1.4195,1.4175,1.4204,1.4204,1.4318,1.4446,1.4446,1.4506,1.4619,1.4619,1.4619,1.4565,0.0,0.0,0.0,0.0,0.0,0.0,1.1105,1.1093,1.1081,1.1081,1.1075,1.1081,1.1081,1.1057,1.0948,1.0689,1.0665,1.0556,1.0274,1.0033,0.9895,0.9871,0.9626,0.958,0.9772,0.9772,0.983,0.0,0.0,0.9983,0.0,0.0,0.0,0.0,0.0,0.0,0.0,1.0593,1.0609,1.0609,1.0609,1.0609,1.0609,1.0609,1.0609,1.0609,1.0609,1.0609,1.0665,1.1096,1.1234,1.129,1.1425,1.2058,1.2778,1.3159,1.3496,1.3843,1.4245,1.4461,1.4623,1.481,1.5017,1.5222,1.5426,1.5461,1.5568,1.5938,1.6114,1.6193,1.6158,1.5884,1.5644,0.0,0.0,0.0,0.0,0.0,0.0,0.0,0.0,0.0,0.0,1.3625,0.0,0.0,1.327,1.3133,1.3435,1.345,1.3586,1.3905,1.3935,1.4124,1.4484,1.4524,1.4726,1.509,1.509,1.5187,1.5352,1.4984,1.4954,1.5158,1.4784,1.473,1.4911,1.4911,1.4911,1.4926,1.4926,1.4941,1.495,1.495,1.495,1.495,0.0,0.0,0.0,0.0,0.0,0.0,0.0,1.1093,1.1093,1.1093,1.1093,1.1093,1.1093,1.1093,1.1069,1.0948,1.0936,1.0828,1.0562,1.0286,1.0069,0.9913,0.9638,0.9596,0.9804,0.9804,0.9862,0.0,0.0,0.0,0.0,0.0,0.0,0.0,0.0,1.0609,1.0609,1.0609,1.0609,1.0609,1.0609,1.0609,1.0609,1.0609,1.0609,1.0609,1.0609,1.0787,1.1053,1.1234,1.1357,1.1518,1.2098,1.2579,1.3017,1.3465,1.3775,1.4065,1.4425,1.4641,1.4864,1.5185,1.5319,1.5461,1.5797,1.585,1.5921,1.6167,1.6254,1.6289,1.6289,1.6183,1.6032,1.5826,0.0,0.0,0.0,0.0,0.0,0.0,0.0,0.0,0.0,0.0,0.0,0.0,0.0,1.3655,1.3791,1.404,1.4224,1.4362,0.0,1.5018,1.5251,1.5371,1.5565,1.5801,1.5801,1.584,1.5911,1.5753,1.5741,1.5817,1.5418,1.5285,1.5336,1.5104,1.5,1.5,1.5,1.5,1.5,1.5,1.5,1.5,1.0887,0.0,1.1093,0.0,1.1093,1.1093,1.1093,1.1093,1.1093,1.1093,1.1093,1.1093,1.1093,1.1093,1.1093,1.1093,1.1093,1.1014,1.0828,1.0574,1.0292,1.0033,0.9818,0.0,0.9852,0.991,1.0021,1.0174,1.0317,0.0,0.0,0.0,0.0,0.0,1.0609,1.0609,1.0609,1.0609,1.0609,1.0609,1.0609,1.0609,1.0609,1.0609,1.0609,1.06,1.0687,1.0968,1.1335,1.1564,1.176,1.1989,1.2609,1.3004,1.3324,1.3751,1.4036,1.4256,1.4605,1.4846,1.507,1.5408,1.5594,1.5744,1.6044,1.6132,1.6202,1.6359,1.6429,1.6482,1.6482,1.6482,1.6392,1.6166,0.0,0.0,0.0,1.5174,0.0,0.0,1.4531,1.4356,1.4356,1.4417,0.0,0.0,0.0,1.4555,1.4448,1.4744,1.4944,0.0,0.0,0.0,1.6051,1.6199,1.6369,1.6587,1.6587,1.6587,1.6577,1.6503,1.6395,1.6278,1.6039,1.5854,1.5726,1.5438,1.5237,1.5123,1.5123,1.5123,1.5123,1.5123,1.5123,1.5123,1.1055,1.1093,1.1093,1.1093,1.1093,1.1093,1.1093,1.1093,1.1093,1.1093,1.1093,1.1093,1.1093,1.1093,1.1093,1.1093,1.1093,1.1093,1.1105,1.084,1.0581,0.0,0.0,1.0136,1.0005,1.0196,1.0387,1.0593,0.0,0.0,1.0609,0.0,1.0609,1.0609,1.0609,1.0609,1.0609,1.0609,1.0609,1.0609,1.0609,1.0609,1.0609,1.0609,1.0609,1.0626,1.0898,1.1127,1.1414,1.2228,1.2614,1.2798,1.2798,1.3253,1.3837,1.4047,1.4245,1.4461,1.481,1.5034,1.524,1.5443,1.5797,1.6096,1.6096,1.6202,1.6359,1.656,1.6751,1.6891,1.6891,1.6891,1.6891,1.6882,0.0,0.0,0.0,0.0,0.0,1.5241,1.5197,1.5188,1.5188,1.5373,0.0,0.0,0.0,0.0,0.0,0.0,0.0,1.598,1.6122,0.0,1.6878,1.6888,1.7087,1.7486,1.7486,1.7486,1.7476,1.7216,1.6876,1.6507,1.6624,1.6459,1.6095,1.6085,1.5816,1.5396,1.5396,1.5396,1.5396,1.5396,1.5396,1.5396,1.1321,1.1382,1.1436,1.1611,1.1641,1.1641,1.1641,1.1641,1.1641,1.1641,1.149,1.1382,1.1382,1.1207,1.1093,0.0,1.1093,1.1093,0.0,1.0846,1.0665,1.0581,1.0329,1.023,1.0267,1.0287,1.0403,1.0609,0.0,0.0,0.0,1.0609,1.0609,1.0609,1.0609,1.0609,1.0609,1.0609,1.0609,1.0609,1.0609,1.0609,1.0613,1.0798,1.0871,1.0928,1.134,1.1748,1.2186,1.2575,1.2967,1.3309,1.3435,1.3636,1.3844,1.4047,1.4317,1.4623,1.4991,1.5248,1.5497,1.5815,1.6009,1.6167,1.6385,1.6586,1.6726,1.6795,1.6864,1.6908,1.6908,1.6908,1.6908,1.6908,1.6856,0.0,1.6665,0.0,1.6099,1.5972,1.5832,1.5748,1.5748,1.5891,0.0,0.0,0.0,0.0,0.0,0.0,0.0,0.0,1.6921,0.0,1.7439,1.7584,1.7779,1.8059,1.8144,1.8178,1.8178,1.8097,1.7942,1.7711,1.7422,1.7193,1.693,1.6355,1.6007,1.586,1.5513,1.5396,1.5396,1.5396,1.5396,1.5396,1.1623,1.1659,1.1688,1.187,1.19,1.19,1.19,1.19,1.19,1.19,1.1761,1.1603,1.1501,1.1352,0.0,1.1105,1.1093,1.1093,1.1093,1.0942,1.0809,1.0707,1.0632,1.0608,1.0585,1.0575,0.0,1.0754,1.0646,1.0609,1.0609,1.0609,1.0609,1.0609,1.0609,1.0609,1.0609,1.0609,1.0653,1.0754,1.0754,1.0804,1.0925,1.1089,1.1156,1.1213,1.1713,1.2155,1.2554,1.2845,1.3205,1.3535,1.3736,1.3844,1.3946,1.4155,1.4443,1.4784,1.5115,1.5408,1.5682,1.6026,1.6316,1.6635,1.7063,1.7313,1.7418,1.7271,1.7296,1.7292,1.7144,1.7133,1.7133,1.7133,1.7133,1.7133,1.7133,0.0,1.6745,0.0,0.0,0.0,0.0,1.6642,1.6828,0.0,0.0,0.0,0.0,0.0,1.7233,1.73,1.7634,1.7862,1.8005,1.8127,1.8245,1.8371,1.8465,1.8499,1.8499,1.8499,1.8448,1.8361,1.8065,1.7807,1.7536,1.692,1.6465,1.6141,1.5806,1.5557,1.5396,1.5396,1.5396,1.541,1.1924,1.193,1.1936,0.0,1.196,1.196,1.196,1.196,1.196,1.196,1.1942,1.184,1.1573,1.1531,1.1424,1.1147,0.0,0.0,1.1093,1.1093,1.0984,1.0743,1.1109,1.1172,1.0935,1.0985,1.1022,1.1022,1.0767,1.0635,1.0635,1.06,1.06,1.0635,1.0635,1.0633,1.0653,1.0653,1.0791,1.1022,1.1022,1.1182,1.1395,1.1432,1.1439,1.1514,1.2044,1.2366,1.2593,1.3056,1.3346,1.3554,1.3754,1.3964,1.4165,1.4353,1.4641,1.4953,1.5169,1.554,1.591,1.6105,1.6714,1.7415,1.7981,1.8267,1.8294,1.7949,1.8016,1.8009,1.7618,1.7552,1.7533,1.7505,1.7505,1.7505,1.7505,1.7505,1.7505,0.0,0.0,0.0,1.7505,1.7539,1.7581,0.0,0.0,0.0,0.0,0.0,1.7864,1.8025,1.8228,1.8371,1.8499,1.8516,1.8533,1.8549,1.8549,1.8549,1.8549,1.8549,1.8533,1.8516,1.8516,1.8308,1.7922,1.7723,1.7129,1.6396,1.6205,1.587,1.5478,1.5449,1.5425,1.5464,0.0,0.0,1.2262,1.246,1.2518,1.2518,1.2518,1.2518,1.2518,1.2518,1.2322,1.2177,1.2111,1.193,1.1701,1.1436,1.1213,1.1093,1.1093,1.1093,1.1069,1.1002,1.119,1.1261,1.1215,1.127,1.1306,1.1306,1.1035,1.0912,1.0898,1.07,1.0713,1.0912,1.0912,1.1015,1.1206,1.1206,1.1246,1.1306,1.1306,1.1346,1.1432,1.1677,1.1781,1.1874,1.2514,1.2751,1.2875,1.328,1.3554,1.3754,1.3974,1.4173,1.4353,1.4515,1.4838,1.5169,1.5373,1.5949,1.6541,1.6749,1.7351,1.7962,1.8258,1.8369,1.8415,1.8468,1.8522,1.8435,1.8028,1.7952,1.7848,1.7552,1.7505,1.7505,1.7505,1.7505,1.7505,0.0,1.7588,1.7647,1.7647,1.7794,1.7889,0.0,0.0,1.8202,1.8286,1.8648,1.8695,1.8391,1.8431,1.8465,1.8499,1.865,1.8808,1.8958,1.8958,1.8958,1.8958,1.8958,1.8875,1.8724,1.8724,1.859,1.8325,1.7973,1.7702,1.7451,1.6748,1.6417,1.6272,1.5908,1.5774,1.5798,1.2442,1.2472,1.2536,1.2681,1.2705,1.2705,1.2705,1.2705,1.2705,1.2705,1.2578,1.2445,1.2304,1.2165,1.1972,1.1713,1.1442,1.1231,1.1105,1.1093,1.1093,1.1093,1.134,1.1484,1.1484,1.1583,1.1546,1.1406,1.1252,1.1172,1.1189,1.1029,1.1042,1.1172,1.1172,1.1259,1.1406,1.1406,1.1486,1.163,1.163,1.171,1.1826,1.2004,1.2143,1.2272,1.2746,1.2955,1.3083,1.3401,1.3626,1.3844,1.4047,1.4274,1.4583,1.5021,1.5297,1.5532,1.5821,1.6473,1.7181,1.7666,1.8145,1.8591,1.889,1.9098,1.9231,1.9126,1.9181,1.9121,1.8726,1.8649,1.8572,1.8368,1.8131,1.8006,1.8006,1.7843,1.7718,1.7718,1.7794,1.7913,1.8089,1.8222,1.8396,1.8714,1.8829,0.0,1.9153,1.9472,1.9436,1.8964,1.9173,1.9309,1.9368,1.9363,1.9396,1.9504,1.9296,1.9191,1.9191,1.9125,1.9042,1.8942,1.8942,1.8875,1.8754,1.8443,1.8204,1.795,1.7178,1.6759,1.6542,1.6075,1.5899,1.5914,1.2705,1.2705,1.2705,1.2705,1.2705,1.2705,1.2705,1.2705,1.2705,1.2705,1.2705,1.262,1.2397,1.2352,1.225,1.1984,1.1761,1.1496,1.1177,1.1117,1.1111,1.1149,1.1502,1.1706,1.1744,1.1895,1.181,1.1539,1.1499,1.1472,1.1472,1.1415,1.1432,1.1472,1.1472,1.1499,1.1539,1.1539,1.1703,1.1955,1.1955,1.2102,1.2305,1.2305,1.2415,1.2636,1.282,1.3028,1.3236,1.3473,1.3681,1.3888,1.4144,1.4467,1.49,1.5649,1.5964,1.6119,1.6447,1.7067,1.7831,1.8629,1.8951,1.9198,1.9611,2.001,2.0207,1.9831,1.9887,1.9883,1.9481,1.9385,1.9365,1.9315,1.8975,1.8705,1.8705,0.0,1.8203,1.8203,1.8203,1.8322,1.8666,1.8705,1.8958,1.9556,1.9622,1.9813,2.0193,2.0291,2.0147,1.9758,2.0055,2.0298,2.0438,2.025,2.0117,2.0044,1.9645,1.9414,1.9341,1.9191,1.9131,1.9125,1.9108,1.9108,1.9092,1.8925,1.8633,1.8271,1.7543,1.7077,1.6693,1.6168,1.5972,1.5986,1.2747,1.2705,1.2705,1.2705,1.2705,1.2705,1.2705,1.2705,1.2705,1.2705,1.2705,1.2687,1.265,1.2644,1.2536,1.2256,1.2195,1.1966,1.1459,1.1225,1.1186,1.1353,1.1577,1.1781,1.1947,1.2148,1.2211,1.2164,1.1924,1.1815,1.1815,1.1526,1.1557,1.1815,1.1815,1.1955,1.2164,1.2164,1.2191,1.2231,1.2231,1.2265,1.2305,1.2305,1.2415,1.2636,1.282,1.3028,1.3255,1.3626,1.3891,1.4129,1.4622,1.5049,1.5464,1.6045,1.6711,1.7207,1.7109,1.7652,1.8447,1.9264,1.9484,1.9621,2.0098,2.0245,2.0323,2.042,2.0459,2.0351,1.9902,1.9814,1.9707,1.9364,1.9247,1.9189,1.9189,0.0,1.911,1.911,1.911,1.9111,1.918,1.9189,1.93,1.9576,1.9769,1.9959,2.0193,2.0676,2.0924,2.0852,2.0542,2.0466,2.0652,2.0773,2.0655,2.0249,2.0175,1.9948,1.955,1.9368,1.9268,1.9258,1.9142,1.9108,1.9108,1.9075,1.9017,1.8872,1.7982,1.758,1.7431,1.6626,1.6327,1.6331,1.3115,1.3073,1.3009,1.2747,1.2705,1.2705,1.2705,1.2705,1.2705,1.2705,1.2705,1.2705,1.2705,1.2705,1.2656,1.2536,1.2376,1.2251,1.2155,1.1725,1.1457,1.1397,1.1706,1.1966,1.2157,1.2249,1.2305,1.2305,1.2189,1.2122,1.2116,1.1964,1.1971,1.2122,1.2122,1.2178,1.2305,1.2305,1.2305,1.2305,1.2305,1.2305,1.2305,1.2415,1.2599,1.279,1.2991,1.3193,1.3422,1.3911,1.4203,1.4467,1.5001,1.5527,1.6016,1.65,1.7202,1.7865,1.8114,1.852,1.8994,1.9471,1.9676,1.9853,2.0225,2.0372,2.0489,2.0586,2.0605,2.0527,2.0322,2.0283,2.0224,2.0029,1.9794,1.9619,1.9619,1.9434,1.9305,1.9305,1.9305,1.9393,1.96,1.9619,1.9857,2.0412,2.0554,2.0741,2.1057,2.1317,2.1487,2.1487,2.1372,2.1405,2.1607,2.156,2.1425,2.121,2.0707,2.0353,2.0111,1.9672,1.9456,1.944,1.9274,1.9208,1.9191,1.9125,1.9108,1.9019,1.834,1.7921,1.7626,1.6969,1.6581,1.6402,1.3568,1.3568,1.344,1.3094,1.2833,1.2705,1.2705,1.2705,1.2705,1.2705,1.2705,1.2705,1.2705,1.2705,1.2705,1.2705,1.2566,1.2545,1.2696,1.2358,1.199,1.1677,1.1912,1.2132,1.2305,1.2305,1.2305,1.2305,1.2305,1.2305,1.2305,1.2305,1.2305,1.2305,1.2305,1.2305,1.2305,1.2305,1.2305,1.2305,1.2305,1.2305,1.2316,1.2526,1.2776,1.3042,1.3252,1.3505,1.3811,1.4317,1.4589,1.4839,1.5455,1.6018,1.6528,1.6962,1.7643,1.8351,1.8861,1.9152,1.9361,1.9616,1.9794,1.9981,2.0303,2.0489,2.0605,2.0605,2.0605,2.0605,2.0605,2.0605,2.0605,2.0605,0.0,2.0068,2.0068,1.9804,1.9599,1.9599,1.9599,1.9726,2.0029,2.0068,2.0386,2.1136,2.1205,2.1378,2.1788,2.1807,2.1845,2.194,2.2092,2.2271,2.2478,2.2318,2.219,2.2053,2.1339,2.0874,2.0647,2.0096,1.9761,1.9654,1.9467,1.9341,1.9291,1.9191,1.9125,1.9056,1.8574,1.8112,1.7647,1.7167,1.6771,1.6459,1.4039,1.4039,1.4046,1.4004,1.3285,1.2705,1.2705,1.2705,1.2705,1.2705,1.2705,1.2705,1.2705,1.2705,1.2705,1.2705,1.2905,1.2936,1.2709,1.3008,1.2967,1.244,1.2328,1.2286,1.2305,1.2305,1.2305,1.2305,1.2305,1.2305,1.2305,1.2305,1.2305,1.2305,1.2305,1.2305,1.2305,1.2305,1.2305,1.2305,1.2305,1.2305,1.2316,1.2526,1.2926,1.3384,1.358,1.3983,1.4496,1.4899,1.5053,1.5211,1.613,1.6609,1.6951,1.7496,1.8118,1.8705,1.8933,1.9152,1.94,1.9784,1.9883,2.002,2.0469,2.0586,2.0605,2.0605,2.0605,2.0605,2.0605,2.0605,2.0605,2.0605,0.0,0.0,2.0556,2.0527,2.0507,2.0507,2.0507,2.0527,2.0556,2.0556,2.0731,2.1167,2.1205,2.1378,2.1788,2.1807,2.1978,2.2346,2.2365,2.2478,2.2684,2.2838,2.2721,2.2277,2.2212,2.1717,2.0877,2.0642,2.0288,1.9868,1.9681,1.9467,1.9301,1.9285,1.9208,1.9056,1.8574,1.8112,1.7647,1.7167,1.6819,1.6595,1.4109,1.4109,1.4109,1.4109,1.3807,1.3568,1.3568,1.3067,1.2705,1.2705,1.2705,1.2705,1.2705,1.2966,1.3094,1.3015,1.3185,1.3311,1.3329,1.3469,1.3367,1.2949,1.2726,1.2616,1.2616,1.2417,1.2305,1.2305,1.2305,1.2305,1.2305,1.2305,1.2305,1.2305,1.2305,1.2305,1.2305,1.2305,1.243,1.2616,1.2616,1.278,1.3076,1.3275,1.3563,1.3927,1.4127,1.4413,1.4753,1.5238,1.5484,1.5747,1.6601,1.7024,1.7359,1.8098,1.8583,1.8922,1.9132,1.933,1.9548,1.9824,2.0029,2.0225,2.0527,2.0605,2.0605,2.0605,2.0605,2.0605,2.0605,2.0605,2.0605,2.0605,0.0,2.0605,2.0605,2.0605,2.0605,2.0605,2.0605,2.0605,2.0605,2.0605,2.077,2.1167,2.1205,2.1378,2.1788,2.1807,2.1978,2.2384,2.2402,2.2553,2.2889,2.2964,2.2914,2.2721,2.2437,2.1964,2.1315,2.0941,2.0515,2.0025,1.9862,1.9736,1.9654,1.9539,1.9374,1.922,1.9168,1.8601,1.7811,1.7756,1.7309,1.6737,1.4109,1.4109,1.4109,1.4109,1.4109,1.4109,1.4109,1.3546,1.3137,1.3137,1.3137,1.3137,1.3137,1.344,1.3546,1.3334,1.344,1.3546,1.3695,1.3779,1.3674,1.3347,1.3072,1.2931,1.2931,1.2692,1.2585,1.2585,1.2585,1.2585,1.2585,1.2585,1.2585,1.2585,1.2585,1.2585,1.2585,1.2585,1.2725,1.2931,1.2982,1.322,1.3535,1.3817,1.4084,1.4354,1.4559,1.4828,1.5158,1.5599,1.593,1.6264,1.6976,1.7424,1.7838,1.852,1.8832,1.9033,1.9251,1.9489,1.9735,1.9863,2.0108,2.0362,2.0547,2.0605,2.0605,2.0605,2.0605,2.0605,2.0605,2.0605,2.0605,2.0605,2.0605,2.0605,2.0605,2.0605,2.0605,2.0605,2.0605,2.0605,2.0605,2.0605,2.077,2.1167,2.1205,2.1378,2.1788,2.1807,2.1978,2.2384,2.2402,2.259,2.3001,2.3001,2.3001,2.3001,2.2666,2.2204,2.1599,2.126,2.074,2.0091,1.9993,1.9933,1.9884,1.9753,1.9583,1.9417,1.955,1.9019,1.8206,1.8197,1.7745,1.7095,1.4109,1.4109,1.4109,1.4109,1.4109,1.4109,1.4109,1.4109,1.4109,1.4109,1.4109,1.4109,1.4109,1.4109,1.3976,1.3639,1.3667,1.3695,1.3695,1.3955,1.3955,1.362,1.3347,1.3193,1.3193,1.3193,1.3193,1.3193,1.3193,1.3193,1.3193,1.3193,1.3193,1.3193,1.3193,1.3193,1.3193,1.3193,1.3193,1.3213,1.343,1.3502,1.3561,1.4034,1.4365,1.4637,1.4819,1.5247,1.5733,1.5997,1.6368,1.6771,1.7249,1.7858,1.8442,1.8632,1.8851,1.9062,1.9251,1.9607,1.9912,1.9912,2.0108,2.0362,2.0557,2.0615,2.0615,2.0615,2.0615,2.0615,2.0615,2.0615,2.0615,2.0615,2.0615,2.0615,2.0615,2.0615,2.0615,2.0615,2.0615,2.0615,2.0615,2.0615,2.077,2.1177,2.1215,2.1378,2.1769,2.1807,2.1978,2.2384,2.2402,2.259,2.3001,2.3001,2.3001,2.3001,2.3001,2.2499,2.161,2.161,2.104,2.0102,2.0102,2.0025,1.99,1.99,1.9769,1.9588,1.9588,1.9318,1.8839,1.8386,1.8038,1.7734,1.4109,1.4109,1.4109,1.4109,1.4109,1.4109,1.4109,1.4109,1.4109,1.4109,1.4109,1.4109,1.4109,1.4109,1.4067,1.3955,1.3976,1.3976,1.3976,1.4067,1.4069,1.3961,1.3654,1.3473,1.3473,1.3293,1.3193,1.3193,1.3193,1.3193,1.3193,1.3193,1.3193,1.3193,1.3193,1.3193,1.3193,1.3193,1.342,1.3763,1.3817,1.417,1.4639,1.479,1.497,1.5202,1.5393,1.5679,1.6017,1.6237,1.6607,1.7049,1.7477,1.8072,1.8612,1.868,1.8942,1.9251,1.9458,1.9941,2.0387,2.0387,2.0656,2.1043,2.1426,2.1514,2.1514,2.1514,2.1514,2.1514,2.1514,2.1514,2.1514,2.1514,2.1514,2.1514,2.1514,2.1514,2.1514,2.1514,2.1514,2.1514,2.1514,2.1514,2.1677,2.209,2.2116,2.2157,2.2274,2.1983,2.1978,2.2384,2.2402,2.259,2.3001,2.3001,2.3001,2.3001,2.3001,2.2499,2.161,2.161,2.104,2.0102,2.0102,2.0074,2.0042,2.0042,1.996,1.9818,1.9911,1.9614,1.9093,1.9052,1.8631,1.8057,1.4109,1.4109,1.4109,1.4109,1.4109,1.4109,1.4109,1.4109,1.4109,1.4109,1.4109,1.4109,1.4109,1.4109,1.4109,1.4109,1.4109,1.4109,1.4109,1.4109,1.4109,1.4109,1.3915,1.3794,1.3794,1.3647,1.3561,1.3561,1.3561,1.3561,1.3561,1.3561,1.3561,1.3561,1.3561,1.3594,1.3669,1.3669,1.3913,1.4296,1.4385,1.4704,1.511,1.5194,1.534,1.552,1.5658,1.5927,1.6245,1.6443,1.6886,1.7416,1.7841,1.8302,1.872,1.88,1.915,1.9589,1.9828,2.0348,2.0901,2.1175,2.1366,2.1542,2.1847,2.1905,2.1905,2.1905,2.1905,2.1905,2.1905,2.1905,2.1905,2.1905,2.1905,2.1905,2.1905,2.1905,2.1905,2.1905,2.1905,2.1905,2.1905,2.1905,2.2071,2.2461,2.2664,2.2687,2.2511,2.2309,2.2262,2.2394,2.2478,2.2665,2.3001,2.3075,2.3075,2.3001,2.3075,2.2725,2.1996,2.1861,2.136,2.061,2.0341,2.0216,2.0216,2.0134,2.0042,1.9993,2.0069,1.9927,1.9671,1.9558,1.9247,1.8822,1.4109,1.4109,1.4109,1.4109,1.4109,1.4109,1.4109,1.4109,1.4109,1.4109,1.4109,1.4109,1.4109,1.4109,1.4109,1.4109,1.4109,1.4109,1.4109,1.4109,1.4109,1.4109,1.4109,1.4109,1.4109,1.4109,1.4109,1.4109,1.4109,1.4109,1.4109,1.413,1.4124,1.4124,1.4152,1.4265,1.444,1.444,1.4545,1.4762,1.4999,1.511,1.5152,1.534,1.5541,1.5713,1.5754,1.6044,1.6456,1.671,1.7221,1.7801,1.8253,1.8551,1.876,1.8987,1.9479,2.0005,2.0307,2.0833,2.1438,2.2082,2.2108,2.2002,2.2002,2.2002,2.2002,2.2002,2.2002,2.2002,2.2002,2.2002,2.2002,2.2002,2.2002,2.2002,2.2002,2.2002,2.2002,2.2002,2.2002,2.2002,2.2002,2.2064,2.222,2.2582,2.3023,2.309,2.2646,2.2739,2.2701,2.2477,2.2612,2.2796,2.3001,2.3205,2.3205,2.3038,2.3224,2.308,2.2617,2.2251,2.1845,2.1358,2.0708,2.0427,2.041,2.0232,2.014,2.014,2.014,2.0264,2.0387,1.9949,1.9859,1.9808,1.4109,1.4109,1.4109,1.4109,1.4109,1.4109,1.4109,1.4109,1.4109,1.4109,1.4109,1.4109,1.4109,1.4109,1.4109,1.4109,1.4109,1.4109,1.4109,1.4109,1.4109,1.4109,1.4109,1.4109,1.4109,1.4109,1.4109,1.4109,1.4109,1.4109,1.4109,1.4258,1.4335,1.4335,1.451,1.4594,1.4629,1.4629,1.4783,1.502,1.509,1.5194,1.5368,1.5561,1.5658,1.5754,1.6126,1.6414,1.673,1.7294,1.7688,1.7991,1.8302,1.8643,1.9005,1.9363,1.9811,2.0326,2.0861,2.1467,2.2063,2.2363,2.2631,2.284,2.284,2.284,2.284,2.284,2.284,2.284,2.284,2.284,2.284,2.284,2.284,2.284,2.284,2.284,2.284,2.284,2.284,2.284,2.284,2.3173,2.343,2.3516,2.3668,2.3701,2.3608,2.3083,2.2859,2.2947,2.2783,2.2796,2.3001,2.3205,2.3279,2.3242,2.3427,2.3281,2.2813,2.2321,2.1845,2.1374,2.0854,2.0637,2.0621,2.0588,2.0572,2.0572,2.0572,2.0604,2.0625,2.0514,2.0344,2.0014,1.4109,1.4109,1.4109,1.4109,1.4109,1.4109,1.4109,1.4109,1.4109,1.4109,1.4109,1.4109,1.4109,1.4109,1.4109,1.4109,1.4109,1.4109,1.4109,1.4109,1.4109,1.4109,1.4109,1.4109,1.4109,1.4187,1.4208,1.4109,1.4208,1.4243,1.4243,1.444,1.4545,1.4545,1.465,1.4783,1.4887,1.4887,1.502,1.5257,1.5353,1.5458,1.5561,1.581,1.5948,1.6085,1.6414,1.6833,1.7233,1.7578,1.7922,1.8241,1.8462,1.8896,1.9358,1.9648,2.0274,2.0959,2.1365,2.1978,2.2541,2.2748,2.2925,2.3091,2.3091,2.3091,2.3091,2.3091,2.3091,2.3091,2.3091,2.3091,2.3091,2.3091,2.3091,2.3091,2.3091,2.3091,2.3091,2.3091,2.3091,2.3091,2.3091,2.3515,2.3797,2.3797,2.4046,2.4137,2.4054,2.3568,2.3271,2.3232,2.297,2.2945,2.3131,2.3335,2.3482,2.3586,2.3696,2.3604,2.334,2.2694,2.2253,2.1975,2.1151,2.0802,2.0786,2.0733,2.0701,2.0701,2.0701,2.0749,2.0802,2.0802,2.0644,2.0389,1.4109,1.4109,1.4109,1.4109,1.4109,1.4109,1.4109,1.4109,1.4109,1.4109,1.4109,1.4109,1.4109,1.4128,1.4162,1.4162,1.423,1.4257,1.4257,1.4257,1.4257,1.4257,1.4299,1.4272,1.4247,1.4424,1.4411,1.4145,1.4363,1.4461,1.4461,1.4671,1.4783,1.4783,1.4803,1.4929,1.5152,1.5194,1.5298,1.5465,1.5679,1.5782,1.5803,1.6038,1.6286,1.6476,1.6689,1.718,1.7712,1.7801,1.8155,1.8579,1.8789,1.9279,1.98,2.0088,2.0836,2.1611,2.189,2.2404,2.2882,2.3057,2.3091,2.3091,2.3091,2.3091,2.3091,2.3091,2.3091,2.3091,2.3091,2.3091,2.3091,2.3091,2.3091,2.3091,2.3091,2.3091,2.3091,2.3091,2.3091,2.3113,2.3166,2.3559,2.3819,2.3862,2.4261,2.4438,2.4336,2.3984,2.3696,2.3535,2.3221,2.3131,2.3298,2.3538,2.3732,2.3897,2.397,2.3989,2.3929,2.3166,2.2782,2.2644,2.1551,2.103,2.0951,2.0818,2.0797,2.0797,2.0814,2.0898,2.0987,2.1015,2.0968,2.0876,1.4109,1.4109,1.4109,1.4109,1.4109,1.4109,1.4109,1.4109,1.4109,1.4109,1.4109,1.4109,1.4109,1.4309,1.4441,1.4441,1.4718,1.4872,1.4872,1.4872,1.4872,1.4872,1.5052,1.504,1.4807,1.4996,1.4857,1.4356,1.4566,1.465,1.4671,1.4908,1.5041,1.5041,1.5236,1.5319,1.5368,1.5554,1.5637,1.5679,1.5935,1.6046,1.6066,1.6278,1.6484,1.6689,1.6955,1.7335,1.776,1.8172,1.8681,1.9209,1.9405,1.9902,2.0503,2.1107,2.1517,2.189,2.2512,2.2865,2.3079,2.3091,2.3091,2.3091,2.3091,2.3091,2.3091,2.3091,2.3091,2.3091,2.3091,2.3091,2.3091,2.3091,2.3091,2.3091,2.3091,2.3091,2.3091,2.3091,2.3091,2.3188,2.3416,2.3667,2.3905,2.4142,2.4378,2.4594,2.4798,2.4173,2.3856,2.4011,2.3509,2.3261,2.3298,2.3666,2.3879,2.3897,2.4243,2.4327,2.4141,2.3568,2.3081,2.2667,2.2043,2.1523,2.1158,2.1138,2.1126,2.1142,2.1257,2.1321,2.1352,2.1529,2.1573,2.1518,1.4109,1.4109,1.4109,1.4109,1.4109,1.4109,1.4109,1.4109,1.4109,1.4109,1.4109,1.4109,1.4109,1.4349,1.4589,1.475,1.4912,1.5008,1.5008,1.5113,1.5174,1.5174,1.5397,1.5468,1.5344,1.5534,1.5523,1.5302,1.5043,1.4908,1.4936,1.5152,1.5333,1.5429,1.5541,1.5645,1.5797,1.5893,1.5914,1.5935,1.6175,1.6327,1.6451,1.671,1.6914,1.7151,1.7623,1.804,1.8494,1.8887,1.9362,1.9826,1.991,2.0446,2.1123,2.1407,2.1912,2.2411,2.2733,2.2947,2.3091,2.3091,2.3091,2.3091,2.3091,2.3091,2.3091,2.3091,2.3091,2.3091,2.3091,2.3091,2.3091,2.3091,2.3091,2.3091,2.3091,2.3091,2.3091,2.3091,2.3091,2.321,2.3482,2.3667,2.3905,2.4185,2.454,2.4818,2.5052,2.4369,2.4117,2.4432,2.3693,2.3409,2.3641,2.3806,2.4007,2.4236,2.4418,2.4454,2.434,2.3926,2.3467,2.2944,2.2455,2.1943,2.1482,2.1482,2.1482,2.1482,2.1533,2.1565,2.1596,2.1749,2.1812,2.1792]},{"header":{"parameterUnit":"m.s-1","parameterCategory":1,"la1":30.6,"la2":28.766,"lo1":-90.7593,"lo2":-88.6598,"dy":0.0162,"dx":0.0183,"nx":116,"ny":114,"refTime":"2024-02-14T06:00:00:Z","depth":0,"parameterNumber":3,"parameterNumberName":"V-component_of_WINDS"},"data":[0.0,0.0,0.0,0.0,0.0,0.0,0.0,0.0,0.0,0.0,0.0,0.0,0.0,0.0,0.0,0.0,0.0,0.0,0.0,0.0,0.0,0.0,0.0,0.0,0.0,0.0,0.0,0.0,0.0,0.0,0.0,0.0,0.0,0.0,0.0,0.0,0.0,0.0,0.0,0.0,0.0,0.0,0.0,0.0,0.0,0.0,0.0,0.0,0.0,0.0,0.0,0.0,0.0,0.0,0.0,0.0,0.0,0.0,0.0,0.0,0.0,0.0,0.0,0.0,0.0,0.0,0.0,0.0,0.0,0.0,0.0,0.0,0.0,0.0,0.0,0.0,0.0,0.0,0.0,0.0,0.0,0.0,0.0,0.0,0.0,0.0,0.0,0.0,0.0,0.0,0.0,0.0,0.0,0.0,0.0,0.0,0.0,0.0,0.0,0.0,0.0,0.0,0.0,0.0,0.0,0.0,0.0,0.0,0.0,0.0,0.0,0.0,0.0,0.0,0.0,0.0,0.0,0.0,0.0,0.0,0.0,0.0,0.0,0.0,0.0,0.0,0.0,0.0,0.0,0.0,0.0,0.0,0.0,0.0,0.0,0.0,0.0,0.0,0.0,0.0,0.0,0.0,0.0,0.0,0.0,0.0,0.0,0.0,0.0,0.0,0.0,0.0,0.0,0.0,0.0,0.0,0.0,0.0,0.0,0.0,0.0,0.0,0.0,0.0,0.0,0.0,0.0,0.0,0.0,0.0,0.0,0.0,0.0,0.0,0.0,0.0,0.0,0.0,0.0,0.0,0.0,0.0,0.0,0.0,0.0,0.0,0.0,0.0,0.0,0.0,0.0,0.0,0.0,0.0,0.0,0.0,0.0,0.0,0.0,0.0,0.0,0.0,0.0,0.0,0.0,0.0,0.0,0.0,0.0,0.0,0.0,0.0,0.0,0.0,0.0,0.0,0.0,0.0,0.0,0.0,0.0,0.0,0.0,0.0,0.0,0.0,0.0,0.0,0.0,0.0,0.0,0.0,0.0,0.0,0.0,0.0,0.0,0.0,0.0,0.0,0.0,0.0,0.0,0.0,0.0,0.0,0.0,0.0,0.0,0.0,0.0,0.0,0.0,0.0,0.0,0.0,0.0,0.0,0.0,0.0,0.0,0.0,0.0,0.0,0.0,0.0,0.0,0.0,0.0,0.0,0.0,0.0,0.0,0.0,0.0,0.0,0.0,0.0,0.0,0.0,0.0,0.0,0.0,0.0,0.0,0.0,0.0,0.0,0.0,0.0,0.0,0.0,0.0,0.0,0.0,0.0,0.0,0.0,0.0,0.0,0.0,0.0,0.0,0.0,0.0,0.0,0.0,0.0,0.0,0.0,0.0,0.0,0.0,0.0,0.0,0.0,0.0,0.0,0.0,0.0,0.0,0.0,0.0,0.0,0.0,0.0,0.0,0.0,0.0,0.0,0.0,0.0,0.0,0.0,0.0,0.0,0.0,0.0,0.0,0.0,0.0,0.0,0.0,0.0,0.0,0.0,0.0,0.0,0.0,0.0,0.0,0.0,0.0,0.0,0.0,0.0,0.0,0.0,0.0,0.0,0.0,0.0,0.0,0.0,0.0,0.0,0.0,0.0,0.0,0.0,0.0,0.0,0.0,0.0,0.0,0.0,0.0,0.0,0.0,0.0,0.0,0.0,0.0,0.0,0.0,0.0,0.0,0.0,0.0,0.0,0.0,0.0,0.0,0.0,0.0,0.0,0.0,0.0,0.0,0.0,0.0,0.0,0.0,0.0,0.0,0.0,0.0,0.0,0.0,0.0,0.0,0.0,0.0,0.0,0.0,0.0,0.0,0.0,0.0,0.0,0.0,0.0,0.0,0.0,0.0,0.0,0.0,0.0,0.0,0.0,0.0,0.0,0.0,0.0,0.0,0.0,0.0,0.0,0.0,0.0,0.0,0.0,0.0,0.0,0.0,0.0,0.0,0.0,0.0,0.0,0.0,0.0,0.0,0.0,0.0,0.0,0.0,0.0,0.0,0.0,0.0,0.0,0.0,0.0,0.0,0.0,0.0,0.0,0.0,0.0,0.0,0.0,0.0,0.0,0.0,0.0,0.0,0.0,0.0,0.0,0.0,0.0,0.0,0.0,0.0,0.0,0.0,0.0,0.0,0.0,0.0,0.0,0.0,0.0,0.0,0.0,0.0,0.0,0.0,0.0,0.0,0.0,0.0,0.0,0.0,0.0,0.0,0.0,0.0,0.0,0.0,0.0,0.0,0.0,0.0,0.0,0.0,0.0,0.0,0.0,0.0,0.0,0.0,0.0,0.0,0.0,0.0,0.0,0.0,0.0,0.0,0.0,0.0,0.0,0.0,0.0,0.0,0.0,0.0,0.0,0.0,0.0,0.0,0.0,0.0,0.0,0.0,0.0,0.0,0.0,0.0,0.0,0.0,0.0,0.0,0.0,0.0,0.0,0.0,0.0,0.0,0.0,0.0,0.0,0.0,0.0,0.0,0.0,0.0,0.0,0.0,0.0,0.0,0.0,0.0,0.0,0.0,0.0,0.0,0.0,0.0,0.0,0.0,0.0,0.0,0.0,0.0,0.0,0.0,0.0,0.0,0.0,0.0,0.0,0.0,0.0,0.0,0.0,0.0,0.0,0.0,0.0,0.0,0.0,0.0,0.0,0.0,0.0,0.0,0.0,0.0,0.0,0.0,0.0,0.0,0.0,0.0,0.0,0.0,0.0,0.0,0.0,0.0,0.0,0.0,0.0,0.0,0.0,0.0,0.0,0.0,0.0,0.0,0.0,0.0,0.0,0.0,0.0,0.0,0.0,0.0,0.0,0.0,0.0,0.0,0.0,0.0,0.0,0.0,0.0,0.0,0.0,0.0,0.0,0.0,0.0,0.0,0.0,0.0,0.0,0.0,0.0,0.0,0.0,0.0,0.0,0.0,0.0,0.0,0.0,0.0,0.0,0.0,0.0,0.0,0.0,0.0,0.0,0.0,0.0,0.0,0.0,0.0,0.0,0.0,0.0,0.0,0.0,0.0,0.0,0.0,0.0,0.0,0.0,0.0,0.0,0.0,0.0,0.0,0.0,0.0,0.0,0.0,0.0,0.0,0.0,0.0,0.0,0.0,0.0,0.0,0.0,0.0,0.0,0.0,0.0,0.0,0.0,0.0,0.0,0.0,0.0,0.0,0.0,0.0,0.0,0.0,0.0,0.0,0.0,0.0,0.0,0.0,0.0,0.0,0.0,0.0,0.0,0.0,0.0,0.0,0.0,0.0,0.0,0.0,0.0,0.0,0.0,0.0,0.0,0.0,0.0,0.0,0.0,0.0,0.0,0.0,0.0,0.0,0.0,0.0,0.0,0.0,0.0,0.0,0.0,0.0,0.0,0.0,0.0,0.0,0.0,0.0,0.0,0.0,0.0,0.0,0.0,0.0,0.0,0.0,0.0,0.0,0.0,0.0,0.0,0.0,0.0,0.0,0.0,0.0,0.0,0.0,0.0,0.0,0.0,0.0,0.0,0.0,0.0,0.0,0.0,0.0,0.0,0.0,0.0,0.0,0.0,0.0,0.0,0.0,0.0,0.0,0.0,0.0,0.0,0.0,0.0,0.0,0.0,0.0,0.0,0.0,0.0,0.0,0.0,0.0,0.0,0.0,0.0,0.0,0.0,0.0,0.0,0.0,0.0,0.0,0.0,0.0,0.0,0.0,0.0,0.0,0.0,0.0,0.0,0.0,0.0,0.0,0.0,0.0,0.0,0.0,0.0,0.0,0.0,0.0,0.0,0.0,0.0,0.0,0.0,0.0,0.0,0.0,0.0,0.0,0.0,0.0,0.0,0.0,0.0,0.0,0.0,0.0,0.0,0.0,0.0,0.0,0.0,0.0,0.0,0.0,0.0,0.0,0.0,0.0,0.0,0.0,0.0,0.0,0.0,0.0,0.0,0.0,0.0,0.0,0.0,0.0,0.0,0.0,0.0,0.0,0.0,0.0,0.0,0.0,0.0,0.0,0.0,0.0,0.0,0.0,0.0,0.0,0.0,0.0,0.0,0.0,0.0,0.0,0.0,0.0,0.0,0.0,0.0,0.0,0.0,0.0,0.0,0.0,0.0,0.0,0.0,0.0,0.0,0.0,0.0,0.0,0.0,0.0,0.0,0.0,0.0,0.0,0.0,0.0,0.0,0.0,0.0,0.0,0.0,0.0,0.0,0.0,0.0,0.0,0.0,0.0,0.0,0.0,0.0,0.0,0.0,0.0,0.0,0.0,0.0,0.0,0.0,0.0,0.0,0.0,0.0,0.0,0.0,0.0,0.0,0.0,0.0,0.0,0.0,0.0,0.0,0.0,0.0,0.0,0.0,0.0,0.0,0.0,0.0,0.0,0.0,0.0,0.0,0.0,0.0,0.0,0.0,0.0,0.0,0.0,0.0,0.0,0.0,0.0,0.0,0.0,0.0,0.0,0.0,0.0,0.0,0.0,0.0,0.0,0.0,0.0,0.0,0.0,0.0,0.0,0.0,0.0,0.0,0.0,0.0,0.0,0.0,0.0,0.0,0.0,0.0,0.0,0.0,0.0,0.0,0.0,0.0,0.0,0.0,0.0,0.0,0.0,0.0,0.0,0.0,0.0,0.0,0.0,0.0,0.0,0.0,0.0,0.0,0.0,0.0,0.0,0.0,0.0,0.0,0.0,0.0,0.0,0.0,0.0,0.0,0.0,0.0,0.0,0.0,0.0,0.0,0.0,0.0,0.0,0.0,0.0,0.0,0.0,0.0,0.0,0.0,0.0,0.0,0.0,0.0,0.0,0.0,0.0,0.0,0.0,0.0,0.0,0.0,0.0,0.0,0.0,0.0,0.0,0.0,0.0,0.0,0.0,0.0,0.0,0.0,0.0,0.0,0.0,0.0,0.0,0.0,0.0,0.0,0.0,0.0,0.0,0.0,0.0,0.0,0.0,0.0,0.0,0.0,0.0,0.0,0.0,0.0,0.0,0.0,0.0,0.0,0.0,0.0,0.0,0.0,0.0,0.0,0.0,0.0,0.0,0.0,0.0,0.0,0.0,0.0,0.0,0.0,0.0,0.0,0.0,0.0,0.0,0.0,0.0,0.0,0.0,0.0,0.0,0.0,0.0,0.0,0.0,0.0,0.0,0.0,0.0,0.0,0.0,0.0,0.0,0.0,0.0,0.0,0.0,0.0,0.0,0.0,0.0,0.0,0.0,0.0,0.0,0.0,0.0,0.0,0.0,0.0,0.0,0.0,0.0,0.0,0.0,0.0,0.0,0.0,0.0,0.0,0.0,0.0,0.0,0.0,0.0,0.0,0.0,0.0,0.0,0.0,0.0,0.0,0.0,0.0,0.0,0.0,0.0,0.0,0.0,0.0,0.0,0.0,0.0,0.0,0.0,0.0,0.0,0.0,0.0,0.0,0.0,0.0,0.0,0.0,0.0,0.0,0.0,0.0,0.0,0.0,0.0,0.0,0.0,0.0,0.0,0.0,0.0,0.0,0.0,0.0,0.0,0.0,0.0,0.0,0.0,0.0,0.0,0.0,0.0,0.0,0.0,0.0,0.0,0.0,0.0,0.0,0.0,0.0,0.0,0.0,0.0,0.0,0.0,0.0,0.0,0.0,0.0,0.0,0.0,0.0,0.0,0.0,0.0,0.0,0.0,0.0,0.0,0.0,0.0,0.0,0.0,0.0,0.0,0.0,0.0,0.0,0.0,0.0,0.0,0.0,0.0,0.0,0.0,0.0,0.0,0.0,0.0,0.0,0.0,0.0,0.0,0.0,0.0,0.0,0.0,0.0,0.0,0.0,0.0,0.0,0.0,0.0,0.0,0.0,0.0,0.0,0.0,0.0,0.0,0.0,0.0,0.0,0.0,0.0,0.0,0.0,0.0,0.0,0.0,0.0,0.0,0.0,0.0,0.0,0.0,0.0,0.0,0.0,0.0,0.0,0.0,0.0,0.0,0.0,0.0,0.0,0.0,0.0,0.0,0.0,0.0,0.0,0.0,0.0,0.0,0.0,0.0,0.0,0.0,0.0,0.0,0.0,0.0,0.0,0.0,0.0,0.0,0.0,0.0,0.0,1.588,0.0,0.0,0.0,0.0,0.0,0.0,0.0,0.0,0.0,0.0,0.0,0.0,0.0,0.0,0.0,0.0,0.0,0.0,0.0,0.0,0.0,0.0,0.0,0.0,0.0,0.0,0.0,1.7324,1.7686,1.8571,1.9042,1.9492,1.9918,2.0321,2.0547,2.0498,2.0493,2.0494,2.0507,2.0421,2.0593,2.0987,2.1375,2.1072,2.019,0.0,0.0,0.0,0.0,0.0,0.0,0.0,0.0,0.0,0.0,0.0,0.0,0.0,0.0,0.0,0.0,0.0,0.0,0.0,0.0,0.0,0.0,0.0,0.0,0.0,0.0,0.0,0.0,0.0,0.0,0.0,0.0,0.0,0.0,0.0,0.0,0.0,0.0,0.0,0.0,0.0,0.0,0.0,0.0,0.0,0.0,0.0,0.0,0.0,0.0,0.0,0.0,0.0,0.0,0.0,0.0,0.0,0.0,0.0,0.0,0.0,0.0,0.0,0.0,0.0,0.0,0.0,0.0,0.0,0.0,0.0,1.6414,0.0,0.0,0.0,0.0,0.0,0.0,0.0,0.0,0.0,0.0,0.0,0.0,0.0,0.0,0.0,0.0,0.0,0.0,0.0,0.0,0.0,0.0,0.0,1.6899,1.729,1.8153,1.8226,1.8607,1.947,1.9531,1.9843,2.0563,2.0534,2.0504,2.0498,2.0644,2.0722,2.0722,2.0809,2.1194,2.1841,2.2555,2.2103,0.0,0.0,0.0,0.0,0.0,0.0,0.0,0.0,0.0,0.0,0.0,0.0,0.0,0.0,0.0,0.0,0.0,0.0,0.0,0.0,0.0,0.0,0.0,0.0,0.0,0.0,0.0,0.0,0.0,0.0,0.0,0.0,0.0,0.0,0.0,0.0,0.0,0.0,0.0,0.0,0.0,0.0,0.0,0.0,0.0,0.0,0.0,0.0,0.0,0.0,0.0,0.0,0.0,0.0,0.0,0.0,0.0,0.0,0.0,0.0,0.0,0.0,0.0,0.0,0.0,1.7931,1.7887,1.7868,1.7868,1.7868,1.7868,1.7868,1.7735,1.7509,1.7509,0.0,0.0,0.0,0.0,0.0,0.0,0.0,0.0,0.0,0.0,0.0,0.0,0.0,0.0,0.0,0.0,0.0,0.0,0.0,0.0,0.0,1.778,1.817,1.9043,1.9132,1.9508,2.037,2.0429,2.0485,2.0582,2.055,2.0499,2.0498,2.1247,2.1636,2.1636,2.2325,2.2688,2.2728,2.2844,2.2743,2.2444,0.0,0.0,0.0,0.0,0.0,0.0,0.0,0.0,0.0,0.0,0.0,0.0,0.0,0.0,0.0,0.0,0.0,0.0,0.0,0.0,0.0,0.0,0.0,0.0,0.0,0.0,0.0,0.0,0.0,0.0,0.0,0.0,0.0,0.0,0.0,0.0,0.0,0.0,0.0,0.0,0.0,0.0,0.0,0.0,1.9091,1.9014,0.0,0.0,0.0,0.0,0.0,0.0,0.0,0.0,0.0,0.0,0.0,0.0,0.0,1.971,1.9714,1.97,1.962,1.9521,1.9443,1.9382,1.9326,1.9326,1.9326,1.9326,1.9326,0.0,1.7509,1.7509,0.0,0.0,0.0,0.0,0.0,0.0,0.0,0.0,0.0,0.0,0.0,0.0,0.0,0.0,0.0,0.0,0.0,0.0,0.0,0.0,0.0,1.869,1.9075,1.9946,2.0032,2.0193,2.0586,2.0604,2.0601,2.0601,2.1016,2.1238,2.1238,2.2085,2.2519,2.2469,2.3276,2.3633,2.3597,2.4079,2.4264,2.4192,2.4178,2.3896,2.3428,2.3361,0.0,0.0,0.0,0.0,0.0,0.0,0.0,0.0,0.0,0.0,0.0,0.0,0.0,0.0,0.0,0.0,0.0,0.0,0.0,0.0,0.0,0.0,0.0,0.0,0.0,0.0,0.0,0.0,0.0,0.0,0.0,0.0,0.0,0.0,0.0,0.0,0.0,0.0,0.0,2.051,2.0364,2.0308,2.0172,2.0045,0.0,0.0,0.0,0.0,0.0,0.0,0.0,0.0,0.0,2.0098,2.0022,2.0002,2.0002,2.001,1.9972,1.9916,1.977,1.9684,1.9651,1.9621,1.9601,1.9601,1.9601,1.9244,1.8677,1.8677,1.8677,1.8671,0.0,0.0,0.0,0.0,1.8361,1.8312,0.0,0.0,0.0,0.0,0.0,0.0,0.0,0.0,0.0,0.0,0.0,0.0,1.9445,1.9599,1.9884,2.0536,2.06,2.0604,2.0605,2.0604,2.0698,2.0891,2.1482,2.19,2.2133,2.2978,2.3479,2.3634,2.4232,2.4506,2.4452,2.5104,2.5367,2.5317,2.5312,2.4939,2.4332,2.426,2.4602,0.0,0.0,0.0,0.0,0.0,0.0,0.0,0.0,0.0,0.0,0.0,0.0,0.0,0.0,0.0,0.0,0.0,0.0,0.0,0.0,0.0,0.0,0.0,0.0,0.0,0.0,0.0,0.0,0.0,0.0,0.0,0.0,0.0,0.0,0.0,0.0,0.0,0.0,2.1474,2.1365,2.1262,2.1154,2.1034,0.0,0.0,0.0,0.0,0.0,0.0,2.088,2.0819,2.0745,2.0666,2.0608,2.0582,2.0582,2.0597,2.0577,2.0551,2.0408,2.0324,2.0287,2.0229,2.0188,2.0188,2.0167,2.016,2.012,1.9756,1.9601,1.9594,1.9537,1.9476,1.9415,1.9328,1.9265,1.923,0.0,0.0,0.0,0.0,0.0,0.0,0.0,0.0,0.0,0.0,0.0,1.9475,2.0342,2.0484,2.0556,2.0599,2.0603,2.0605,2.0605,2.0603,2.0931,2.1705,2.1772,2.2191,2.3025,2.3829,2.4602,2.5379,2.5418,2.5406,2.5341,2.538,2.5397,2.5394,2.5339,2.5271,2.5227,2.5157,2.5152,2.5206,0.0,0.0,0.0,0.0,0.0,0.0,0.0,0.0,0.0,0.0,0.0,0.0,0.0,0.0,0.0,0.0,0.0,0.0,0.0,0.0,0.0,0.0,0.0,0.0,0.0,0.0,0.0,0.0,0.0,0.0,0.0,0.0,0.0,0.0,0.0,0.0,0.0,0.0,0.0,2.1138,2.1052,0.0,0.0,0.0,0.0,2.1644,2.2226,2.2536,2.2395,2.2388,2.232,2.2185,2.2185,2.2178,2.2178,2.2178,2.2143,2.2089,2.2082,2.2013,2.1881,2.1802,2.1782,2.1782,2.1726,2.1689,2.1573,2.0177,1.9601,1.9594,1.9537,1.95,1.9473,1.9348,1.9302,1.9295,0.0,0.0,0.0,0.0,0.0,0.0,0.0,0.0,1.9022,1.9918,2.0047,2.0148,2.0471,2.0566,2.0596,2.0601,2.0603,2.084,2.1404,2.1442,2.1809,2.2599,2.3175,2.3861,2.4692,2.499,2.5267,2.5495,2.6056,2.6296,2.6249,2.6803,2.7053,2.7017,2.6985,2.6963,2.6893,2.574,2.5234,2.5198,2.5206,2.5204,0.0,0.0,0.0,0.0,0.0,0.0,0.0,0.0,0.0,0.0,0.0,0.0,0.0,0.0,0.0,0.0,0.0,0.0,0.0,0.0,0.0,0.0,0.0,0.0,0.0,0.0,0.0,0.0,0.0,0.0,0.0,0.0,0.0,0.0,0.0,0.0,0.0,2.2655,2.2555,0.0,2.2288,2.2884,2.3228,2.3115,2.3733,2.4057,2.3915,2.3867,2.3811,2.3722,2.3722,2.3722,2.3722,2.3722,2.3707,2.3684,2.3632,2.3585,2.3537,2.3478,2.3447,2.3406,2.2839,2.2577,2.2486,2.1455,2.1019,2.1012,2.0981,2.0945,2.0911,2.0862,2.081,2.0782,0.0,0.0,0.0,0.0,0.0,0.0,0.0,0.0,1.9854,2.0421,2.0506,2.0507,2.0539,2.0571,2.0598,2.0601,2.0878,2.1289,2.1852,2.2144,2.2666,2.3491,2.4378,2.5079,2.5591,2.5898,2.601,2.5932,2.6816,2.7214,2.7183,2.7745,2.7974,2.7926,2.7911,2.7893,2.7812,2.6665,2.6137,2.6074,2.608,2.5902,2.5636,0.0,0.0,0.0,0.0,0.0,0.0,0.0,0.0,0.0,0.0,0.0,0.0,0.0,0.0,0.0,0.0,0.0,0.0,0.0,0.0,0.0,0.0,0.0,0.0,0.0,0.0,0.0,0.0,0.0,0.0,0.0,0.0,0.0,0.0,0.0,2.3954,2.3851,2.3932,2.3961,2.3828,2.4192,2.4386,2.4275,2.4669,2.4842,2.4701,2.4637,2.4578,2.4498,2.4498,2.4498,2.4498,2.4498,2.4498,2.4498,2.4444,2.4438,2.443,2.436,2.4321,2.4304,2.3699,2.3443,2.3394,2.281,2.2572,2.2515,2.1995,2.1775,2.1723,2.1717,2.1672,2.1635,0.0,0.0,0.0,0.0,0.0,0.0,0.0,1.9904,2.0503,2.05,2.0498,2.0532,2.0585,2.0597,2.0602,2.0602,2.1406,2.1913,2.195,2.2689,2.3521,2.44,2.5241,2.569,2.5648,2.648,2.6886,2.6845,2.7718,2.8142,2.8136,2.8109,2.8086,2.8082,2.8003,2.7983,2.7981,2.7986,2.794,2.7874,0.0,0.0,2.6546,0.0,0.0,0.0,0.0,0.0,0.0,0.0,0.0,0.0,0.0,0.0,0.0,0.0,0.0,0.0,0.0,0.0,0.0,0.0,0.0,0.0,0.0,0.0,0.0,0.0,0.0,0.0,0.0,0.0,0.0,0.0,0.0,0.0,2.3949,2.4311,2.4616,2.4535,2.5048,2.534,2.5209,2.5163,2.5112,2.504,2.4984,2.491,2.4769,2.4706,2.4646,2.4566,2.4566,2.4566,2.4566,2.4566,2.4566,2.4566,2.4566,2.4566,2.4566,2.4498,2.4474,2.4467,2.4371,2.434,2.4332,2.4179,2.4106,2.3948,2.2448,2.1855,2.1831,2.1756,2.1726,2.1694,0.0,0.0,0.0,0.0,0.0,0.0,0.0,2.0294,2.0497,2.0491,2.0507,2.0539,2.059,2.0598,2.0602,2.0604,2.1406,2.2147,2.2731,2.3567,2.4438,2.5299,2.5574,2.596,2.6538,2.6788,2.7176,2.7732,2.8618,2.9024,2.8973,2.9599,2.986,2.982,2.9788,2.9795,2.978,2.9726,2.9707,0.0,0.0,0.0,2.7525,0.0,0.0,0.0,0.0,0.0,0.0,0.0,0.0,0.0,0.0,0.0,0.0,0.0,0.0,0.0,0.0,0.0,0.0,0.0,0.0,0.0,0.0,0.0,0.0,0.0,0.0,0.0,0.0,0.0,0.0,0.0,0.0,2.5509,2.4653,2.5076,2.5441,2.5313,2.5359,2.534,2.5209,2.5624,2.5866,2.5799,2.6194,2.6408,2.6367,2.6205,2.6107,2.6099,2.6099,2.6099,2.6099,2.6099,2.6099,2.6099,2.6099,2.6099,2.609,2.6074,2.6074,2.6024,2.5436,2.5176,2.5118,2.45,2.425,2.4184,2.3617,2.3073,2.26,2.2577,2.2231,2.1775,0.0,0.0,0.0,0.0,0.0,0.0,0.0,2.0463,2.0509,2.0498,2.0492,2.0524,2.0595,2.06,2.0759,2.1112,2.1914,2.2752,2.359,2.4463,2.5175,0.0,0.0,2.6454,2.6897,2.7629,2.8194,2.8649,2.9521,2.991,2.9893,3.0376,3.0582,3.053,3.0506,3.0508,3.0495,3.0469,0.0,0.0,0.0,0.0,2.8393,2.8393,2.7873,2.714,2.714,2.6579,2.5846,2.5846,0.0,0.0,0.0,0.0,0.0,0.0,0.0,0.0,0.0,0.0,0.0,0.0,0.0,0.0,0.0,0.0,0.0,0.0,0.0,0.0,0.0,0.0,0.0,0.0,2.6151,2.6363,2.5841,2.6021,2.6195,2.6103,2.6219,2.6257,2.617,2.6469,2.6768,2.704,2.736,2.7638,2.7904,2.7785,2.769,2.7664,2.7664,2.7664,2.7664,2.7664,2.7495,2.7165,2.7165,2.6996,2.67,2.67,2.67,2.6674,2.6202,2.5999,2.5957,2.5471,2.5261,0.0,0.0,0.0,0.0,0.0,2.3089,2.2725,0.0,0.0,0.0,0.0,0.0,0.0,0.0,2.0493,2.0499,2.0504,2.0514,2.0526,2.0599,2.0601,2.0954,2.1816,2.2636,2.3512,2.4488,2.5278,0.0,2.5846,2.6594,2.7067,2.7184,2.8707,2.953,2.9552,3.0316,3.0704,3.0698,3.0722,3.0742,3.0755,3.0782,3.0796,3.0796,0.0,0.0,0.0,0.0,0.0,2.9245,2.9242,2.8739,2.8047,2.8047,2.7489,2.6736,2.6637,0.0,0.0,0.0,0.0,0.0,0.0,0.0,0.0,0.0,0.0,0.0,0.0,0.0,0.0,0.0,0.0,0.0,0.0,0.0,0.0,0.0,0.0,0.0,0.0,2.6892,2.7307,2.7243,2.713,2.7065,2.7065,2.7401,2.7685,2.7739,2.7634,2.7832,2.8472,2.8457,2.8665,2.9194,0.0,0.0,0.0,0.0,2.8993,2.8993,2.8993,2.8645,2.7942,2.7942,2.7545,2.6826,2.6826,2.6784,2.67,2.67,2.67,2.6691,2.6632,2.6606,2.6471,2.5001,2.4352,2.423,2.4091,2.4033,2.4033,0.0,0.0,0.0,0.0,0.0,0.0,0.0,2.0506,2.049,2.0493,2.0541,2.059,2.06,2.0601,2.0955,2.1816,2.2635,2.3764,0.0,0.0,2.6008,2.6723,2.6906,2.7632,2.8975,2.9322,2.9812,3.0442,3.063,3.071,3.0719,3.1354,3.1652,3.1672,3.2362,3.268,3.2638,0.0,0.0,0.0,0.0,0.0,3.0155,3.0146,2.9621,2.8876,2.8876,2.8335,2.7546,2.6832,2.6483,2.6233,2.5519,0.0,0.0,0.0,0.0,0.0,0.0,0.0,0.0,0.0,0.0,0.0,0.0,0.0,0.0,0.0,0.0,0.0,0.0,0.0,0.0,2.72,2.7721,2.8133,2.808,2.8404,2.8669,2.8669,2.8584,2.8749,2.9288,2.9276,2.9254,2.9282,2.9231,2.9231,2.9368,2.9201,2.9086,2.9085,2.9038,2.8993,2.8993,2.8993,2.8925,2.8764,0.0,0.0,2.7587,2.7587,2.7258,2.67,2.67,2.67,2.67,2.6691,2.6683,2.659,2.5589,2.5179,2.5071,2.4468,2.4243,2.4243,0.0,0.0,0.0,0.0,0.0,0.0,0.0,2.0498,2.0499,2.0496,2.0562,2.0591,2.0601,2.0601,2.1111,2.2383,2.3671,2.4779,0.0,2.5704,2.6089,2.6957,2.7399,2.8205,2.9469,2.9931,3.0349,3.074,3.0712,3.0695,3.0727,3.1553,3.1928,3.1947,3.28,3.3199,0.0,0.0,0.0,0.0,0.0,0.0,3.0452,3.0408,3.0122,2.9759,2.9742,2.922,2.8374,2.7527,2.6967,2.6442,2.5562,2.5273,2.5247,0.0,0.0,0.0,0.0,0.0,0.0,0.0,0.0,0.0,0.0,0.0,0.0,0.0,0.0,2.6832,2.7099,0.0,2.8148,2.799,2.8531,2.8984,2.8905,2.9397,2.9588,2.9147,2.9259,2.9481,2.9758,2.9744,2.9807,3.0084,3.0066,3.0168,3.0476,3.0419,3.0346,3.0308,3.0198,3.0142,3.0142,3.0112,2.9914,2.955,2.955,2.9144,2.8399,2.8399,2.7977,2.7241,2.7241,2.7046,2.67,2.67,2.67,2.6657,2.6219,2.6026,2.595,2.5556,2.5405,2.5405,0.0,0.0,0.0,0.0,0.0,0.0,0.0,2.0507,2.0505,2.0496,2.0564,2.0593,2.0601,2.0602,2.1268,2.2949,2.4686,0.0,0.0,2.5707,2.6151,2.7212,2.7852,2.8681,2.9734,3.0443,3.0807,3.0804,3.0753,3.0718,3.0719,3.1775,3.2225,3.2229,3.3257,3.371,0.0,0.0,0.0,0.0,0.0,0.0,3.0506,3.0433,3.0406,3.0392,3.0402,2.9951,2.9239,2.8412,2.7566,2.6692,2.5837,2.5389,2.5206,2.5201,2.5186,0.0,0.0,0.0,0.0,0.0,0.0,0.0,0.0,0.0,2.6213,2.6961,2.7589,2.7966,2.7917,2.8408,2.8737,2.8524,2.9112,2.9576,2.9521,3.0147,3.0376,2.965,2.9916,3.0195,3.0262,3.0203,3.0378,3.0896,3.0921,3.1126,3.1618,3.1607,3.1578,3.1509,3.1406,3.1332,3.1295,3.1252,3.0905,3.0301,3.0301,2.9922,2.9204,2.9204,2.8772,2.801,2.7874,2.7376,2.67,2.67,2.67,2.67,2.67,2.6666,2.6615,2.6555,2.6529,2.6529,0.0,0.0,0.0,0.0,0.0,0.0,0.0,0.0,2.0508,2.0497,2.0552,2.0599,2.0601,2.0603,2.1269,2.2947,0.0,0.0,2.5707,2.5707,2.6425,2.8075,2.8186,2.8978,3.0623,3.0747,3.0794,3.0804,3.0784,3.0755,3.0737,3.2372,3.314,3.3218,3.4808,0.0,0.0,0.0,0.0,0.0,0.0,0.0,3.0584,3.0508,3.0457,3.0395,3.0392,3.0334,3.0115,2.9258,2.8431,2.7599,2.6726,2.5871,2.5206,2.5201,0.0,2.5113,2.5107,2.5583,2.6059,2.5986,2.6447,2.6943,0.0,0.0,2.6998,2.7721,2.7899,2.8077,2.8584,2.8743,2.8737,2.8524,2.9112,2.9576,2.9521,3.0639,3.1408,3.1251,3.1172,3.1359,3.1882,3.1873,3.1811,3.1764,3.1717,3.1714,3.1764,3.1654,3.1598,3.1589,3.1519,3.1416,3.1295,3.1286,3.122,3.1082,3.1082,3.0683,2.998,2.998,2.9567,2.884,2.8111,2.7376,2.67,2.67,2.67,2.67,2.67,2.6691,2.6691,2.6691,2.6683,2.6683,0.0,0.0,0.0,0.0,0.0,0.0,0.0,0.0,0.0,2.0497,2.0553,2.06,2.0601,2.1464,2.2344,0.0,0.0,0.0,2.5707,2.5707,2.625,2.7492,2.7996,2.8828,3.0029,3.0545,3.0791,3.0807,3.0799,3.0788,3.0776,3.198,3.2535,3.2599,3.3812,0.0,0.0,0.0,0.0,0.0,0.0,0.0,3.0597,3.0573,3.0513,3.0457,3.0406,3.0406,0.0,0.0,2.8569,2.7733,2.6825,2.5915,2.5204,2.5201,2.5512,0.0,2.6339,2.6638,0.0,0.0,2.6942,2.7243,2.7653,2.7665,2.7818,2.8553,2.8655,2.8641,2.8779,2.8798,2.8894,0.0,2.9882,3.0491,3.0905,3.179,3.2371,3.2269,3.2136,3.2085,3.2188,3.217,3.209,3.1903,3.1875,3.1847,3.1809,3.1746,3.1718,3.1718,3.1606,3.154,3.1485,3.1435,3.1404,3.1366,3.1291,3.1101,3.0803,3.0763,3.0345,2.9567,2.834,2.7621,2.7308,2.6877,2.67,2.67,2.67,2.67,2.67,2.67,2.67,2.67,0.0,0.0,0.0,0.0,0.0,0.0,0.0,0.0,0.0,0.0,2.0574,2.0601,2.0603,2.1894,2.2851,0.0,0.0,0.0,0.0,2.5707,2.6095,2.6969,2.759,0.0,2.9473,3.0127,3.0551,3.0806,3.0796,3.0806,3.0815,3.1648,3.2028,3.2031,3.2905,0.0,0.0,0.0,0.0,0.0,0.0,0.0,3.0634,3.0604,3.0575,3.0513,3.0457,3.0428,0.0,0.0,2.8901,2.8115,2.7407,2.6598,2.591,2.5863,2.6254,2.6771,2.7267,0.0,0.0,2.756,2.7659,2.7904,2.8403,2.8462,2.8547,2.9094,2.9123,2.9015,2.8858,2.881,2.9034,2.9715,3.043,3.116,3.1913,3.2599,3.2965,3.2846,3.2731,3.2636,3.2617,3.2564,3.2467,3.2323,3.2451,3.2507,3.245,3.2439,3.243,3.243,3.2121,3.1945,3.1933,3.1669,3.1527,3.1498,3.1397,3.1361,3.1351,3.1271,3.0823,3.0052,2.8704,2.8019,2.7756,2.7038,2.6758,2.6758,2.6775,2.6783,2.6783,2.6783,2.675,2.6708,0.0,0.0,0.0,0.0,0.0,0.0,0.0,0.0,0.0,0.0,0.0,0.0,0.0,0.0,0.0,0.0,0.0,0.0,0.0,2.5709,2.6098,2.6957,2.7029,2.7805,2.9463,2.9532,2.9957,3.0798,3.0798,3.0792,3.0819,3.1695,3.2052,3.2042,3.2905,3.3303,0.0,0.0,0.0,0.0,0.0,0.0,3.0694,3.0615,3.0597,3.0589,3.0513,0.0,0.0,0.0,2.9781,2.9058,2.8958,2.8378,0.0,2.7571,2.7456,0.0,0.0,0.0,2.8449,2.8387,2.891,2.9426,2.9362,2.9251,2.9163,2.9194,2.9084,2.8988,2.8917,2.8846,2.9046,2.9784,3.0457,3.1181,3.1986,3.2619,3.2971,3.2908,3.2838,3.3027,0.0,3.3485,3.3368,3.3342,3.3837,3.4129,3.4129,3.4076,3.4017,3.4017,3.3266,3.2838,3.275,3.1985,3.1559,3.1498,3.1498,3.1498,3.1498,3.1351,3.0878,3.0147,2.9317,2.8518,2.7748,2.714,2.6893,2.6909,2.6975,2.6983,2.6983,2.6983,2.6867,2.6725,0.0,0.0,0.0,0.0,0.0,0.0,0.0,0.0,0.0,0.0,0.0,0.0,0.0,0.0,0.0,0.0,0.0,0.0,0.0,2.5709,2.5824,2.6117,2.6682,2.7266,2.7832,2.8937,2.9635,2.9947,3.0528,3.0797,3.0812,3.1104,3.1237,3.1229,3.1513,3.1638,3.1622,3.1325,0.0,0.0,3.0811,3.0697,3.0699,3.0671,3.0642,3.0597,0.0,0.0,0.0,0.0,2.982,2.9096,2.9016,0.0,0.0,2.8275,2.832,2.8361,0.0,0.0,2.9274,2.9153,2.9282,2.9412,2.9357,2.9254,2.9184,2.9134,2.905,2.8988,2.8917,2.8846,2.9229,3.0486,3.0842,3.1425,3.2704,3.3077,3.3137,3.2979,3.3374,0.0,0.0,0.0,0.0,3.4103,3.4308,3.4343,3.4208,3.4186,3.4155,3.4103,3.3845,3.3428,3.2873,3.2605,3.2207,3.1698,3.1606,3.1547,3.1498,3.1452,3.1306,3.1024,3.0265,2.9463,2.8688,2.7981,2.7401,2.6975,2.6983,2.6991,2.6991,2.6991,2.6958,2.6917,0.0,0.0,0.0,0.0,0.0,0.0,0.0,0.0,0.0,0.0,0.0,0.0,0.0,0.0,0.0,0.0,0.0,0.0,0.0,0.0,2.5708,2.5707,2.6234,2.6684,2.6997,2.8065,2.8766,2.9077,2.9932,3.0357,3.0334,3.0647,3.0802,3.0798,3.0791,3.0801,3.0807,3.0801,3.0788,3.0749,3.0737,3.072,3.0699,3.0699,3.0473,0.0,0.0,0.0,0.0,0.0,3.004,2.9555,2.9493,2.9072,2.8705,2.9142,2.9186,2.9192,2.967,2.9723,2.9636,2.9535,2.9453,2.9377,2.9328,2.9246,2.9173,2.9106,2.9051,2.8994,2.894,2.8881,2.9338,3.0896,3.1084,3.1578,3.3128,3.3325,3.3239,3.3057,3.3679,3.4196,0.0,0.0,0.0,3.5001,3.5206,3.5268,3.5131,3.5052,3.5,3.4957,3.4658,3.4241,3.3731,3.3179,3.2524,3.18,3.1709,3.1643,3.1612,3.1557,3.1538,3.1487,3.0725,2.9937,2.9143,2.8459,2.7715,2.7031,2.708,2.7114,2.7114,2.7114,2.7114,2.7106,0.0,0.0,0.0,0.0,0.0,0.0,0.0,0.0,0.0,0.0,0.0,0.0,0.0,0.0,0.0,0.0,0.0,0.0,0.0,0.0,0.0,2.5708,2.5707,2.6098,2.6919,2.6977,2.7406,2.8224,2.9104,2.9491,2.9464,3.0285,3.0691,3.0741,3.0721,3.0754,3.0803,3.0802,3.0769,3.0729,3.0728,0.0,3.0576,3.0563,0.0,0.0,0.0,0.0,0.0,0.0,0.0,0.0,0.0,3.0176,3.0099,3.0099,2.9955,2.9803,2.9803,2.9696,2.9588,2.9526,2.9448,2.9372,2.9304,2.9246,2.9173,2.91,2.9051,2.8999,0.0,0.0,2.9393,3.0949,3.1144,3.1633,3.3183,3.3344,3.3262,0.0,0.0,0.0,0.0,0.0,0.0,3.6068,0.0,3.6819,3.6809,3.6626,3.6513,3.6502,3.569,3.5242,3.5207,3.3662,3.2559,3.1852,3.1817,3.18,3.18,3.1671,3.1607,3.1573,3.0796,2.999,2.9177,2.8596,2.7865,2.7127,2.7266,2.7315,2.7305,2.7305,2.7305,2.729,0.0,0.0,0.0,0.0,0.0,0.0,0.0,0.0,0.0,0.0,0.0,0.0,0.0,0.0,0.0,0.0,0.0,0.0,0.0,0.0,0.0,0.0,0.0,0.0,0.0,0.0,0.0,0.0,0.0,2.8614,2.8612,2.8828,2.9276,0.0,2.9854,3.0182,3.0804,3.0809,3.0427,2.9837,0.0,2.943,2.8845,0.0,0.0,0.0,0.0,0.0,0.0,0.0,0.0,0.0,0.0,2.9695,3.0099,3.0099,2.9955,2.9803,2.9803,2.9673,2.9512,2.9502,2.9446,2.9368,2.9256,2.9205,2.9162,2.9057,2.9017,2.8999,0.0,0.0,0.0,3.0949,3.1144,0.0,3.3183,3.3396,0.0,3.3269,0.0,3.521,3.5316,3.6372,0.0,0.0,3.696,3.6908,3.6819,3.6705,3.6602,3.6502,3.6191,3.5759,3.5207,3.3662,3.2817,3.261,3.2059,3.18,3.18,3.1755,3.1746,3.1746,3.1538,3.0676,2.9412,2.9257,2.8454,2.7337,2.736,2.7407,2.7452,2.7452,2.7452,2.7434,0.0,0.0,0.0,0.0,0.0,0.0,0.0,0.0,0.0,0.0,0.0,0.0,0.0,0.0,0.0,0.0,0.0,0.0,0.0,0.0,0.0,0.0,0.0,0.0,0.0,0.0,0.0,0.0,0.0,0.0,0.0,2.8128,2.8557,2.9026,2.8982,2.9233,2.9697,0.0,0.0,0.0,0.0,0.0,0.0,0.0,0.0,0.0,0.0,0.0,0.0,0.0,0.0,2.8995,2.8995,2.9501,3.0099,3.0099,0.0,2.9803,2.9803,2.965,2.9497,2.9497,2.9441,2.9352,2.9222,2.9194,2.9156,2.9034,2.8999,0.0,0.0,0.0,0.0,0.0,0.0,0.0,3.3234,3.3415,3.3508,0.0,3.4811,0.0,3.5903,3.6818,3.7373,0.0,3.7135,3.6999,3.6881,3.6788,3.6705,3.6592,3.6454,3.6008,3.5207,3.4024,3.3248,3.2894,3.2145,3.1827,3.1847,3.1847,3.1874,3.192,0.0,3.1071,2.9634,2.9634,2.8767,2.7436,2.7436,2.7475,2.7503,2.7503,2.7503,2.7503,0.0,0.0,0.0,0.0,0.0,0.0,0.0,0.0,0.0,0.0,0.0,0.0,0.0,0.0,0.0,0.0,0.0,0.0,0.0,0.0,0.0,0.0,0.0,0.0,0.0,0.0,0.0,0.0,0.0,0.0,0.0,0.0,0.0,0.0,0.0,0.0,0.0,0.0,0.0,0.0,0.0,0.0,0.0,0.0,0.0,0.0,0.0,0.0,0.0,0.0,2.6855,2.8689,2.8807,2.9348,2.9943,3.008,2.9955,2.9803,2.9803,2.965,2.9497,2.9497,2.9441,2.9376,2.9246,2.9218,2.9156,2.9045,0.0,2.8999,2.8999,2.8999,2.9477,3.0905,0.0,3.1694,3.3135,3.3364,3.3671,3.4416,3.5107,3.579,3.6529,3.7112,3.7392,3.7306,3.7193,3.7079,3.6989,3.6861,3.6768,3.6702,3.6592,3.617,3.5403,3.4557,3.3797,3.3089,3.2243,3.1874,3.1939,3.1939,3.1984,3.2099,3.2099,0.0,2.9802,2.9802,2.8905,2.7511,2.7509,2.7542,2.7549,2.7564,2.7564,2.7572,0.0,0.0,0.0,0.0,0.0,0.0,0.0,0.0,0.0,0.0,2.0605,2.0605,0.0,0.0,0.0,0.0,0.0,0.0,0.0,0.0,0.0,0.0,0.0,0.0,0.0,0.0,0.0,0.0,0.0,0.0,0.0,0.0,0.0,0.0,0.0,0.0,0.0,0.0,0.0,0.0,0.0,0.0,0.0,0.0,0.0,0.0,0.0,0.0,0.0,0.0,2.6082,2.7063,2.7778,2.8488,2.917,2.9886,2.9955,2.9803,2.9803,2.965,2.9497,2.9497,2.9441,2.9381,2.9307,2.924,0.0,0.0,0.0,2.8999,2.8999,2.8999,0.0,3.0161,0.0,0.0,0.0,0.0,3.3693,0.0,0.0,0.0,0.0,0.0,0.0,0.0,0.0,3.7192,3.7017,3.6861,3.6768,3.6702,3.6681,3.6591,3.6442,3.5052,3.4279,3.4123,3.2715,3.2046,3.2073,3.2073,3.2082,3.2099,3.2099,0.0,2.9802,2.9802,2.892,2.7594,2.7634,2.7736,2.7845,2.7882,2.7911,2.7911,0.0,0.0,0.0,0.0,0.0,0.0,0.0,2.0605,2.0605,2.0605,2.0605,2.0605,2.0605,2.0605,0.0,0.0,0.0,0.0,0.0,0.0,0.0,0.0,0.0,0.0,0.0,0.0,0.0,0.0,0.0,0.0,0.0,0.0,0.0,0.0,0.0,0.0,0.0,0.0,0.0,0.0,0.0,0.0,0.0,0.0,0.0,0.0,0.0,0.0,0.0,0.0,2.5589,2.5973,2.6855,2.7889,2.8878,2.9303,2.9606,2.9803,2.9803,2.965,2.9497,2.9497,2.9441,2.9386,2.9318,0.0,0.0,0.0,0.0,2.8999,2.8999,0.0,0.0,0.0,0.0,0.0,0.0,0.0,0.0,0.0,0.0,0.0,0.0,0.0,0.0,0.0,0.0,3.7211,3.7017,3.6861,3.6788,3.6738,3.6722,3.6702,3.6702,3.518,3.4397,3.4379,3.2839,3.2117,3.2144,3.2144,3.2205,3.2301,3.2301,0.0,3.0069,3.0069,2.9171,2.781,2.7836,2.7896,2.7968,2.7993,2.8007,2.8007,0.0,0.0,0.0,0.0,0.0,0.0,0.0,2.0605,2.0605,2.0605,2.0605,2.0605,2.0605,2.0605,2.0605,0.0,0.0,0.0,0.0,0.0,0.0,0.0,0.0,0.0,0.0,0.0,0.0,0.0,0.0,0.0,0.0,0.0,0.0,0.0,0.0,0.0,0.0,0.0,0.0,0.0,0.0,0.0,0.0,0.0,0.0,0.0,0.0,0.0,0.0,0.0,2.5303,2.5327,2.6011,2.7163,2.8326,2.8687,2.9143,2.9577,2.9747,2.9654,2.9526,2.9497,2.9446,2.9396,2.9339,2.9267,0.0,0.0,2.9074,2.9022,2.9005,0.0,0.0,0.0,0.0,0.0,0.0,0.0,0.0,0.0,0.0,0.0,0.0,0.0,0.0,0.0,0.0,0.0,3.7017,3.6908,3.6831,3.6831,3.6796,3.6755,3.6755,3.5221,3.4463,3.4446,3.2921,3.2214,3.2258,3.2275,3.2379,3.2506,3.2356,0.0,0.0,3.0118,2.924,2.8007,2.8021,2.8035,2.8049,2.8071,2.8067,2.8099,0.0,0.0,0.0,0.0,0.0,0.0,0.0,2.0605,2.0605,2.0605,2.0605,2.0605,2.0605,2.0605,2.0605,0.0,0.0,0.0,0.0,0.0,0.0,0.0,0.0,0.0,0.0,0.0,0.0,0.0,0.0,0.0,0.0,0.0,0.0,0.0,0.0,0.0,0.0,0.0,0.0,0.0,0.0,0.0,0.0,0.0,0.0,0.0,0.0,0.0,0.0,0.0,0.0,2.5212,2.5288,2.5889,2.6826,2.8345,0.0,0.0,2.9596,2.9696,2.9583,2.9526,2.9448,2.9406,2.9383,0.0,0.0,2.9194,2.9147,2.9061,2.9011,2.8999,0.0,0.0,0.0,0.0,0.0,0.0,0.0,0.0,0.0,0.0,0.0,0.0,0.0,0.0,0.0,0.0,3.6989,3.6997,3.6987,3.6987,3.6978,3.6978,3.6978,3.5441,3.4669,3.4652,3.3169,3.2473,3.2464,3.2548,3.2581,3.2562,3.1881,0.0,0.0,2.9508,2.8729,2.8014,2.8071,2.8126,2.8189,2.8246,2.8307,2.8353,0.0,0.0,0.0,0.0,0.0,0.0,2.0605,2.0605,2.0605,2.0605,2.0605,2.0605,2.0605,2.0605,2.0605,2.0605,0.0,0.0,0.0,0.0,0.0,0.0,0.0,0.0,0.0,0.0,0.0,0.0,0.0,0.0,0.0,0.0,0.0,0.0,0.0,0.0,0.0,0.0,0.0,0.0,0.0,0.0,0.0,0.0,0.0,0.0,0.0,0.0,0.0,0.0,0.0,0.0,2.5192,2.5366,0.0,0.0,2.757,2.795,2.8212,2.8237,2.8136,2.8063,2.7993,2.8085,2.8568,0.0,0.0,2.9169,2.9162,2.9084,2.9074,2.9034,2.8999,0.0,0.0,0.0,0.0,0.0,0.0,0.0,0.0,0.0,0.0,0.0,0.0,0.0,0.0,0.0,3.7182,3.7066,3.7007,3.7007,3.7007,3.7007,3.7007,3.5508,3.4762,3.4744,3.3264,3.2556,3.2556,3.2589,3.2639,3.2679,3.189,0.0,0.0,2.9668,2.8912,2.8239,2.8277,2.8304,2.8324,2.834,2.8384,2.8411,0.0,0.0,0.0,0.0,0.0,2.0605,2.0605,2.0605,2.0605,2.0605,2.0605,2.0605,2.0605,2.0605,2.0605,2.0605,2.0605,0.0,0.0,0.0,0.0,0.0,0.0,0.0,0.0,0.0,0.0,0.0,0.0,0.0,0.0,0.0,0.0,0.0,0.0,0.0,0.0,0.0,0.0,0.0,0.0,0.0,0.0,0.0,0.0,0.0,0.0,0.0,0.0,0.0,0.0,0.0,0.0,0.0,0.0,0.0,2.6658,2.7082,2.7274,2.7273,2.7209,2.7157,2.7078,2.7177,0.0,0.0,2.8206,2.8783,2.9023,2.9117,2.9095,2.9051,2.8999,0.0,0.0,0.0,0.0,0.0,0.0,0.0,0.0,0.0,0.0,0.0,0.0,0.0,0.0,0.0,3.7297,3.7163,3.7095,3.7095,3.7095,3.7095,3.7095,3.5601,3.4862,3.4844,3.3367,3.2655,3.2655,3.2696,3.2771,3.2808,3.1808,0.0,0.0,2.96,2.8874,2.8411,2.8411,2.8406,2.8426,2.8426,2.8432,2.8452,0.0,0.0,0.0,0.0,0.0,0.0,2.0605,2.0605,2.0605,2.0605,2.0605,2.0605,2.0605,2.0605,2.0605,2.0605,2.0605,0.0,0.0,0.0,0.0,0.0,0.0,0.0,0.0,0.0,0.0,0.0,0.0,0.0,0.0,0.0,0.0,0.0,0.0,0.0,0.0,0.0,0.0,0.0,0.0,0.0,0.0,0.0,0.0,0.0,0.0,0.0,0.0,0.0,0.0,0.0,0.0,0.0,0.0,0.0,2.6258,2.6396,2.7176,2.7351,2.7274,2.7213,2.715,2.7083,0.0,0.0,2.8076,2.8029,2.8648,2.9173,2.9106,2.9051,2.8999,2.8999,0.0,0.0,0.0,0.0,0.0,0.0,0.0,0.0,0.0,0.0,0.0,0.0,0.0,0.0,3.7297,3.7297,3.7305,3.7305,3.7305,3.7305,3.7305,3.5774,3.5004,3.4987,3.3504,3.2807,3.2797,3.2942,3.3005,0.0,0.0,0.0,0.0,2.9076,2.8411,2.8411,2.8411,2.8439,2.8492,2.8492,2.8549,2.8593,0.0,0.0,0.0,0.0,0.0,0.0,0.0,2.0605,2.0605,2.0605,2.0605,2.0605,2.0605,2.0605,2.0605,2.0605,2.0605,0.0,0.0,0.0,0.0,0.0,0.0,0.0,0.0,0.0,0.0,0.0,0.0,0.0,0.0,0.0,0.0,0.0,0.0,0.0,0.0,0.0,0.0,0.0,0.0,0.0,0.0,0.0,0.0,0.0,0.0,0.0,0.0,0.0,0.0,0.0,0.0,0.0,0.0,2.5418,2.5425,0.0,2.5691,2.5676,2.5597,2.5562,2.5509,2.5585,2.6061,0.0,2.7498,2.7964,2.8706,2.9246,2.9173,2.9106,2.9228,2.9732,3.0705,0.0,0.0,0.0,0.0,0.0,0.0,0.0,0.0,0.0,0.0,0.0,0.0,0.0,3.7512,3.7512,3.7447,3.7297,3.7297,3.7297,3.7297,3.582,3.5083,3.5109,3.3633,3.2955,3.3011,3.3057,3.3063,0.0,0.0,0.0,0.0,2.912,2.8497,2.853,2.853,2.8549,2.8574,2.8613,2.8644,2.8663,0.0,0.0,0.0,0.0,0.0,0.0,0.0,2.0605,2.0605,2.0605,2.0605,2.0605,2.0605,2.0605,2.0605,2.0605,2.0898,0.0,0.0,0.0,0.0,0.0,0.0,0.0,0.0,0.0,0.0,0.0,0.0,0.0,0.0,0.0,0.0,0.0,0.0,0.0,0.0,0.0,0.0,0.0,0.0,0.0,2.5597,0.0,0.0,0.0,0.0,0.0,0.0,0.0,0.0,0.0,0.0,0.0,0.0,0.0,2.5085,2.5025,0.0,2.4924,2.4834,2.4813,2.4745,0.0,0.0,0.0,2.7112,2.7567,2.8528,2.9291,2.9205,2.9158,2.9348,3.0075,3.087,0.0,0.0,0.0,0.0,0.0,0.0,0.0,0.0,0.0,0.0,0.0,0.0,0.0,3.7712,3.7712,3.7649,3.7521,3.7447,3.7428,3.7448,3.5954,3.5248,3.5297,3.3771,3.3065,3.3101,3.315,3.3183,0.0,0.0,0.0,0.0,2.9232,2.8594,2.8644,2.8662,2.8675,2.8675,2.8724,2.8749,2.8731,0.0,0.0,0.0,0.0,0.0,0.0,0.0,2.0605,2.0605,2.0605,2.0605,2.0605,2.0605,2.0605,2.0625,2.0684,0.0,0.0,0.0,0.0,0.0,0.0,0.0,0.0,0.0,0.0,0.0,2.5693,2.5709,2.5707,2.5707,0.0,0.0,0.0,0.0,0.0,0.0,0.0,0.0,0.0,0.0,2.5597,0.0,0.0,0.0,0.0,0.0,0.0,0.0,0.0,0.0,0.0,0.0,0.0,0.0,0.0,0.0,0.0,0.0,2.4946,2.4881,2.4827,2.4742,2.4707,0.0,0.0,0.0,0.0,2.8241,2.9296,2.9205,2.92,2.9422,3.0166,0.0,0.0,0.0,0.0,0.0,0.0,0.0,0.0,0.0,0.0,0.0,0.0,0.0,0.0,3.789,3.789,3.789,3.789,3.7721,3.7649,3.7712,3.6189,3.5443,3.549,3.3882,3.3109,3.3124,3.3244,3.33,0.0,0.0,0.0,0.0,2.9347,2.8718,2.8706,2.8773,2.8798,2.8798,2.8804,2.8804,2.8804,0.0,0.0,0.0,0.0,0.0,0.0,0.0,0.0,0.0,0.0,2.0605,2.0605,2.0605,2.0605,2.0879,0.0,0.0,0.0,0.0,0.0,0.0,0.0,0.0,0.0,0.0,0.0,0.0,2.5708,2.5707,2.5707,2.5707,2.5703,0.0,0.0,0.0,0.0,0.0,0.0,0.0,0.0,2.5595,2.5599,0.0,0.0,0.0,0.0,2.5505,2.5464,0.0,0.0,0.0,0.0,0.0,0.0,0.0,0.0,2.5152,2.5107,2.5079,0.0,2.4881,2.4827,2.4779,2.4914,0.0,0.0,0.0,0.0,0.0,2.9349,2.9211,2.969,3.0315,0.0,0.0,0.0,0.0,0.0,0.0,0.0,0.0,0.0,0.0,0.0,0.0,0.0,0.0,3.789,3.789,3.789,3.789,3.789,3.7855,3.7846,3.7846,3.6275,3.5508,3.5553,3.3993,3.3274,3.3334,3.3356,3.3393,0.0,0.0,0.0,3.1037,2.9423,2.8773,2.8779,2.8792,2.8798,2.8804,2.8858,2.8881,2.8887,0.0,0.0,0.0,0.0,0.0,0.0,0.0,0.0,0.0,0.0,0.0,0.0,0.0,0.0,0.0,0.0,0.0,0.0,0.0,0.0,0.0,0.0,0.0,0.0,0.0,0.0,0.0,0.0,0.0,2.5703,0.0,0.0,0.0,0.0,0.0,0.0,0.0,0.0,0.0,0.0,2.5608,0.0,0.0,0.0,0.0,0.0,2.5501,2.5464,0.0,2.541,2.5353,2.5303,0.0,0.0,0.0,0.0,2.5144,2.5101,2.5108,2.5012,2.4919,2.4816,2.4798,2.4987,2.5729,0.0,0.0,0.0,0.0,0.0,2.9216,0.0,0.0,0.0,0.0,0.0,0.0,0.0,0.0,0.0,0.0,0.0,0.0,0.0,0.0,0.0,0.0,3.8047,3.8047,3.8047,3.8047,3.8047,3.8047,3.8012,3.7951,3.6349,3.5597,3.566,3.4104,3.3389,3.3444,3.3444,3.3488,0.0,0.0,0.0,3.1082,2.9509,2.8846,2.8846,2.8875,2.8881,2.8906,2.8929,2.894,2.8946,0.0,0.0,0.0,0.0,0.0,0.0,0.0,0.0,0.0,0.0,0.0,0.0,0.0,0.0,0.0,0.0,0.0,0.0,0.0,0.0,0.0,0.0,0.0,0.0,0.0,0.0,0.0,0.0,0.0,0.0,0.0,0.0,2.5702,0.0,0.0,0.0,0.0,0.0,0.0,0.0,2.5606,0.0,0.0,0.0,0.0,0.0,0.0,0.0,0.0,2.5406,2.5351,2.5303,2.5302,0.0,0.0,0.0,0.0,0.0,2.5092,2.506,2.4973,2.4845,2.4907,2.5182,0.0,0.0,0.0,0.0,0.0,0.0,0.0,0.0,0.0,0.0,0.0,0.0,0.0,0.0,0.0,0.0,0.0,0.0,0.0,0.0,0.0,0.0,0.0,3.82,3.82,3.82,3.8209,3.8217,3.8225,3.8119,3.7871,3.6392,3.5694,3.5809,3.4194,3.3459,3.3531,3.3531,3.3476,3.3346,0.0,0.0,3.0932,2.9497,2.8917,2.8923,2.8988,2.8999,2.8999,2.8999,2.8999,2.8999,0.0,0.0,0.0,0.0,0.0,0.0,0.0,0.0,0.0,0.0,0.0,0.0,0.0,0.0,0.0,0.0,0.0,0.0,0.0,0.0,0.0,0.0,0.0,0.0,0.0,0.0,0.0,0.0,0.0,0.0,2.5691,2.5701,2.5691,2.5701,0.0,0.0,0.0,0.0,0.0,2.5604,2.561,0.0,0.0,0.0,0.0,0.0,0.0,0.0,0.0,2.5407,2.5358,2.5305,2.5303,0.0,0.0,0.0,0.0,0.0,2.512,2.5095,2.5041,2.4852,2.5348,2.6083,0.0,0.0,0.0,0.0,0.0,0.0,0.0,0.0,0.0,0.0,0.0,0.0,0.0,0.0,0.0,0.0,0.0,0.0,0.0,0.0,0.0,0.0,0.0,3.82,3.82,3.82,3.8234,3.8282,3.8282,3.7988,3.7335,3.6347,3.5854,3.587,3.4317,3.3577,3.3584,3.3584,3.3261,3.2622,0.0,3.093,3.0283,2.9354,2.8969,2.8994,2.8999,2.8999,2.8999,2.8999,2.8999,2.8999,0.0,0.0,0.0,0.0,0.0,0.0,0.0,0.0,0.0,0.0,0.0,0.0,0.0,0.0,0.0,0.0,0.0,0.0,0.0,0.0,0.0,0.0,2.5698,2.57,2.5703,0.0,0.0,0.0,0.0,2.5704,2.5701,2.5691,2.5703,2.5699,0.0,2.5629,2.5604,2.5604,2.5609,2.5599,0.0,0.0,0.0,0.0,0.0,0.0,0.0,0.0,0.0,0.0,2.5356,2.5303,2.529,0.0,0.0,0.0,0.0,0.0,2.5114,2.5066,2.5119,2.5423,2.5804,0.0,0.0,0.0,0.0,0.0,0.0,0.0,0.0,0.0,0.0,0.0,0.0,0.0,0.0,0.0,0.0,0.0,0.0,0.0,0.0,0.0,0.0,0.0,0.0,0.0,3.8313,3.8313,3.833,3.8344,3.8344,3.7978,3.7208,3.6413,3.5771,3.5281,3.4149,3.3626,3.3643,3.3643,3.3246,3.2519,0.0,3.0919,3.013,2.9335,2.8999,2.8999,2.8999,2.8999,2.8999,2.8999,2.8999,2.8999,0.0,0.0,0.0,0.0,0.0,0.0,0.0,0.0,0.0,0.0,0.0,0.0,0.0,0.0,0.0,0.0,0.0,0.0,0.0,0.0,2.5709,2.5709,2.5707,2.5709,2.5697,0.0,2.5708,2.5705,2.5697,2.5692,2.5709,2.5702,2.5698,2.5675,0.0,2.5602,2.5595,2.5591,2.5597,2.561,0.0,0.0,0.0,0.0,0.0,0.0,0.0,0.0,0.0,0.0,0.0,0.0,0.0,0.0,0.0,2.5201,2.5144,2.5101,2.5108,2.5209,2.5422,2.597,0.0,0.0,0.0,0.0,0.0,0.0,0.0,0.0,0.0,0.0,0.0,0.0,0.0,0.0,0.0,0.0,0.0,0.0,0.0,0.0,0.0,0.0,0.0,0.0,0.0,0.0,3.8399,3.8399,3.8407,3.8423,3.824,3.7765,3.6996,3.6234,3.5506,3.4798,3.4031,3.3671,3.3726,3.3726,3.3221,3.2277,3.1666,3.084,2.9873,2.9244,2.8999,2.8999,2.8999,2.8999,2.8999,2.8999,2.8999,2.8999,0.0,0.0,0.0,0.0,0.0,0.0,0.0,0.0,0.0,0.0,0.0,0.0,0.0,0.0,0.0,0.0,0.0,0.0,0.0,0.0,2.5709,2.5709,2.57,2.5699,2.569,2.571,2.5705,2.5694,2.5692,2.5707,2.57,2.5699,2.5674,2.5607,2.5605,2.5592,2.5604,2.5601,2.5605,2.5601,2.5599,0.0,0.0,0.0,0.0,0.0,0.0,0.0,0.0,0.0,0.0,0.0,0.0,0.0,2.5206,2.5201,2.5144,2.5101,2.5108,2.5646,2.6184,2.6122,0.0,0.0,0.0,0.0,0.0,0.0,0.0,0.0,0.0,0.0,0.0,0.0,0.0,0.0,0.0,0.0,0.0,0.0,0.0,0.0,0.0,0.0,0.0,0.0,0.0,0.0,3.8399,3.8399,3.843,3.8494,3.7781,3.7043,3.6362,3.5511,3.5028,3.4877,3.4138,3.3793,3.3782,3.3782,3.2944,3.1482,3.1433,3.0522,2.9073,2.9018,2.8999,2.8999,2.8999,2.8999,2.8999,2.8999,2.8999,2.8999,0.0,0.0,0.0,0.0,0.0,0.0,0.0,0.0,0.0,0.0,0.0,0.0,0.0,0.0,0.0,0.0,0.0,0.0,0.0,0.0,2.5692,2.5692,2.5707,2.5684,2.5644,2.5689,2.5709,2.5704,2.5704,2.5679,2.5631,2.5631,0.0,0.0,2.5604,2.5593,2.56,2.5603,2.5609,2.5596,2.5552,2.5512,0.0,0.0,0.0,0.0,0.0,0.0,0.0,0.0,2.5295,2.53,2.5255,2.5228,2.5201,2.5195,2.5156,2.5095,2.5105,2.5628,2.6283,2.6737,0.0,0.0,0.0,0.0,0.0,0.0,0.0,0.0,0.0,0.0,0.0,0.0,0.0,0.0,0.0,0.0,0.0,0.0,0.0,0.0,0.0,0.0,0.0,0.0,0.0,0.0,3.8596,3.8596,3.8593,3.8616,3.7836,3.7063,3.631,3.5452,3.4734,3.4218,3.394,3.3807,3.3807,3.3807,3.2914,3.139,3.139,3.0485,2.8999,2.8999,2.8999,2.8999,2.8999,2.8999,2.8999,2.8999,2.8999,2.8999,0.0,0.0,0.0,0.0,0.0,0.0,0.0,0.0,0.0,0.0,0.0,0.0,0.0,0.0,0.0,0.0,0.0,0.0,0.0,0.0,2.567,2.567,2.567,2.5648,2.5601,2.5647,2.567,2.567,2.567,2.5647,2.5601,0.0,0.0,0.0,2.5607,2.5596,2.5607,2.5607,2.5591,2.5557,2.5529,2.5493,0.0,0.0,0.0,0.0,0.0,0.0,0.0,0.0,2.5305,2.5284,2.5212,2.5206,2.5203,2.5163,2.5148,2.5098,2.507,2.5768,2.6639,0.0,0.0,0.0,0.0,0.0,0.0,0.0,0.0,0.0,0.0,0.0,0.0,0.0,0.0,0.0,0.0,0.0,0.0,0.0,0.0,0.0,0.0,0.0,0.0,0.0,0.0,0.0,0.0,3.8699,3.8579,3.8322,3.754,3.6714,3.5892,3.5041,3.4351,3.3807,3.3807,3.3807,3.3788,3.3532,3.2687,3.139,3.1133,3.024,2.8999,2.8999,2.8999,2.8999,2.8999,2.8999,2.8999,2.8999,2.8999,2.8999,0.0,0.0,0.0,0.0,0.0,0.0,0.0,0.0,0.0,0.0,0.0,0.0,0.0,0.0,0.0,0.0,0.0,0.0,0.0,2.5103,2.5609,2.5609,2.5609,2.5609,2.5609,2.5609,2.5609,2.5609,2.5609,2.5609,2.5609,2.5609,0.0,0.0,2.56,2.5605,2.5598,2.5598,2.5555,2.5497,2.5497,2.5505,2.5488,0.0,0.0,0.0,0.0,0.0,0.0,0.0,2.5309,2.5282,2.5228,2.5193,2.5198,2.5128,2.5104,2.5092,2.5022,2.6187,0.0,0.0,0.0,0.0,0.0,0.0,0.0,0.0,0.0,0.0,0.0,0.0,0.0,0.0,0.0,0.0,0.0,0.0,0.0,0.0,0.0,0.0,0.0,0.0,0.0,0.0,0.0,0.0,0.0,3.8681,3.8322,3.7529,3.6714,3.5874,3.5016,3.4204,3.3807,3.3807,3.3807,3.3807,3.377,3.2974,3.2167,3.1354,3.0558,2.9745,2.8999,2.8999,2.8999,2.8999,2.8999,2.8999,2.8999,2.8999,2.8999,2.8999,0.0,0.0,0.0,0.0,0.0,0.0,0.0,0.0,0.0,0.0,0.0,0.0,0.0,0.0,0.0,0.0,0.0,0.0,0.0,2.479,2.5609,2.5609,2.5609,2.5603,2.5609,0.0,2.5607,2.5609,2.5609,2.5603,0.0,0.0,0.0,2.5605,0.0,0.0,2.5596,2.5549,2.5529,2.5495,2.5449,2.5435,2.5427,0.0,0.0,0.0,0.0,0.0,0.0,0.0,0.0,0.0,2.5217,2.5178,2.5134,2.5113,2.507,2.5151,2.5696,2.6571,0.0,0.0,0.0,0.0,0.0,0.0,0.0,0.0,0.0,0.0,0.0,0.0,0.0,0.0,0.0,0.0,0.0,0.0,0.0,0.0,0.0,0.0,0.0,0.0,0.0,0.0,0.0,0.0,0.0,3.8157,3.7749,3.7511,3.6112,3.5261,3.4997,3.4204,3.3807,3.3807,3.3807,3.3807,3.377,3.2974,3.2167,3.1354,3.0558,2.9745,2.8999,2.8999,2.8999,2.8999,2.8999,2.8999,2.8999,2.8999,2.8999,2.8999,0.0,0.0,0.0,0.0,0.0,0.0,0.0,0.0,0.0,0.0,2.0504,2.0495,0.0,0.0,0.0,0.0,0.0,0.0,2.3044,2.4322,2.5235,2.5571,2.5606,2.56,2.5593,2.5604,2.559,0.0,0.0,0.0,0.0,0.0,0.0,2.5591,0.0,2.5564,2.5554,2.5527,2.5488,2.5453,2.5412,2.5395,2.5406,0.0,0.0,0.0,0.0,0.0,0.0,0.0,0.0,0.0,2.5178,0.0,2.5082,2.5076,2.5035,2.5172,2.5957,0.0,0.0,0.0,0.0,0.0,0.0,0.0,0.0,0.0,0.0,0.0,0.0,0.0,0.0,0.0,0.0,0.0,0.0,0.0,0.0,0.0,0.0,0.0,0.0,0.0,0.0,0.0,0.0,0.0,0.0,3.776,3.7199,3.6523,3.5536,3.4851,3.4527,3.4045,3.3807,3.3807,3.3476,3.3323,3.3311,3.2497,3.1678,3.087,3.0075,2.9445,2.8999,2.8999,2.8999,2.8999,2.8999,2.8999,2.8999,2.8999,2.8999,2.8999,0.0,0.0,2.0603,2.06,0.0,0.0,0.0,0.0,0.0,0.0,2.0509,2.0498,0.0,0.0,0.0,2.0487,2.1284,2.2134,2.2958,2.3815,2.4686,2.5556,2.5583,2.5583,2.5597,2.5597,0.0,0.0,0.0,0.0,0.0,0.0,2.5596,2.5594,0.0,2.5499,2.5497,2.5493,2.5453,2.5401,2.5397,2.5404,2.5404,2.5398,0.0,0.0,0.0,0.0,0.0,0.0,0.0,0.0,2.5128,2.5101,2.5085,2.5009,2.5008,2.5179,0.0,0.0,0.0,0.0,0.0,0.0,0.0,0.0,0.0,0.0,0.0,0.0,0.0,0.0,0.0,0.0,0.0,0.0,0.0,0.0,0.0,0.0,0.0,0.0,0.0,0.0,0.0,0.0,0.0,0.0,0.0,3.7364,3.656,3.5052,3.4924,3.4546,3.3807,3.3807,3.3752,3.3678,3.2956,3.2509,3.2362,3.1623,3.0852,3.0057,2.9317,2.8999,2.8999,2.8999,2.8999,2.8999,2.8999,2.8999,2.8999,2.8999,2.8999,2.8999,0.0,0.0,2.06,2.0596,0.0,0.0,0.0,0.0,0.0,0.0,0.0,0.0,0.0,0.0,0.0,2.0426,2.1213,2.2099,2.2947,2.3812,2.4665,2.5486,2.5522,2.5522,2.5525,2.5525,2.5525,0.0,0.0,0.0,0.0,0.0,0.0,2.552,0.0,2.5503,2.5495,2.5445,2.541,2.5397,2.5406,2.5407,2.5398,2.5349,2.5329,0.0,0.0,0.0,0.0,0.0,0.0,0.0,2.5091,2.5054,2.5012,2.4996,2.4953,2.5232,0.0,0.0,0.0,0.0,0.0,0.0,0.0,0.0,0.0,0.0,0.0,0.0,0.0,0.0,0.0,0.0,0.0,0.0,0.0,0.0,0.0,0.0,0.0,0.0,0.0,0.0,0.0,0.0,0.0,0.0,3.7511,3.6248,3.5371,3.5016,3.4387,3.3972,3.3807,3.3807,3.3476,3.2864,3.2674,3.1947,3.0699,3.054,3.002,2.9244,2.9073,2.8999,2.8999,2.8999,2.8999,2.8999,2.8999,2.8999,2.8999,2.8999,2.8999,2.8999,0.0,0.0,0.0,0.0,0.0,0.0,0.0,0.0,0.0,0.0,0.0,0.0,0.0,2.0442,0.0,0.0,2.0828,2.1619,2.2917,2.3392,2.418,2.5459,2.551,2.5495,2.5495,2.5495,2.5495,0.0,0.0,0.0,0.0,0.0,0.0,2.5496,0.0,2.5451,2.5449,2.5419,2.54,2.5408,2.5405,2.5382,2.5353,2.5302,2.5282,0.0,0.0,0.0,0.0,0.0,0.0,0.0,0.0,0.0,2.4986,2.4956,2.4905,2.5204,0.0,0.0,0.0,0.0,0.0,0.0,0.0,0.0,0.0,0.0,0.0,0.0,0.0,0.0,0.0,0.0,0.0,0.0,0.0,0.0,0.0,0.0,0.0,0.0,0.0,0.0,0.0,0.0,0.0,3.6732,3.6321,3.5463,3.4814,3.4435,3.4027,3.3807,3.3807,3.3421,3.3011,3.2583,3.1818,3.0809,2.9635,2.9635,2.939,2.8999,2.8999,2.8999,2.8999,2.8999,2.8999,2.8999,2.8999,2.8999,2.8999,2.8999,2.8999,2.8999,0.0,0.0,0.0,0.0,0.0,0.0,0.0,0.0,0.0,0.0,0.0,0.0,0.0,2.0399,2.0409,0.0,0.0,0.0,2.2869,2.3203,2.3987,2.5435,2.5494,2.5505,2.5505,2.5505,2.5505,0.0,0.0,0.0,0.0,0.0,0.0,2.5486,0.0,2.5399,2.5395,2.5393,2.5395,2.5396,2.5387,2.5353,2.5309,2.5282,0.0,0.0,0.0,2.5176,2.5164,2.5122,0.0,0.0,0.0,0.0,2.4963,2.4898,2.4845,2.5156,0.0,0.0,0.0,0.0,0.0,0.0,0.0,0.0,0.0,0.0,0.0,0.0,0.0,0.0,0.0,0.0,0.0,0.0,0.0,0.0,0.0,0.0,0.0,0.0,0.0,0.0,0.0,0.0,0.0,3.5764,3.5034,3.4869,3.4491,3.3825,3.3807,3.3733,3.3587,3.2938,3.2454,3.2161,3.0699,2.9635,2.8999,2.8999,2.8999,2.8999,2.8999,2.8999,2.8999,2.8999,2.8999,2.8999,2.8999,2.8999,2.8999,2.8999,2.8999,2.8987,0.0,0.0,0.0,0.0,0.0,0.0,0.0,0.0,0.0,0.0,2.0444,2.0413,2.0399,2.0402,2.0392,2.0392,2.0398,2.1125,2.2794,0.0,0.0,2.5494,2.5497,2.5499,2.5499,2.5499,2.5499,0.0,0.0,0.0,0.0,0.0,0.0,2.5408,0.0,0.0,2.5393,2.539,2.5401,2.5394,2.5344,2.5316,2.5284,0.0,0.0,0.0,0.0,0.0,0.0,2.5098,2.507,0.0,0.0,0.0,2.4898,2.4823,2.4817,0.0,0.0,0.0,0.0,0.0,0.0,0.0,0.0,0.0,0.0,0.0,0.0,0.0,0.0,0.0,0.0,0.0,0.0,0.0,0.0,0.0,0.0,0.0,0.0,0.0,0.0,0.0,0.0,0.0,3.5653,3.5126,3.5016,3.4332,3.3917,3.3807,3.3807,3.3476,3.2766,3.2656,3.191,3.0516,2.9598,2.9097,2.8999,2.8999,2.8999,2.8999,2.8999,2.8999,2.8999,2.8999,2.8999,2.8999,2.8999,2.8999,2.8999,2.8999,2.8999,2.8895,0.0,0.0,0.0,0.0,0.0,0.0,0.0,0.0,0.0,0.0,0.0,2.0408,2.0401,2.038,2.0345,2.0345,2.0791,2.1786,2.3468,2.4743,2.5442,2.5433,2.5433,2.5458,2.5509,2.5509,0.0,0.0,0.0,0.0,0.0,2.5436,2.5438,0.0,0.0,0.0,0.0,0.0,0.0,2.5346,2.53,2.5274,0.0,0.0,0.0,0.0,0.0,0.0,0.0,0.0,2.5012,2.4982,2.4967,0.0,0.0,0.0,0.0,0.0,0.0,0.0,0.0,0.0,0.0,0.0,0.0,0.0,0.0,0.0,0.0,0.0,0.0,0.0,0.0,0.0,0.0,0.0,0.0,0.0,0.0,0.0,0.0,0.0,0.0,0.0,0.0,0.0,3.4809,3.4332,3.4332,3.399,3.3807,3.3807,3.3366,3.2956,3.2601,3.1708,3.0681,2.9525,2.917,2.8999,2.8999,2.8999,2.8999,2.8999,2.8999,2.8999,2.8999,2.8999,2.8999,2.8999,2.8999,2.8999,2.8999,2.8999,2.8712,2.8282,0.0,0.0,0.0,0.0,0.0,0.0,0.0,0.0,0.0,0.0,0.0,2.0382,2.0379,0.0,0.0,0.0,2.1422,2.2551,2.4,2.4928,2.5397,2.5393,2.5393,2.5421,2.5474,0.0,0.0,0.0,0.0,0.0,2.541,2.5404,2.5391,0.0,2.5393,0.0,0.0,0.0,0.0,0.0,0.0,0.0,0.0,0.0,0.0,0.0,0.0,0.0,0.0,0.0,0.0,0.0,0.0,0.0,0.0,0.0,0.0,0.0,0.0,0.0,0.0,0.0,0.0,0.0,0.0,0.0,0.0,0.0,0.0,0.0,0.0,0.0,0.0,0.0,0.0,0.0,0.0,0.0,0.0,0.0,0.0,0.0,0.0,0.0,0.0,0.0,3.413,3.3807,3.3807,3.3605,3.3495,3.3495,3.2699,3.2204,3.1983,3.0607,2.9592,2.8999,2.8999,2.8999,2.8999,2.8999,2.8999,2.8999,2.8999,2.8999,2.8999,2.8999,2.8999,2.8999,2.8999,2.8999,2.8987,2.8767,2.8319,2.7737,0.0,0.0,0.0,0.0,0.0,0.0,0.0,0.0,0.0,0.0,0.0,2.0379,2.031,2.1043,2.1534,2.1534,2.2335,2.3181,2.4038,2.4928,2.5391,2.5391,2.5391,0.0,0.0,0.0,0.0,0.0,0.0,0.0,2.5408,2.5407,2.5401,2.5401,2.5398,2.5361,2.5308,0.0,0.0,0.0,0.0,0.0,0.0,0.0,0.0,0.0,0.0,0.0,0.0,0.0,0.0,0.0,0.0,0.0,0.0,0.0,0.0,0.0,0.0,0.0,0.0,0.0,0.0,0.0,0.0,0.0,0.0,0.0,0.0,0.0,0.0,0.0,0.0,0.0,0.0,0.0,0.0,0.0,0.0,0.0,0.0,0.0,0.0,0.0,0.0,0.0,3.3825,3.3807,3.3807,3.3084,3.2656,3.2656,3.188,3.1097,3.0332,2.9488,2.9042,2.8999,2.8999,2.8999,2.8999,2.8999,2.8999,2.8999,2.8999,2.8999,2.8999,2.8999,2.8999,2.8999,2.8999,2.8999,2.8913,2.8136,2.7829,2.7572,0.0,0.0,0.0,0.0,0.0,0.0,0.0,0.0,0.0,0.0,0.0,0.0,0.0,2.2215,2.2379,2.2379,2.3174,2.401,2.4817,2.5163,2.5368,2.5407,2.541,0.0,0.0,0.0,0.0,0.0,0.0,2.5379,2.5337,2.5349,2.5344,2.5344,2.5344,2.5329,2.5302,2.5294,0.0,0.0,0.0,0.0,0.0,0.0,0.0,0.0,0.0,0.0,0.0,0.0,0.0,0.0,0.0,0.0,0.0,0.0,0.0,0.0,0.0,0.0,0.0,0.0,0.0,0.0,0.0,0.0,0.0,0.0,0.0,0.0,0.0,0.0,0.0,0.0,0.0,0.0,0.0,0.0,0.0,0.0,0.0,0.0,0.0,0.0,0.0,0.0,0.0,3.3568,3.3066,3.2754,3.2369,3.1843,3.1054,3.0246,2.9445,2.9133,2.8999,2.8999,2.8999,2.8999,2.8999,2.8999,2.8999,2.8999,2.8999,2.8999,2.8999,2.8999,2.8999,2.8999,2.8999,2.8999,2.8895,2.8099,2.7475,2.6869,0.0,0.0,0.0,0.0,0.0,2.1295,0.0,0.0,0.0,0.0,0.0,0.0,0.0,0.0,2.3358,2.3623,2.417,2.4736,2.5269,2.5305,2.5317,2.5361,2.5361,0.0,0.0,0.0,0.0,0.0,0.0,0.0,0.0,0.0,2.5303,2.5295,2.5295,2.5305,0.0,0.0,0.0,2.5209,0.0,0.0,2.5107,0.0,0.0,0.0,0.0,0.0,0.0,0.0,0.0,0.0,0.0,0.0,0.0,0.0,0.0,0.0,0.0,0.0,0.0,0.0,0.0,0.0,0.0,0.0,0.0,0.0,0.0,0.0,0.0,0.0,0.0,0.0,0.0,0.0,0.0,0.0,0.0,0.0,0.0,0.0,0.0,0.0,0.0,0.0,0.0,0.0,3.224,3.1947,3.1433,3.0613,3.0075,2.9537,2.9005,2.8999,2.8999,2.8999,2.8999,2.8999,2.8999,2.8999,2.8999,2.8999,2.8999,2.8999,2.8999,2.8999,2.8999,2.8999,2.8999,2.8822,2.8497,2.7695,2.6888,2.608,0.0,2.3047,2.3037,2.3006,2.2935,2.2899,2.2893,0.0,0.0,0.0,0.0,0.0,0.0,0.0,0.0,2.5228,2.5303,2.5305,2.5305,2.5305,2.5305,2.5305,2.5305,0.0,0.0,0.0,0.0,0.0,0.0,0.0,0.0,0.0,2.5293,0.0,2.5309,2.5306,2.5284,0.0,2.519,2.5184,0.0,2.5107,2.5095,0.0,0.0,0.0,2.4891,2.4853,0.0,2.4798,0.0,0.0,0.0,0.0,0.0,0.0,0.0,0.0,0.0,0.0,0.0,0.0,0.0,0.0,2.8999,0.0,0.0,0.0,0.0,0.0,0.0,0.0,0.0,0.0,0.0,0.0,0.0,0.0,0.0,0.0,0.0,0.0,0.0,0.0,0.0,0.0,3.2564,3.2204,3.1409,3.0595,2.9818,2.9018,2.8999,2.8999,2.8999,2.8999,2.8999,2.8999,2.8999,2.8999,2.8999,2.8999,2.8999,2.8999,2.8999,2.8999,2.8999,2.8999,2.8999,2.8999,2.8999,2.8515,2.7701,2.6906,2.608,2.5288,2.4015,2.3872,2.3673,2.3034,2.2915,2.2895,2.29,0.0,0.0,0.0,0.0,0.0,0.0,0.0,0.0,2.5214,2.5233,2.5241,2.53,2.53,2.5307,2.5305,2.5305,2.5305,0.0,0.0,0.0,0.0,0.0,0.0,0.0,0.0,0.0,0.0,2.5223,2.5234,2.5234,2.5217,0.0,0.0,2.511,2.5073,0.0,0.0,0.0,0.0,0.0,2.4783,2.4734,0.0,2.4686,2.4615,0.0,0.0,0.0,0.0,0.0,0.0,2.7453,0.0,0.0,0.0,0.0,0.0,2.8999,2.917,2.95,0.0,0.0,0.0,0.0,0.0,0.0,0.0,0.0,0.0,0.0,0.0,0.0,0.0,0.0,0.0,0.0,0.0,0.0,0.0,3.1733,3.139,3.0577,2.9763,2.9225,2.9005,2.8999,2.8999,2.8999,2.8999,2.8999,2.8999,2.8999,2.8999,2.8999,2.8999,2.8999,2.8999,2.8999,2.8999,2.8999,2.8999,2.8999,2.8999,2.8999,2.8515,2.7701,2.6906,2.608,2.5288,2.4842,2.4733,2.457,2.4048,2.3949,2.3947,0.0,0.0,0.0,0.0,0.0,0.0,0.0,0.0,0.0,2.5192,2.5192,2.5217,2.5252,2.5255,2.526,2.5256,2.5256,2.5256,0.0,0.0,0.0,0.0,0.0,0.0,0.0,0.0,0.0,0.0,0.0,0.0,0.0,0.0,0.0,0.0,2.5079,0.0,0.0,2.4935,2.487,0.0,0.0,0.0,2.4695,2.4674,2.4611,0.0,0.0,0.0,0.0,0.0,0.0,0.0,0.0,0.0,0.0,0.0,0.0,0.0,2.8999,2.8999,2.9133,0.0,0.0,0.0,0.0,0.0,0.0,0.0,0.0,0.0,0.0,0.0,0.0,0.0,0.0,0.0,0.0,3.21,3.177,3.0962,3.0895,3.0558,2.9745,2.9244,2.8999,2.8999,2.8999,2.8999,2.8999,2.8999,2.8999,2.8999,2.8999,2.8999,2.8999,2.8999,2.8999,2.8999,2.8999,2.8999,2.8999,2.8999,2.8999,2.8999,2.8999,2.829,2.7236,2.6772,2.5878,2.4824,0.0,2.5496,2.5478,2.5401,2.5397,2.5395,0.0,0.0,0.0,0.0,0.0,0.0,0.0,0.0,0.0,0.0,2.5204,2.5204,2.5206,2.5206,2.5209,2.5192,2.5192,2.5192,2.5192,0.0,0.0,0.0,0.0,0.0,0.0,0.0,0.0,0.0,2.5184,2.5166,0.0,0.0,0.0,2.5085,2.5012,2.5008,0.0,0.0,2.485,2.4787,2.4711,2.4691,2.4666,2.4607,2.4543,0.0,0.0,0.0,0.0,0.0,2.6314,0.0,0.0,0.0,0.0,0.0,0.0,0.0,2.8999,2.8999,2.8999,2.8999,0.0,0.0,0.0,0.0,0.0,0.0,0.0,0.0,0.0,0.0,0.0,0.0,0.0,0.0,3.128,3.1262,3.0931,3.013,3.0075,2.9745,2.9042,2.8999,2.8999,2.8999,2.8999,2.8999,2.8999,2.8999,2.8999,2.8999,2.8999,2.8999,2.8999,2.8999,2.8999,2.8999,2.8999,2.8999,2.8999,2.8999,2.8999,2.8999,2.8999,2.8069,2.6717,2.6625,2.564,2.4323,2.5437,2.5417,2.5421,2.5397,2.5357,2.5322,0.0,0.0,0.0,0.0,0.0,0.0,0.0,0.0,0.0,0.0,2.5206,2.5198,2.5198,2.5201,2.5209,2.5192,2.5192,2.5192,2.5192,2.5192,0.0,0.0,0.0,0.0,0.0,0.0,0.0,0.0,0.0,2.5119,0.0,0.0,0.0,2.5011,2.502,0.0,2.4914,2.4858,2.4776,2.473,2.4691,2.4631,2.4539,2.4519,2.4464,2.4522,0.0,0.0,0.0,0.0,0.0,0.0,0.0,0.0,0.0,0.0,0.0,0.0,2.8999,2.8999,2.8999,0.0,0.0,0.0,0.0,0.0,0.0,0.0,0.0,0.0,0.0,0.0,0.0,0.0,0.0,0.0,3.0503,3.043,3.0093,2.9299,2.9225,2.917,2.9005,2.8999,2.8999,2.8999,2.8999,2.8999,2.8999,2.8999,2.8999,2.8999,2.8999,2.8999,2.8999,2.8999,2.8999,2.8999,2.8999,2.8999,2.8999,2.8999,2.8999,2.8999,2.8999,2.8405,2.7499,2.6846,2.5988,2.5062,2.5408,2.5376,2.5351,2.5351,0.0,0.0,0.0,0.0,0.0,0.0,0.0,0.0,0.0,0.0,0.0,0.0,0.0,0.0,0.0,0.0,2.5147,2.5142,2.5181,2.5193,2.5193,2.5193,2.5193,0.0,0.0,0.0,0.0,0.0,0.0,0.0,0.0,0.0,0.0,0.0,2.4972,2.496,2.496,0.0,2.4842,2.4817,2.4764,2.471,2.467,2.4582,2.4484,2.4469,2.4689,0.0,0.0,2.5794,2.6335,0.0,2.7889,2.8022,0.0,0.0,0.0,2.8999,0.0,0.0,0.0,2.8999,2.8999,2.8999,2.8999,0.0,0.0,0.0,0.0,0.0,0.0,0.0,0.0,0.0,0.0,0.0,0.0,0.0,2.9635,2.9598,2.9427,2.9023,2.8999,2.8999,2.8999,2.8999,2.8999,2.8999,2.8999,2.8999,2.8999,2.8999,2.8999,2.8999,2.8999,2.8999,2.8999,2.8999,2.8999,2.8999,2.8958,2.8946,2.894,2.8905,2.8912,2.8917,2.8976,2.8515,2.7756,2.7346,2.6434,2.5343,2.5373,2.5334,2.5298,2.5274,0.0,0.0,0.0,0.0,0.0,0.0,0.0,0.0,0.0,0.0,0.0,0.0,0.0,0.0,0.0,0.0,0.0,2.5098,2.515,2.5171,2.5171,2.5171,2.5171,0.0,0.0,0.0,0.0,0.0,0.0,0.0,0.0,0.0,0.0,0.0,0.0,2.4889,0.0,2.4846,2.4798,2.4783,2.4737,2.4666,2.4599,2.4532,2.4492,2.4606,2.5056,2.5629,2.5881,2.6403,0.0,0.0,0.0,0.0,0.0,0.0,0.0,0.0,0.0,2.8999,0.0,0.0,0.0,2.8999,0.0,0.0,0.0,0.0,0.0,0.0,0.0,0.0,0.0,0.0,0.0,0.0,0.0,0.0,2.8999,2.8999,2.8999,2.8999,2.8999,2.8999,2.8999,2.8999,2.8999,2.8999,2.8999,2.8999,2.8999,2.8999,2.8999,2.8988,2.8988,2.8964,2.8964,2.8964,2.8964,2.8964,2.8905,2.8887,2.8881,2.8822,2.8798,2.8804,2.8929,2.8549,2.7974,2.7814,2.6934,2.5803,2.5313,2.5312,2.5287,2.5225,0.0,0.0,0.0,0.0,0.0,0.0,0.0,0.0,0.0,0.0,0.0,0.0,0.0,0.0,2.5101,0.0,0.0,0.0,2.5111,2.5114,2.5114,2.5114,2.5114,2.5114,0.0,0.0,0.0,0.0,0.0,0.0,2.5035,0.0,0.0,0.0,2.4871,0.0,2.4817,2.481,0.0,2.4725,2.467,2.4603,2.4542,2.4469,2.4523,0.0,2.548,2.5763,0.0,2.7658,2.7835,0.0,0.0,0.0,0.0,0.0,0.0,0.0,2.8999,0.0,0.0,0.0,2.8999,2.8999,0.0,0.0,0.0,0.0,0.0,0.0,0.0,0.0,0.0,0.0,0.0,0.0,0.0,0.0,0.0,2.8999,2.8999,2.8999,2.8999,2.8999,2.8999,2.8999,2.8999,2.8999,2.8999,2.8999,2.8999,2.8999,2.8964,2.8917,2.8917,2.8881,2.8816,2.8816,2.8816,2.8816,2.881,2.8804,2.8804,2.8798,2.8798,2.8798,2.8828,2.8761,2.8603,2.7897,2.7514,2.7259,2.5241,2.5244,2.5237,2.519,0.0,0.0,0.0,0.0,0.0,0.0,0.0,0.0,0.0,0.0,0.0,0.0,0.0,2.6216,0.0,0.0,0.0,0.0,0.0,0.0,2.5101,2.5101,2.5101,2.5101,2.5101,0.0,0.0,0.0,0.0,0.0,2.4972,0.0,2.4889,0.0,2.4802,0.0,0.0,0.0,0.0,2.4709,2.4627,2.459,2.4998,2.5111,2.5208,0.0,2.6524,0.0,0.0,0.0,0.0,0.0,0.0,0.0,0.0,0.0,0.0,0.0,0.0,0.0,2.894,0.0,2.8875,0.0,0.0,0.0,0.0,0.0,0.0,0.0,2.8875,0.0,0.0,0.0,0.0,0.0,0.0,0.0,0.0,0.0,0.0,0.0,2.8999,2.8999,2.8999,2.8958,2.894,2.894,2.8899,2.8875,2.8875,2.8875,2.8864,2.8846,2.8846,2.8828,2.8798,2.8798,2.8798,2.8798,2.8761,2.8749,2.8743,2.87,2.8681,2.8681,2.8681,2.8731,2.8761,2.8415,2.8001,2.7551,2.548,0.0,0.0,0.0,0.0,0.0,0.0,0.0,0.0,0.0,0.0,0.0,2.7301,2.7297,0.0,0.0,2.7333,2.7108,0.0,0.0,2.6197,0.0,0.0,0.0,0.0,2.505,2.5076,2.5076,2.5047,0.0,0.0,0.0,0.0,0.0,0.0,2.4845,2.4798,0.0,0.0,2.4703,2.4686,2.4623,2.4572,2.4623,2.4709,2.4876,2.5412,2.5736,2.6011,2.6767,2.7393,0.0,2.8073,0.0,0.0,0.0,0.0,0.0,2.8999,0.0,0.0,0.0,0.0,0.0,0.0,0.0,0.0,0.0,0.0,0.0,0.0,0.0,0.0,0.0,0.0,0.0,0.0,0.0,0.0,0.0,0.0,0.0,0.0,0.0,0.0,0.0,0.0,2.8952,2.8953,2.8899,2.8875,2.8875,2.8828,2.8798,2.8798,2.8798,2.8785,2.8773,2.8773,2.8761,2.8743,2.8743,2.8743,2.8737,2.87,2.8657,2.8638,2.86,2.8562,2.856,2.856,2.86,2.8693,2.8731,2.8385,2.7876,2.6203,2.5735,0.0,0.0,0.0,0.0,0.0,0.0,0.0,0.0,0.0,0.0,0.0,0.0,0.0,0.0,0.0,2.7297,2.726,0.0,2.6913,0.0,0.0,2.5697,0.0,2.4971,2.5007,2.5007,2.4935,0.0,0.0,0.0,0.0,0.0,0.0,2.4798,2.4798,2.4723,2.4703,2.4686,2.4623,2.4564,2.4503,0.0,2.4941,2.5574,2.5588,0.0,0.0,2.7593,2.7836,0.0,0.0,0.0,0.0,0.0,0.0,0.0,0.0,0.0,0.0,2.8893,0.0,0.0,0.0,0.0,2.8798,0.0,0.0,0.0,0.0,0.0,0.0,0.0,0.0,0.0,0.0,0.0,0.0,0.0,0.0,0.0,0.0,0.0,0.0,0.0,2.8893,2.8875,2.8804,2.8798,2.8798,2.8798,2.8798,2.8798,2.8798,2.8798,2.8767,2.87,2.87,2.8675,2.8606,2.8606,2.8606,2.8606,2.86,2.8574,2.8505,2.8499,2.8465,2.8418,2.8418,2.8418,2.8437,2.8555,2.8582,2.857,2.707,0.0,0.0,0.0,0.0,0.0,0.0,2.7793,0.0,0.0,0.0,0.0,0.0,2.8897,2.8897,0.0,0.0,2.8663,2.8135,2.8137,0.0,0.0,0.0,2.6514,0.0,0.0,2.5449,2.4879,2.4849,0.0,0.0,0.0,0.0,0.0,0.0,2.4723,0.0,0.0,0.0,0.0,0.0,2.5285,2.5235,0.0,2.538,2.5727,2.6767,2.7288,0.0,2.8366,2.86,2.8644,2.8913,2.8999,2.8999,2.8999,2.8964,2.8934,0.0,0.0,2.8834,2.8834,0.0,0.0,0.0,0.0,0.0,0.0,0.0,0.0,0.0,0.0,0.0,0.0,0.0,0.0,0.0,0.0,0.0,0.0,0.0,0.0,0.0,0.0,0.0,0.0,2.8834,0.0,2.8798,2.8761,2.8725,2.8725,2.8693,2.8662,2.8662,2.8662,2.8656,2.8637,2.86,2.8568,2.8536,2.8484,2.8458,2.8458,2.8458,2.8445,2.8432,2.8432,2.8413,2.8411,2.8411,2.8411,2.8411,2.8445,2.8458,2.8458,2.7888,0.0,0.0,0.0,0.0,0.0,0.0,0.0,0.0,0.0,2.9316,0.0,2.9636,0.0,2.9636,0.0,2.9626,2.9401,2.889,2.8926,0.0,2.7721,2.7717,0.0,0.0,0.0,2.6102,2.525,2.5239,2.5081,0.0,0.0,0.0,0.0,0.0,0.0,2.4662,0.0,2.4547,0.0,0.0,2.5811,0.0,0.0,2.6418,2.6556,0.0,2.8073,2.8358,2.8833,2.8999,2.8999,2.8999,2.8999,2.8999,2.8964,2.8934,2.8899,2.8875,2.8816,0.0,2.8767,2.8718,0.0,2.8651,0.0,0.0,0.0,0.0,0.0,0.0,0.0,0.0,0.0,0.0,0.0,0.0,2.8706,0.0,0.0,0.0,0.0,0.0,0.0,0.0,2.8767,2.8767,2.8755,0.0,2.8693,2.8651,2.8651,2.8606,2.8568,2.8568,2.8536,2.8523,2.8523,2.8484,2.8465,2.8465,2.8413,2.8411,2.8411,2.8411,2.8398,2.836,2.836,2.8345,2.828,2.828,2.8284,2.8266,2.8353,2.8411,2.8411,2.8612,2.8705,0.0,0.0,2.8093,0.0,0.0,0.0,2.9598,0.0,2.954,2.9497,2.9497,2.9497,2.9497,2.9497,2.9497,2.9497,2.9497,2.9555,0.0,0.0,2.8513,2.8162,2.7368,0.0,0.0,0.0,0.0,0.0,0.0,0.0,0.0,0.0,2.4619,0.0,2.4655,2.459,2.4569,2.4673,2.5421,2.6176,2.6938,2.7685,2.7961,2.7955,2.7955,2.8395,2.8999,2.8999,2.8999,2.8999,2.8999,2.8999,2.8969,2.8923,2.8905,2.8881,2.8864,2.881,2.876,2.8797,2.8752,0.0,0.0,0.0,2.8701,0.0,0.0,0.0,0.0,0.0,0.0,0.0,0.0,0.0,0.0,0.0,0.0,0.0,0.0,0.0,0.0,0.0,2.8761,2.8694,2.8688,2.8651,0.0,2.8587,2.8587,2.8587,2.8536,2.851,2.851,2.8432,2.8411,2.8411,2.8404,2.838,2.838,2.8398,2.8373,2.8373,2.8373,2.834,2.8286,2.8286,2.8205,2.8099,2.8099,2.8056,2.8025,2.8298,2.8373,2.8373,2.9542,2.9494,2.9341,0.0,2.9222,2.9448,0.0,0.0,0.0,0.0,2.9502,2.9497,2.9497,2.9497,2.9497,2.9497,2.9497,0.0,0.0,0.0,0.0,2.9236,2.9223,2.8877,2.8058,2.803,0.0,2.6771,0.0,0.0,2.5541,0.0,0.0,0.0,0.0,0.0,2.5485,2.5423,2.5708,2.6288,2.7066,2.7482,2.7704,0.0,2.8761,2.8716,2.8716,2.8833,2.8999,2.8999,2.8999,2.8999,2.8999,2.8976,2.8923,2.8911,2.884,2.8882,2.9458,2.9577,2.9646,3.0202,3.032,3.0304,0.0,0.0,0.0,0.0,0.0,0.0,0.0,0.0,0.0,0.0,0.0,0.0,0.0,0.0,0.0,2.8445,0.0,0.0,0.0,2.865,2.8637,2.8631,2.8587,2.8537,2.8536,0.0,2.8445,2.8445,2.8426,2.8426,2.8426,2.84,2.8411,2.8411,2.8347,2.8311,2.8243,2.8202,2.8161,2.8095,2.8095,2.8088,2.8074,2.8074,2.8071,2.8028,2.8028,2.8021,2.8014,2.8085,2.8095,2.8095,2.9819,0.0,0.0,3.0075,0.0,0.0,2.963,2.9823,0.0,3.0017,3.0314,0.0,3.0024,2.9987,2.9838,2.9488,2.9451,0.0,2.9451,0.0,0.0,2.9458,2.9482,2.9287,2.8834,2.8815,0.0,2.7573,0.0,0.0,2.6327,0.0,0.0,0.0,0.0,2.5814,0.0,2.6163,2.6596,2.7357,2.7785,2.8135,0.0,2.8908,2.904,2.8999,2.8999,2.8999,2.8999,2.8999,2.8999,2.8999,2.8999,2.8946,2.8954,2.9296,2.9302,2.9396,3.0163,3.0321,3.0369,3.0798,3.0882,3.0847,3.0815,3.0808,3.0794,0.0,3.0392,2.9972,0.0,0.0,0.0,0.0,0.0,0.0,0.0,0.0,0.0,0.0,2.8411,0.0,0.0,2.8504,2.8504,2.8504,2.8478,2.8458,2.8458,0.0,2.8411,2.8411,2.8345,2.8311,2.8311,2.8246,2.8237,2.8219,2.8185,2.8161,2.8112,2.8078,2.8042,2.8007,2.8007,2.8007,2.8007,2.8007,2.7986,2.7961,2.7853,2.7802,2.778,2.778,2.7868,2.8007,2.9854,0.0,0.0,0.0,0.0,0.0,0.0,3.0383,0.0,3.0831,0.0,3.1533,3.0827,3.0753,3.0437,2.9625,0.0,2.9513,2.9402,2.9395,2.9397,2.9397,2.9466,2.9496,2.9496,2.9496,0.0,0.0,0.0,0.0,0.0,0.0,0.0,0.0,0.0,0.0,0.0,2.7007,2.7443,2.813,2.8077,2.8465,2.9091,2.9028,2.8999,2.8999,2.8999,2.8999,2.8999,2.8999,2.8999,2.8999,2.8994,2.9008,2.9174,2.9807,3.0004,3.0206,3.0944,3.111,3.1084,3.1153,3.1132,3.1074,3.107,3.1063,3.1041,3.096,3.0866,3.0566,2.9811,0.0,0.0,0.0,0.0,0.0,0.0,0.0,0.0,0.0,0.0,0.0,0.0,0.0,2.8411,2.8411,2.838,2.8373,0.0,0.0,2.8365,2.8358,2.8237,2.8168,2.8168,2.8064,2.8007,2.8007,2.8007,2.8,2.7954,2.7954,2.7947,2.7925,2.7925,2.7925,2.7925,2.7925,2.79,2.783,2.7665,2.7549,2.7503,2.7503,2.7684,2.7925,0.0,0.0,0.0,0.0,0.0,3.1626,3.1436,3.1513,3.16,3.16,3.1719,3.1756,3.1608,3.1589,3.1273,3.0456,3.0381,0.0,0.0,0.0,0.0,2.9393,2.9404,2.9427,2.9427,2.9427,2.9353,0.0,0.0,0.0,0.0,0.0,0.0,0.0,0.0,0.0,2.7825,2.8441,0.0,2.8892,2.8825,2.8888,2.9022,2.9005,2.8999,2.8999,2.8999,2.8999,2.8999,2.8999,2.8999,2.8994,2.8934,2.9332,2.9819,2.9895,3.0333,3.0973,3.1711,3.1892,3.2011,3.2517,3.2632,3.2593,3.2468,3.2444,3.2412,3.228,3.1785,3.1316,3.1158,0.0,0.0,0.0,0.0,0.0,0.0,0.0,0.0,0.0,0.0,2.806,0.0,0.0,2.8411,2.8411,2.8347,2.8286,2.8237,0.0,2.8133,0.0,2.8056,0.0,0.0,0.0,2.8007,2.8007,2.8007,2.79,2.7752,2.7752,2.7696,2.7594,2.7594,2.7594,2.7594,2.7594,2.7579,2.7564,2.7534,2.7511,2.7503,2.7503,2.7534,2.7594,0.0,0.0,0.0,0.0,0.0,0.0,0.0,3.3033,3.2903,3.2475,3.2791,3.2884,3.2481,3.242,3.2109,3.1292,3.1218,3.0883,3.0089,3.0015,2.9848,2.942,2.9402,0.0,2.9402,2.9402,2.9402,2.9402,0.0,0.0,0.0,0.0,0.0,0.0,0.0,2.821,0.0,0.0,0.0,2.9051,2.9017,2.8999,2.8999,2.8999,2.8999,2.8999,2.8999,2.8999,2.8999,2.8999,2.8982,2.9014,2.9405,2.971,3.0114,3.0904,3.1349,3.1736,3.2505,3.2648,3.2622,3.2882,3.2916,3.2862,3.2722,3.2698,3.2681,3.2614,3.2323,3.1943,3.1579,3.0519,0.0,0.0,0.0,0.0,0.0,0.0,0.0,0.0,0.0,0.0,0.0,0.0,0.0,0.0,0.0,2.8122,2.8099,0.0,2.8025,0.0,0.0,0.0,2.7843,0.0,2.7744,2.7744,2.7744,2.7682,2.76,2.76,2.7554,2.7503,2.7503,2.7503,2.7503,2.7503,2.7473,2.7444,2.7444,2.7421,2.739,2.739,2.739,2.7405,0.0,3.2379,0.0,0.0,3.3279,0.0,3.4104,3.4203,3.3962,3.333,3.3813,3.3962,3.333,3.3256,3.2921,3.2128,3.2067,3.1719,3.0902,3.0697,3.0326,2.968,2.9495,2.9396,2.9381,2.9381,2.9376,0.0,0.0,0.0,0.0,0.0,0.0,0.0,0.0,0.0,0.0,0.0,2.8999,2.8999,2.8999,2.8999,2.8999,2.8999,2.8999,2.8999,2.8999,2.8999,2.9018,2.9184,2.9191,2.9265,2.9887,3.0237,3.0655,3.1891,3.2296,3.2491,3.3085,3.3106,3.2955,3.291,3.283,3.2732,3.2615,3.2581,3.2564,3.2522,3.2506,3.2321,3.173,3.0973,0.0,0.0,0.0,0.0,0.0,0.0,0.0,0.0,0.0,0.0,2.794,0.0,0.0,0.0,0.0,2.7975,2.794,2.794,2.7925,0.0,0.0,2.7719,2.7895,0.0,2.7826,2.7983,2.7983,2.7975,2.7935,2.7778,2.7693,2.767,2.7488,2.7411,2.7396,2.7396,2.7359,2.7313,2.7313,2.7282,2.7243,2.7243,2.7243,2.725,0.0,0.0,0.0,0.0,0.0,0.0,3.4179,3.4203,3.4166,3.4104,3.4147,3.4166,3.4104,3.4092,3.3757,3.2958,3.2884,3.255,3.1738,3.0995,3.0567,3.0493,2.9792,2.9376,2.9312,2.9312,2.9272,0.0,0.0,2.92,0.0,0.0,0.0,0.0,0.0,0.0,0.0,2.9005,2.8999,2.8999,2.8999,2.8999,2.8999,2.8999,2.8999,2.8999,2.8999,2.8999,2.9104,2.9777,2.9997,2.9996,3.0008,3.0957,3.208,3.2116,3.2632,3.3164,3.3057,3.2963,3.2892,3.283,3.2714,3.2597,3.2523,3.2506,3.2456,3.2275,3.2188,3.2126,3.2056,3.1385,3.0828,0.0,0.0,0.0,0.0,0.0,0.0,0.0,0.0,0.0,0.0,2.7667,0.0,0.0,2.786,2.7925,2.7738,2.773,2.7664,2.7549,2.7534,2.7832,2.8504,2.8505,2.8863,2.9576,2.9576,2.9526,2.9374,2.8708,2.8348,2.8173,2.7443,2.7094,2.704,2.704,2.704,2.7032,2.7032,2.7024,2.7041,2.7041,2.7041,2.7041,0.0,0.0,0.0,0.0,0.0,0.0,0.0,3.4203,3.4203,3.4203,3.4203,3.4203,3.4203,3.4203,3.4067,3.3757,3.372,3.3386,3.2568,3.1775,3.1106,3.0623,2.9829,2.937,2.9302,2.9302,2.9262,0.0,0.0,0.0,0.0,0.0,0.0,0.0,0.0,2.8999,2.8999,2.8999,2.8999,2.8999,2.8999,2.8999,2.8999,2.8999,2.8999,2.8999,2.8999,2.9288,2.971,2.9997,3.0075,3.0202,3.1109,3.1781,3.2321,3.2708,3.3002,3.3135,3.2979,3.2884,3.2805,3.2658,3.2574,3.2506,3.2344,3.2318,3.2284,3.2161,3.2117,3.2099,3.2099,3.1847,3.1464,3.0976,0.0,0.0,0.0,0.0,0.0,0.0,0.0,0.0,0.0,0.0,0.0,0.0,0.0,2.7652,2.7585,2.8006,2.8219,2.8149,0.0,2.8888,2.9141,2.91,2.9196,2.9446,2.9446,2.9403,2.9343,2.9051,2.8879,2.8793,2.8032,2.7681,2.7631,2.7179,2.6991,2.6991,2.6991,2.6991,2.6991,2.6991,2.6991,2.6991,3.4269,0.0,3.4203,0.0,3.4203,3.4203,3.4203,3.4203,3.4203,3.4203,3.4203,3.4203,3.4203,3.4203,3.4203,3.4203,3.4203,3.3962,3.3386,3.2605,3.1794,3.0995,3.0161,0.0,2.9286,2.9246,2.9207,2.9134,2.9084,0.0,0.0,0.0,0.0,0.0,2.8999,2.8999,2.8999,2.8999,2.8999,2.8999,2.8999,2.8999,2.8999,2.8999,2.8999,2.9023,2.9262,2.9679,3.0167,3.0624,3.0737,3.0879,3.1958,3.2389,3.2618,3.3097,3.3168,3.3032,3.29,3.2813,3.269,3.2532,3.2465,3.237,3.2223,3.2179,3.2144,3.2064,3.2028,3.2001,3.2001,3.2001,3.1827,3.1263,0.0,0.0,0.0,2.9621,0.0,0.0,2.848,2.8175,2.8175,2.8143,0.0,0.0,0.0,2.8072,2.8127,2.859,2.886,0.0,0.0,0.0,2.9755,2.9719,2.976,2.9885,2.9885,2.9885,2.9868,2.9619,2.9388,2.9141,2.8603,2.8237,2.7973,2.7462,2.7104,2.69,2.69,2.69,2.69,2.69,2.69,2.69,3.4215,3.4203,3.4203,3.4203,3.4203,3.4203,3.4203,3.4203,3.4203,3.4203,3.4203,3.4203,3.4203,3.4203,3.4203,3.4203,3.4203,3.4203,3.4179,3.3423,3.2624,0.0,0.0,3.0076,2.9213,2.9147,2.9079,2.9005,0.0,0.0,2.8999,0.0,2.8999,2.8999,2.8999,2.8999,2.8999,2.8999,2.8999,2.8999,2.8999,2.8999,2.8999,2.8999,2.8999,2.9097,2.9892,3.0161,3.0325,3.1855,3.2333,3.2282,3.2282,3.2752,3.3251,3.3142,3.3057,3.2963,3.283,3.2706,3.2589,3.2515,3.2344,3.2197,3.2197,3.2144,3.2064,3.1939,3.1839,3.1809,3.1809,3.1809,3.1809,3.1792,0.0,0.0,0.0,0.0,0.0,2.9872,2.9785,2.9767,2.9767,2.965,0.0,0.0,0.0,0.0,0.0,0.0,0.0,2.9394,2.9272,0.0,3.0371,3.0388,3.0747,3.1464,3.1464,3.1464,3.1447,3.0585,2.979,2.9101,2.9012,2.8544,2.7807,2.779,2.7359,2.67,2.67,2.67,2.67,2.67,2.67,2.67,3.4971,3.5095,3.5262,3.5801,3.5894,3.5894,3.5894,3.5894,3.5894,3.5894,3.5429,3.5095,3.5095,3.4556,3.4203,0.0,3.4203,3.4203,0.0,3.3441,3.2884,3.2624,3.1268,3.0354,3.0032,2.9405,2.9074,2.8999,0.0,0.0,0.0,2.8999,2.8999,2.8999,2.8999,2.8999,2.8999,2.8999,2.8999,2.8999,2.8999,2.8999,2.906,2.9616,2.9818,2.9922,3.0687,3.1264,3.1745,3.2181,3.2657,3.3045,3.2994,3.3123,3.3269,3.3142,3.3026,3.2892,3.2705,3.2607,3.2489,3.2336,3.224,3.2161,3.2029,3.1947,3.1874,3.1838,3.1801,3.18,3.18,3.18,3.18,3.18,3.1827,0.0,3.1509,0.0,3.0681,3.0439,2.9894,2.9541,2.9541,2.942,0.0,0.0,0.0,0.0,0.0,0.0,0.0,0.0,3.0526,0.0,3.102,3.0961,3.1029,3.1161,3.1112,3.1092,3.1092,3.0799,3.0573,3.0369,2.9837,2.9518,2.9287,2.8221,2.7655,2.7401,2.6903,2.67,2.67,2.67,2.67,2.67,3.5838,3.595,3.6105,3.66,3.6693,3.6693,3.6693,3.6693,3.6693,3.6693,3.6265,3.5844,3.5529,3.5002,0.0,3.424,3.4203,3.4203,3.4203,3.3739,3.333,3.3014,3.1949,3.1195,3.0852,2.9966,0.0,2.9445,2.9152,2.8999,2.8999,2.8999,2.8999,2.8999,2.8999,2.8999,2.8999,2.8999,2.917,2.9445,2.9445,2.9635,2.9965,3.0467,3.065,3.0754,3.1485,3.2029,3.2441,3.2662,3.3045,3.3396,3.3315,3.3269,3.3206,3.3096,3.2971,3.282,3.2647,3.2532,3.2422,3.2232,3.237,3.2559,3.269,3.2647,3.2502,3.2226,3.2146,3.2015,3.174,3.1679,3.1679,3.1679,3.1679,3.1679,3.1679,0.0,3.1001,0.0,0.0,0.0,0.0,3.01,3.0242,0.0,0.0,0.0,0.0,0.0,3.0732,3.0695,3.1089,3.1252,3.1147,3.1121,3.1052,3.0955,3.0922,3.0902,3.0902,3.0902,3.0932,3.0938,3.0478,3.0154,2.9883,2.8976,2.8269,2.7712,2.7274,2.6945,2.67,2.67,2.67,2.6691,3.6767,3.6786,3.6804,0.0,3.6878,3.6878,3.6878,3.6878,3.6878,3.6878,3.6823,3.6507,3.5751,3.5621,3.5225,3.437,0.0,0.0,3.4203,3.4203,3.3869,3.3126,3.2902,3.2447,3.1702,3.0753,3.0283,3.0283,2.9482,2.9073,2.9073,2.9023,2.9023,2.9073,2.9073,2.9115,2.917,2.917,2.9598,3.0283,3.0283,3.0723,3.1415,3.1464,3.1482,3.158,3.2321,3.2534,3.2593,3.3251,3.3452,3.3389,3.3307,3.3198,3.307,3.3011,3.2884,3.2765,3.2622,3.2534,3.2441,3.2301,3.2716,3.3321,3.395,3.3997,3.3694,3.3014,3.2755,3.2447,3.1703,3.1583,3.1549,3.1498,3.1498,3.1498,3.1498,3.1498,3.1498,0.0,0.0,0.0,3.1498,3.1479,3.1433,0.0,0.0,0.0,0.0,0.0,3.1295,3.1181,3.1062,3.0955,3.0902,3.0892,3.0881,3.0871,3.0871,3.0871,3.0871,3.0871,3.0881,3.0892,3.0892,3.047,2.979,2.9864,2.908,2.7835,2.7788,2.735,2.6742,2.6691,2.6683,2.6683,0.0,0.0,3.7807,3.842,3.8525,3.8525,3.8525,3.8525,3.8525,3.8525,3.7993,3.7547,3.7343,3.6786,3.608,3.5262,3.4575,3.4203,3.4203,3.4203,3.4129,3.3924,3.3204,3.2705,3.2514,3.1605,3.1115,3.1115,3.032,2.9928,2.9892,2.9299,2.9335,2.9928,2.9928,3.0265,3.084,3.084,3.095,3.1115,3.1115,3.1225,3.1464,3.2082,3.2314,3.2405,3.3084,3.3327,3.3322,3.3394,3.3389,3.3307,3.3173,3.3088,3.3011,3.294,3.2796,3.2622,3.2548,3.2836,3.3131,3.3005,3.342,3.3872,3.3935,3.392,3.3828,3.3532,3.3457,3.3215,3.2481,3.2344,3.2156,3.1583,3.1498,3.1498,3.1498,3.1498,3.1498,0.0,3.1406,3.1351,3.1351,3.1291,3.1259,0.0,0.0,3.1055,3.1005,3.154,3.158,3.0989,3.0942,3.0922,3.0902,3.081,3.0692,3.0599,3.0599,3.0599,3.0599,3.0599,3.0651,3.0743,3.0743,3.071,3.0573,2.9987,2.9535,2.9116,2.8012,2.7458,2.7249,2.6739,2.6546,2.6554,3.8365,3.8458,3.8581,3.9027,3.9101,3.9101,3.9101,3.9101,3.9101,3.9101,3.8711,3.8302,3.7937,3.751,3.6916,3.6117,3.5281,3.463,3.424,3.4203,3.4203,3.4203,3.3648,3.3352,3.3352,3.2427,3.1776,3.139,3.0968,3.0748,3.0742,3.0301,3.0338,3.0748,3.0748,3.0987,3.139,3.139,3.1611,3.1953,3.1953,3.2173,3.2547,3.2981,3.3138,3.3153,3.3476,3.3584,3.3534,3.343,3.3359,3.3269,3.3142,3.3024,3.2995,3.3249,3.323,3.3121,3.2984,3.3405,3.3903,3.4071,3.4306,3.4599,3.4881,3.4857,3.465,3.4239,3.4119,3.3839,3.3097,3.2961,3.2825,3.2424,3.2087,3.1866,3.1866,3.1577,3.1356,3.1356,3.1291,3.138,3.1729,3.1721,3.1823,3.209,3.2045,0.0,3.1876,3.2208,3.207,3.1328,3.1635,3.1781,3.1723,3.129,3.104,3.0949,3.0619,3.0453,3.0453,3.0495,3.0547,3.0609,3.0609,3.0651,3.0679,3.0319,2.9962,2.9545,2.8483,2.7823,2.7429,2.6753,2.6494,2.6485,3.9101,3.9101,3.9101,3.9101,3.9101,3.9101,3.9101,3.9101,3.9101,3.9101,3.9101,3.8841,3.8154,3.8086,3.777,3.6953,3.6265,3.5448,3.4463,3.4277,3.4197,3.4185,3.4068,3.3998,3.3985,3.3187,3.2449,3.1758,3.1647,3.1574,3.1574,3.147,3.1464,3.1574,3.1574,3.1647,3.1758,3.1758,3.2155,3.2791,3.2791,3.3195,3.3807,3.3807,3.3766,3.3684,3.3615,3.3556,3.3495,3.34,3.3337,3.3272,3.3271,3.3174,3.3174,3.3799,3.404,3.4032,3.3722,3.4091,3.4667,3.5221,3.527,3.5359,3.5979,3.596,3.5625,3.4963,3.4751,3.4438,3.37,3.3575,3.3541,3.3413,3.2865,3.2479,3.2479,0.0,3.1529,3.1529,3.1529,3.1775,3.2412,3.2479,3.2671,3.3159,3.3188,3.3097,3.2912,3.299,3.2757,3.2125,3.2607,3.2802,3.2668,3.1979,3.1578,3.1462,3.0836,3.0474,3.0359,3.0453,3.0468,3.0495,3.0506,3.0506,3.0516,3.062,3.0295,2.9669,2.8946,2.8247,2.7543,2.6742,2.645,2.6442,3.9087,3.9101,3.9101,3.9101,3.9101,3.9101,3.9101,3.9101,3.9101,3.9101,3.9101,3.9045,3.8934,3.8915,3.8581,3.7789,3.7603,3.6897,3.5398,3.4612,3.4173,3.4117,3.4042,3.3972,3.3914,3.3718,3.355,3.3421,3.2761,3.2406,3.2406,3.1721,3.1751,3.2406,3.2406,3.2791,3.3421,3.3421,3.3495,3.3605,3.3605,3.3697,3.3807,3.3807,3.3766,3.3684,3.3615,3.3556,3.3488,3.3359,3.3229,3.3235,3.3831,3.39,3.3884,3.4606,3.5134,3.5329,3.4551,3.4737,3.5294,3.59,3.6026,3.5996,3.5888,3.5828,3.5739,3.5503,3.5436,3.5205,3.4472,3.432,3.4134,3.3497,3.3294,3.3237,3.3237,0.0,3.3057,3.3057,3.3057,3.3102,3.322,3.3237,3.3218,3.3192,3.3146,3.3054,3.2912,3.3372,3.3608,3.3492,3.2995,3.2674,3.2534,3.2295,3.1882,3.1331,3.1216,3.0828,3.0248,3.0365,3.0428,3.0411,3.0485,3.0506,3.0506,3.0526,3.047,3.0239,2.8952,2.8374,2.8099,2.6737,2.6256,2.623,3.8986,3.9,3.9021,3.9087,3.9101,3.9101,3.9101,3.9101,3.9101,3.9101,3.9101,3.9101,3.9101,3.9101,3.8952,3.8581,3.816,3.7564,3.6794,3.5558,3.4618,3.4124,3.3998,3.3908,3.386,3.3827,3.3807,3.3807,3.3433,3.325,3.3231,3.2871,3.2889,3.325,3.325,3.3458,3.3807,3.3807,3.3807,3.3807,3.3807,3.3807,3.3807,3.3766,3.3698,3.3647,3.357,3.3491,3.3484,3.3792,3.3818,3.3876,3.4603,3.467,3.4641,3.5385,3.5614,3.5636,3.5598,3.5719,3.5911,3.6143,3.6144,3.6047,3.5839,3.5734,3.5667,3.5611,3.56,3.5509,3.5154,3.5087,3.4985,3.4647,3.4241,3.3981,3.3981,3.366,3.3396,3.3396,3.3396,3.3548,3.3947,3.3981,3.4092,3.4309,3.4292,3.418,3.3986,3.4238,3.4386,3.4386,3.3996,3.3721,3.3592,3.3041,3.2639,3.2313,3.1545,3.1007,3.0675,3.0401,3.0285,3.0295,3.0401,3.0443,3.0453,3.0495,3.0506,3.04,2.935,2.8714,2.8276,2.719,2.6535,2.6185,3.8851,3.8851,3.8896,3.8993,3.9059,3.9101,3.9101,3.9101,3.9101,3.9101,3.9101,3.9101,3.9101,3.9101,3.9101,3.9101,3.853,3.8044,3.7808,3.6603,3.5449,3.44,3.4051,3.3848,3.3807,3.3807,3.3807,3.3807,3.3807,3.3807,3.3807,3.3807,3.3807,3.3807,3.3807,3.3807,3.3807,3.3807,3.3807,3.3807,3.3807,3.3807,3.3782,3.3726,3.3778,3.3864,3.3804,3.3851,3.4022,3.4511,3.4631,3.4694,3.5385,3.5456,3.5394,3.6118,3.6073,3.5871,3.6377,3.6402,3.6269,3.6176,3.6079,3.5954,3.5795,3.5667,3.56,3.56,3.56,3.56,3.56,3.56,3.56,3.56,0.0,3.4759,3.4759,3.4258,3.3903,3.3903,3.3903,3.4123,3.4692,3.4759,3.4913,3.5264,3.5291,3.5187,3.4911,3.4899,3.4875,3.4816,3.472,3.4582,3.4448,3.3758,3.3328,3.3161,3.2087,3.1388,3.1047,3.0615,3.032,3.0157,3.0301,3.0359,3.039,3.0453,3.0495,3.0423,2.9688,2.8986,2.831,2.7573,2.6807,2.615,3.8704,3.8704,3.8723,3.8738,3.8928,3.9101,3.9101,3.9101,3.9101,3.9101,3.9101,3.9101,3.9101,3.9101,3.9101,3.9101,3.8994,3.8593,3.7845,3.7578,3.6744,3.519,3.4276,3.3814,3.3807,3.3807,3.3807,3.3807,3.3807,3.3807,3.3807,3.3807,3.3807,3.3807,3.3807,3.3807,3.3807,3.3807,3.3807,3.3807,3.3807,3.3807,3.3782,3.3726,3.4118,3.4696,3.464,3.5048,3.5599,3.5475,3.541,3.5512,3.6069,3.6131,3.6145,3.6837,3.6841,3.6612,3.6516,3.6402,3.6248,3.6062,3.6008,3.5932,3.5678,3.5611,3.56,3.56,3.56,3.56,3.56,3.56,3.56,3.56,0.0,0.0,3.5515,3.5464,3.543,3.543,3.543,3.5464,3.5515,3.5515,3.5459,3.5314,3.5291,3.5187,3.4911,3.4899,3.4792,3.4533,3.4521,3.4448,3.4312,3.4139,3.3724,3.3105,3.3008,3.2234,3.0916,3.1003,3.0652,3.0017,3.0162,3.0301,3.0407,3.0417,3.0443,3.0423,2.9688,2.8986,2.831,2.7573,2.6754,2.6017,3.8699,3.8699,3.8699,3.8699,3.8788,3.8851,3.8851,3.8981,3.9101,3.9101,3.9101,3.9101,3.9101,3.9036,3.8993,3.904,3.8983,3.8795,3.8438,3.8368,3.7617,3.5942,3.5025,3.4546,3.4546,3.4057,3.3807,3.3807,3.3807,3.3807,3.3807,3.3807,3.3807,3.3807,3.3807,3.3807,3.3807,3.3807,3.4094,3.4546,3.4546,3.4818,3.5209,3.5155,3.5275,3.5469,3.5411,3.5506,3.5726,3.6116,3.6203,3.6217,3.68,3.6929,3.6859,3.685,3.6718,3.6544,3.6412,3.6307,3.6191,3.6041,3.5949,3.5839,3.5644,3.56,3.56,3.56,3.56,3.56,3.56,3.56,3.56,3.56,0.0,3.56,3.56,3.56,3.56,3.56,3.56,3.56,3.56,3.56,3.5526,3.5314,3.5291,3.5187,3.4911,3.4899,3.4792,3.4509,3.4497,3.4399,3.4176,3.4126,3.3971,3.3724,3.3303,3.2562,3.1563,3.1156,3.0594,2.9935,3.0044,3.0103,3.0157,3.0231,3.0338,3.0389,3.0052,2.9232,2.8229,2.7871,2.6975,2.5927,3.8699,3.8699,3.8699,3.8699,3.8699,3.8699,3.8699,3.8859,3.8979,3.8979,3.8979,3.8979,3.8979,3.8896,3.8859,3.8932,3.8896,3.8859,3.8807,3.8777,3.8151,3.6732,3.5855,3.5408,3.5408,3.4871,3.4578,3.4578,3.4578,3.4578,3.4578,3.4578,3.4578,3.4578,3.4578,3.4578,3.4578,3.4578,3.4901,3.5408,3.5368,3.5655,3.608,3.5994,3.61,3.6266,3.6206,3.6244,3.6425,3.6918,3.6967,3.6907,3.7251,3.726,3.7085,3.6793,3.6613,3.6464,3.635,3.6223,3.6112,3.6019,3.5905,3.5762,3.5633,3.56,3.56,3.56,3.56,3.56,3.56,3.56,3.56,3.56,3.56,3.56,3.56,3.56,3.56,3.56,3.56,3.56,3.56,3.56,3.5526,3.5314,3.5291,3.5187,3.4911,3.4899,3.4792,3.4509,3.4497,3.4374,3.4101,3.4101,3.4101,3.4101,3.3643,3.2919,3.1984,3.1482,3.0749,2.9891,2.9957,2.9973,3.0006,3.0092,3.0227,3.0333,3.0248,2.9498,2.8441,2.8122,2.7228,2.6136,3.8699,3.8699,3.8699,3.8699,3.8699,3.8699,3.8699,3.8699,3.8699,3.8699,3.8699,3.8699,3.8699,3.8699,3.8727,3.8785,3.8796,3.8807,3.8807,3.8735,3.834,3.7547,3.6732,3.631,3.631,3.631,3.631,3.631,3.631,3.631,3.631,3.631,3.631,3.631,3.631,3.631,3.631,3.631,3.631,3.6303,3.6161,3.6113,3.6091,3.5973,3.6409,3.71,3.7027,3.7444,3.7984,3.7916,3.7757,3.7558,3.7363,3.7076,3.6788,3.6715,3.6602,3.6471,3.635,3.6159,3.6014,3.6014,3.5905,3.5762,3.565,3.5616,3.5616,3.5616,3.5616,3.5616,3.5616,3.5616,3.5616,3.5616,3.5616,3.5616,3.5616,3.5616,3.5616,3.5616,3.5616,3.5616,3.5616,3.5616,3.5526,3.5331,3.5308,3.5187,3.4923,3.4899,3.4792,3.4509,3.4497,3.4374,3.4101,3.4101,3.4101,3.4101,3.4101,3.3356,3.2,3.2,3.123,2.9907,2.9907,2.9935,2.9995,2.9995,3.0081,3.0199,3.0199,2.9747,2.9009,2.8279,2.748,2.6698,3.8699,3.8699,3.8699,3.8699,3.8699,3.8699,3.8699,3.8699,3.8699,3.8699,3.8699,3.8699,3.8699,3.8699,3.8715,3.8735,3.8727,3.8727,3.8727,3.8715,3.8589,3.8358,3.7577,3.7144,3.7144,3.6585,3.631,3.631,3.631,3.631,3.631,3.631,3.631,3.631,3.631,3.631,3.631,3.631,3.656,3.6995,3.6955,3.7218,3.7644,3.7606,3.7703,3.7863,3.7743,3.7795,3.7907,3.7792,3.7631,3.7411,3.7214,3.695,3.6725,3.6712,3.6534,3.635,3.6261,3.6489,3.6778,3.6778,3.665,3.6632,3.711,3.7217,3.7217,3.7217,3.7217,3.7217,3.7217,3.7217,3.7217,3.7217,3.7217,3.7217,3.7217,3.7217,3.7217,3.7217,3.7217,3.7217,3.7217,3.7217,3.7123,3.6855,3.6178,3.5762,3.569,3.5181,3.4792,3.4509,3.4497,3.4374,3.4101,3.4101,3.4101,3.4101,3.4101,3.3356,3.2,3.2,3.123,2.9907,2.9907,2.9902,2.9924,2.9924,2.9979,3.0049,3.0011,2.9599,2.8983,2.8682,2.7719,2.6551,3.8699,3.8699,3.8699,3.8699,3.8699,3.8699,3.8699,3.8699,3.8699,3.8699,3.8699,3.8699,3.8699,3.8699,3.8699,3.8699,3.8699,3.8699,3.8699,3.8699,3.8699,3.8699,3.823,3.7962,3.7962,3.7496,3.7257,3.7257,3.7257,3.7257,3.7257,3.7257,3.7257,3.7257,3.7257,3.7224,3.7176,3.7176,3.7398,3.7734,3.7721,3.7933,3.8299,3.8266,3.8207,3.8114,3.8036,3.7924,3.781,3.7703,3.7485,3.7242,3.704,3.6859,3.6692,3.6651,3.669,3.6745,3.6661,3.709,3.761,3.7859,3.7572,3.7359,3.7792,3.7893,3.7893,3.7893,3.7893,3.7893,3.7893,3.7893,3.7893,3.7893,3.7893,3.7893,3.7893,3.7893,3.7893,3.7893,3.7893,3.7893,3.7893,3.7893,3.7798,3.7521,3.685,3.6307,3.6025,3.553,3.5028,3.4525,3.4448,3.4325,3.4101,3.405,3.405,3.4101,3.405,3.3415,3.2305,3.1995,3.1225,3.0129,2.991,2.983,2.983,2.9885,2.9924,2.9957,2.9929,2.9648,2.9232,2.886,2.8103,2.7163,3.8699,3.8699,3.8699,3.8699,3.8699,3.8699,3.8699,3.8699,3.8699,3.8699,3.8699,3.8699,3.8699,3.8699,3.8699,3.8699,3.8699,3.8699,3.8699,3.8699,3.8699,3.8699,3.8699,3.8699,3.8699,3.8699,3.8699,3.8699,3.8699,3.8699,3.8699,3.8692,3.8673,3.8673,3.8684,3.8601,3.8494,3.8494,3.8454,3.8393,3.8322,3.8299,3.8282,3.8207,3.8105,3.7992,3.7975,3.7854,3.7676,3.7586,3.7354,3.706,3.6861,3.6755,3.6671,3.662,3.7024,3.7475,3.7401,3.7826,3.8428,3.903,3.8633,3.8108,3.8108,3.8108,3.8108,3.8108,3.8108,3.8108,3.8108,3.8108,3.8108,3.8108,3.8108,3.8108,3.8108,3.8108,3.8108,3.8108,3.8108,3.8108,3.8108,3.8072,3.7959,3.7722,3.7386,3.6907,3.6241,3.5952,3.542,3.4611,3.4407,3.4238,3.4101,3.3962,3.3962,3.4075,3.3949,3.3503,3.2755,3.1963,3.1198,3.0467,2.992,2.9686,2.9697,2.9819,2.9858,2.9858,2.9858,2.9797,2.9595,2.8924,2.8559,2.819,3.8699,3.8699,3.8699,3.8699,3.8699,3.8699,3.8699,3.8699,3.8699,3.8699,3.8699,3.8699,3.8699,3.8699,3.8699,3.8699,3.8699,3.8699,3.8699,3.8699,3.8699,3.8699,3.8699,3.8699,3.8699,3.8699,3.8699,3.8699,3.8699,3.8699,3.8699,3.8583,3.8533,3.8533,3.8488,3.8457,3.8423,3.8423,3.8385,3.8313,3.8307,3.8266,3.8217,3.8097,3.8036,3.7975,3.7819,3.7694,3.7577,3.7299,3.7135,3.6989,3.6859,3.6687,3.6655,3.7195,3.7357,3.7435,3.7877,3.8479,3.8996,3.9028,3.9346,3.9609,3.9609,3.9609,3.9609,3.9609,3.9609,3.9609,3.9609,3.9609,3.9609,3.9609,3.9609,3.9609,3.9609,3.9609,3.9609,3.9609,3.9609,3.9609,3.9609,3.9438,3.9285,3.9234,3.8434,3.7884,3.7735,3.6496,3.5667,3.5377,3.4668,3.4238,3.4101,3.3962,3.3911,3.3937,3.3809,3.3364,3.2618,3.1914,3.1198,3.0455,2.9818,2.9541,2.9552,2.9574,2.9586,2.9586,2.9586,2.9563,2.9525,2.9365,2.8887,2.8091,3.8699,3.8699,3.8699,3.8699,3.8699,3.8699,3.8699,3.8699,3.8699,3.8699,3.8699,3.8699,3.8699,3.8699,3.8699,3.8699,3.8699,3.8699,3.8699,3.8699,3.8699,3.8699,3.8699,3.8699,3.8699,3.865,3.8643,3.8699,3.8643,3.8609,3.8609,3.8494,3.8454,3.8454,3.8415,3.8385,3.8344,3.8344,3.8313,3.8241,3.8181,3.8139,3.8097,3.7994,3.7915,3.7836,3.7694,3.7531,3.7327,3.7166,3.7001,3.6888,3.6778,3.6887,3.7088,3.7443,3.7929,3.8403,3.8692,3.9245,3.969,3.955,3.9808,4.0096,4.0096,4.0096,4.0096,4.0096,4.0096,4.0096,4.0096,4.0096,4.0096,4.0096,4.0096,4.0096,4.0096,4.0096,4.0096,4.0096,4.0096,4.0096,4.0096,3.9871,3.9703,3.9703,3.9095,3.8533,3.8124,3.6906,3.6005,3.5518,3.4662,3.4138,3.4013,3.3873,3.3771,3.3723,3.3645,3.3399,3.2988,3.189,3.1197,3.0772,2.9824,2.94,2.9412,2.9473,2.9496,2.9496,2.9496,2.9462,2.94,2.94,2.8842,2.7966,3.8699,3.8699,3.8699,3.8699,3.8699,3.8699,3.8699,3.8699,3.8699,3.8699,3.8699,3.8699,3.8699,3.8817,3.8909,3.8909,3.903,3.9103,3.9103,3.9103,3.9103,3.9103,3.9088,3.9014,3.8878,3.8771,3.8672,3.8666,3.8544,3.8486,3.8486,3.8407,3.8385,3.8385,3.8377,3.8328,3.8282,3.8266,3.8224,3.8157,3.8027,3.7984,3.7976,3.7898,3.7793,3.7667,3.7595,3.7373,3.7081,3.706,3.7018,3.696,3.6876,3.7283,3.7783,3.7829,3.8625,3.9493,3.9541,3.9902,4.0238,4.0138,4.0096,4.0096,4.0096,4.0096,4.0096,4.0096,4.0096,4.0096,4.0096,4.0096,4.0096,4.0096,4.0096,4.0096,4.0096,4.0096,4.0096,4.0096,4.0096,4.0083,4.0075,3.9845,3.969,3.9664,3.9445,3.8967,3.82,3.7242,3.6358,3.5599,3.4588,3.4013,3.3899,3.3733,3.362,3.3503,3.345,3.3437,3.3432,3.2032,3.1321,3.1132,2.997,2.9382,2.9271,2.9389,2.9428,2.9428,2.9416,2.9332,2.922,2.9225,2.8728,2.802,3.8699,3.8699,3.8699,3.8699,3.8699,3.8699,3.8699,3.8699,3.8699,3.8699,3.8699,3.8699,3.8699,3.9313,3.9743,3.9743,4.0369,4.0791,4.0791,4.0791,4.0791,4.0791,4.0663,4.0292,3.967,3.9516,3.9151,3.8525,3.8446,3.8415,3.8407,3.8336,3.8305,3.8305,3.8249,3.8216,3.8217,3.8078,3.8044,3.8027,3.7942,3.7916,3.7908,3.7775,3.7685,3.7595,3.7476,3.728,3.7079,3.6901,3.7215,3.7648,3.7526,3.7927,3.856,3.9078,3.9322,3.9541,4.0043,4.0158,4.0125,4.0096,4.0096,4.0096,4.0096,4.0096,4.0096,4.0096,4.0096,4.0096,4.0096,4.0096,4.0096,4.0096,4.0096,4.0096,4.0096,4.0096,4.0096,4.0096,4.0096,4.0062,3.9952,3.9781,3.9638,3.9541,3.9395,3.9169,3.8878,3.7492,3.6604,3.6362,3.4771,3.3924,3.3899,3.3642,3.3516,3.3503,3.3253,3.3216,3.3303,3.2513,3.1804,3.1163,3.041,2.9725,2.9121,2.916,2.9144,2.9133,2.9025,2.8978,2.8955,2.8897,2.8791,2.8588,3.8699,3.8699,3.8699,3.8699,3.8699,3.8699,3.8699,3.8699,3.8699,3.8699,3.8699,3.8699,3.8699,3.9423,4.0084,4.0524,4.0901,4.1095,4.1095,4.1036,4.0993,4.0993,4.0909,4.0694,4.0366,4.0272,4.0046,3.9733,3.8808,3.8336,3.8346,3.8282,3.8189,3.8129,3.8105,3.8063,3.8021,3.7959,3.7951,3.7942,3.7819,3.7775,3.7721,3.7586,3.7494,3.7472,3.7792,3.7768,3.7657,3.7985,3.8206,3.8341,3.8298,3.8656,3.9158,3.9427,3.9684,3.9966,4.0232,4.0201,4.0096,4.0096,4.0096,4.0096,4.0096,4.0096,4.0096,4.0096,4.0096,4.0096,4.0096,4.0096,4.0096,4.0096,4.0096,4.0096,4.0096,4.0096,4.0096,4.0096,4.0096,4.0049,3.9914,3.9781,3.9638,3.9514,3.9272,3.905,3.8901,3.7435,3.6479,3.6222,3.4717,3.3822,3.3684,3.3568,3.3424,3.3282,3.315,3.3123,3.3158,3.2371,3.1642,3.0936,3.0277,2.9587,2.8932,2.8932,2.8932,2.8932,2.8869,2.8846,2.8822,2.8732,2.8684,2.8625]}]]